[[{"header":{"parameterUnit":"m.s-1","parameterCategory":1,"la1":30.6,"la2":29.2853,"lo1":-89.7004,"lo2":-87.6739,"dy":0.0162,"dx":0.0183,"nx":112,"ny":82,"refTime":"2026-03-28T12:00:00:Z","depth":0,"parameterNumber":2,"parameterNumberName":"U-component_of_WINDS"},"data":[0.0,0.0,0.0,0.0,0.0,0.0,0.0,0.0,0.0,0.0,0.0,0.0,0.0,0.0,0.0,0.0,0.0,0.0,0.0,0.0,0.0,0.0,0.0,0.0,0.0,0.0,0.0,0.0,0.0,0.0,0.0,0.0,0.0,0.0,0.0,0.0,0.0,0.0,0.0,0.0,0.0,0.0,0.0,0.0,0.0,0.0,0.0,0.0,0.0,0.0,0.0,0.0,0.0,0.0,0.0,0.0,0.0,0.0,0.0,0.0,0.0,0.0,0.0,0.0,0.0,0.0,0.0,0.0,0.0,0.0,0.0,0.0,0.0,0.0,0.0,0.0,0.0,0.0,0.0,0.0,0.0,0.0,0.0,0.0,0.0,0.0,0.0,0.0,0.0,0.0,-3.021,-3.1414,-3.0805,-2.9755,-2.8388,-2.791,-2.7109,-2.5771,0.0,0.0,0.0,0.0,0.0,0.0,0.0,0.0,0.0,0.0,0.0,0.0,0.0,0.0,0.0,0.0,0.0,0.0,0.0,0.0,0.0,0.0,0.0,0.0,0.0,0.0,0.0,0.0,0.0,0.0,0.0,0.0,0.0,0.0,0.0,0.0,0.0,0.0,0.0,0.0,0.0,0.0,0.0,0.0,0.0,0.0,0.0,0.0,0.0,0.0,0.0,0.0,0.0,0.0,0.0,0.0,0.0,0.0,0.0,0.0,0.0,0.0,0.0,0.0,0.0,0.0,0.0,0.0,0.0,0.0,0.0,0.0,0.0,0.0,0.0,0.0,0.0,0.0,0.0,0.0,0.0,0.0,0.0,0.0,0.0,0.0,0.0,0.0,0.0,0.0,0.0,0.0,0.0,0.0,0.0,0.0,0.0,0.0,0.0,0.0,0.0,0.0,0.0,0.0,-2.8181,-2.9856,-3.0206,-2.9755,-2.8388,-2.791,-2.7109,-2.5771,0.0,0.0,0.0,0.0,0.0,0.0,0.0,0.0,0.0,0.0,0.0,0.0,0.0,0.0,0.0,0.0,0.0,0.0,0.0,0.0,0.0,0.0,0.0,0.0,0.0,0.0,0.0,0.0,0.0,0.0,0.0,0.0,0.0,0.0,0.0,0.0,0.0,0.0,0.0,0.0,0.0,0.0,0.0,0.0,0.0,0.0,0.0,0.0,0.0,0.0,0.0,0.0,0.0,0.0,0.0,0.0,0.0,0.0,0.0,0.0,0.0,0.0,0.0,0.0,0.0,0.0,0.0,0.0,0.0,0.0,0.0,0.0,0.0,0.0,0.0,0.0,0.0,0.0,0.0,0.0,0.0,0.0,0.0,0.0,0.0,0.0,0.0,0.0,0.0,0.0,0.0,0.0,0.0,0.0,0.0,0.0,0.0,0.0,0.0,0.0,0.0,0.0,0.0,-2.9669,-3.0066,-3.104,-3.0645,-2.9755,-2.8388,-2.791,-2.7109,-2.5771,-2.5312,0.0,0.0,0.0,0.0,0.0,0.0,0.0,0.0,0.0,0.0,0.0,0.0,0.0,0.0,0.0,0.0,0.0,0.0,0.0,0.0,0.0,0.0,0.0,0.0,0.0,0.0,0.0,0.0,0.0,0.0,0.0,0.0,0.0,0.0,0.0,0.0,0.0,0.0,0.0,0.0,0.0,0.0,0.0,0.0,0.0,0.0,0.0,0.0,0.0,0.0,0.0,0.0,0.0,0.0,0.0,0.0,0.0,0.0,0.0,0.0,0.0,0.0,0.0,0.0,0.0,0.0,0.0,0.0,0.0,0.0,0.0,0.0,0.0,0.0,0.0,0.0,0.0,0.0,0.0,0.0,0.0,0.0,0.0,0.0,0.0,0.0,0.0,0.0,0.0,0.0,0.0,0.0,0.0,0.0,0.0,0.0,0.0,0.0,0.0,0.0,0.0,0.0,-3.1739,-3.244,-3.2319,-3.1367,-3.012,-2.8441,-2.7812,-2.7012,-2.5771,-2.5215,0.0,0.0,0.0,0.0,0.0,0.0,0.0,0.0,0.0,0.0,0.0,0.0,0.0,0.0,0.0,0.0,0.0,0.0,0.0,0.0,0.0,0.0,0.0,0.0,0.0,0.0,0.0,0.0,0.0,0.0,0.0,0.0,0.0,0.0,0.0,0.0,0.0,0.0,0.0,0.0,0.0,0.0,0.0,0.0,0.0,0.0,0.0,0.0,0.0,0.0,0.0,0.0,0.0,0.0,0.0,0.0,0.0,0.0,0.0,0.0,0.0,0.0,0.0,0.0,0.0,0.0,0.0,0.0,0.0,0.0,0.0,0.0,0.0,0.0,0.0,0.0,0.0,0.0,0.0,0.0,0.0,0.0,0.0,0.0,0.0,0.0,0.0,0.0,0.0,0.0,0.0,0.0,0.0,0.0,0.0,0.0,0.0,0.0,0.0,0.0,0.0,0.0,-3.244,-3.3754,-3.2431,-3.223,-3.1133,-2.8495,-2.7539,-2.668,-2.5752,-2.4894,0.0,0.0,0.0,0.0,0.0,0.0,0.0,0.0,0.0,0.0,0.0,0.0,0.0,0.0,0.0,0.0,0.0,0.0,0.0,0.0,0.0,0.0,0.0,0.0,0.0,0.0,0.0,0.0,0.0,0.0,0.0,0.0,0.0,0.0,0.0,0.0,0.0,0.0,0.0,0.0,0.0,0.0,0.0,0.0,0.0,0.0,0.0,0.0,0.0,0.0,0.0,0.0,0.0,0.0,0.0,0.0,0.0,0.0,0.0,0.0,0.0,0.0,0.0,0.0,0.0,0.0,0.0,0.0,0.0,0.0,0.0,0.0,0.0,0.0,0.0,0.0,0.0,0.0,0.0,0.0,0.0,0.0,0.0,0.0,0.0,0.0,0.0,0.0,0.0,0.0,0.0,0.0,0.0,0.0,0.0,0.0,0.0,0.0,0.0,0.0,0.0,0.0,-3.0583,-3.1806,0.0,-3.1081,-3.0328,-2.8441,-2.7988,-2.7226,-2.5771,0.0,0.0,0.0,0.0,0.0,0.0,0.0,0.0,0.0,0.0,0.0,0.0,0.0,0.0,0.0,0.0,0.0,0.0,0.0,0.0,0.0,0.0,0.0,0.0,0.0,0.0,0.0,0.0,0.0,0.0,0.0,0.0,0.0,0.0,0.0,0.0,0.0,0.0,0.0,0.0,0.0,0.0,0.0,0.0,0.0,0.0,0.0,0.0,0.0,0.0,0.0,0.0,0.0,0.0,0.0,0.0,0.0,0.0,0.0,0.0,0.0,0.0,0.0,0.0,0.0,0.0,0.0,0.0,0.0,0.0,0.0,0.0,0.0,0.0,0.0,0.0,0.0,0.0,0.0,0.0,0.0,0.0,0.0,0.0,0.0,0.0,0.0,0.0,0.0,0.0,0.0,0.0,0.0,0.0,0.0,0.0,0.0,0.0,0.0,0.0,0.0,0.0,-2.7547,-2.9386,-3.0565,0.0,-3.0538,-2.9981,-2.8604,-2.8242,-2.7422,-2.5791,0.0,0.0,0.0,0.0,0.0,0.0,0.0,0.0,0.0,0.0,0.0,0.0,0.0,0.0,0.0,0.0,0.0,0.0,0.0,0.0,0.0,0.0,0.0,0.0,0.0,0.0,0.0,0.0,0.0,0.0,0.0,0.0,0.0,0.0,0.0,0.0,0.0,0.0,0.0,0.0,0.0,0.0,0.0,0.0,0.0,0.0,0.0,0.0,0.0,0.0,0.0,0.0,0.0,0.0,0.0,0.0,0.0,0.0,0.0,0.0,0.0,0.0,0.0,0.0,0.0,0.0,0.0,0.0,0.0,0.0,0.0,0.0,0.0,0.0,0.0,0.0,0.0,0.0,0.0,0.0,0.0,0.0,0.0,0.0,0.0,0.0,0.0,0.0,0.0,0.0,0.0,0.0,0.0,0.0,0.0,0.0,0.0,0.0,0.0,0.0,0.0,0.0,-2.751,-2.9224,-3.0465,-3.0926,-3.0967,-3.0401,-2.9035,-2.8164,-2.7129,0.0,0.0,0.0,0.0,0.0,0.0,0.0,0.0,0.0,0.0,0.0,0.0,0.0,0.0,0.0,0.0,0.0,0.0,0.0,0.0,0.0,0.0,0.0,0.0,0.0,0.0,0.0,0.0,0.0,0.0,0.0,0.0,0.0,0.0,0.0,0.0,0.0,0.0,0.0,0.0,0.0,0.0,0.0,0.0,0.0,0.0,0.0,0.0,0.0,0.0,0.0,0.0,0.0,0.0,0.0,0.0,0.0,0.0,0.0,0.0,0.0,0.0,0.0,0.0,0.0,0.0,0.0,0.0,0.0,0.0,0.0,0.0,0.0,0.0,0.0,0.0,0.0,0.0,0.0,0.0,0.0,0.0,0.0,0.0,0.0,0.0,0.0,0.0,0.0,0.0,0.0,0.0,0.0,0.0,0.0,0.0,0.0,0.0,0.0,0.0,0.0,0.0,0.0,-2.7013,-2.874,-2.9879,-2.9998,-3.0018,-2.9853,-2.943,-2.8867,-2.7482,-2.5013,0.0,0.0,0.0,0.0,0.0,0.0,0.0,0.0,0.0,0.0,0.0,0.0,0.0,0.0,0.0,0.0,0.0,0.0,0.0,0.0,0.0,0.0,0.0,0.0,0.0,0.0,0.0,0.0,0.0,0.0,0.0,0.0,0.0,0.0,0.0,0.0,0.0,0.0,0.0,0.0,0.0,0.0,0.0,0.0,0.0,0.0,0.0,0.0,0.0,0.0,0.0,0.0,0.0,0.0,0.0,0.0,0.0,0.0,0.0,0.0,0.0,0.0,0.0,0.0,0.0,0.0,0.0,0.0,0.0,0.0,0.0,0.0,0.0,0.0,0.0,0.0,0.0,0.0,0.0,0.0,0.0,0.0,0.0,0.0,0.0,0.0,0.0,0.0,0.0,0.0,0.0,0.0,0.0,0.0,0.0,0.0,0.0,0.0,0.0,0.0,0.0,0.0,-2.5263,-2.6701,-2.7763,-2.8016,-2.7964,-2.8177,-2.8823,-2.792,-2.6518,-2.4641,0.0,0.0,0.0,0.0,0.0,0.0,0.0,0.0,0.0,0.0,0.0,0.0,0.0,0.0,0.0,0.0,0.0,0.0,0.0,0.0,0.0,0.0,0.0,0.0,0.0,0.0,0.0,0.0,0.0,0.0,0.0,0.0,0.0,0.0,0.0,0.0,0.0,0.0,0.0,0.0,0.0,0.0,0.0,0.0,0.0,0.0,0.0,0.0,0.0,0.0,0.0,0.0,0.0,0.0,0.0,0.0,0.0,0.0,0.0,0.0,0.0,0.0,0.0,0.0,0.0,0.0,0.0,0.0,0.0,0.0,0.0,0.0,0.0,0.0,0.0,0.0,0.0,0.0,0.0,0.0,0.0,0.0,0.0,0.0,0.0,0.0,0.0,0.0,0.0,0.0,0.0,0.0,0.0,0.0,0.0,0.0,0.0,0.0,0.0,0.0,0.0,0.0,-2.3037,-2.4138,-2.5146,-2.5818,-2.5572,-2.6016,-2.7529,-2.6014,-2.4766,-2.4291,0.0,0.0,0.0,0.0,0.0,0.0,0.0,0.0,0.0,0.0,0.0,0.0,0.0,0.0,0.0,0.0,0.0,0.0,0.0,0.0,0.0,0.0,0.0,0.0,0.0,0.0,0.0,0.0,0.0,0.0,0.0,0.0,0.0,0.0,0.0,0.0,0.0,0.0,0.0,0.0,0.0,0.0,0.0,0.0,0.0,0.0,0.0,0.0,0.0,0.0,0.0,0.0,0.0,0.0,0.0,0.0,0.0,0.0,0.0,0.0,-2.7907,-2.7791,0.0,0.0,0.0,0.0,0.0,0.0,0.0,0.0,0.0,0.0,0.0,0.0,0.0,0.0,0.0,0.0,0.0,0.0,0.0,0.0,0.0,0.0,0.0,0.0,0.0,0.0,0.0,0.0,0.0,0.0,0.0,0.0,0.0,0.0,0.0,0.0,0.0,0.0,0.0,0.0,-2.3828,-2.5205,-2.6224,-2.6621,-2.6389,-2.6282,-2.665,-2.5807,-2.4389,-2.2506,-2.0941,0.0,0.0,0.0,0.0,0.0,0.0,0.0,0.0,0.0,0.0,0.0,0.0,0.0,0.0,0.0,0.0,0.0,0.0,0.0,0.0,0.0,0.0,0.0,0.0,0.0,0.0,0.0,0.0,0.0,0.0,0.0,0.0,0.0,0.0,0.0,0.0,0.0,0.0,0.0,0.0,0.0,0.0,0.0,0.0,0.0,0.0,0.0,0.0,0.0,0.0,0.0,0.0,0.0,0.0,0.0,0.0,0.0,0.0,0.0,-2.7744,-2.7204,0.0,0.0,0.0,0.0,0.0,0.0,0.0,0.0,0.0,0.0,0.0,0.0,0.0,0.0,0.0,0.0,0.0,0.0,0.0,0.0,0.0,0.0,0.0,0.0,0.0,0.0,0.0,0.0,0.0,0.0,0.0,0.0,0.0,0.0,0.0,0.0,0.0,0.0,0.0,0.0,-2.2155,-2.3381,-2.4295,-2.466,-2.4471,-2.4581,-2.5407,-2.4099,-2.3006,-2.2299,-2.0448,0.0,0.0,0.0,0.0,0.0,0.0,0.0,0.0,0.0,0.0,0.0,0.0,0.0,0.0,0.0,0.0,0.0,0.0,0.0,0.0,0.0,0.0,0.0,0.0,0.0,0.0,0.0,0.0,0.0,0.0,0.0,0.0,0.0,0.0,0.0,0.0,0.0,0.0,0.0,0.0,0.0,0.0,0.0,0.0,0.0,0.0,0.0,0.0,0.0,0.0,0.0,0.0,0.0,-2.8237,-2.8681,-2.9163,-2.9163,-2.9194,-2.9179,-2.7718,-2.6863,-2.6565,-2.5958,0.0,0.0,0.0,0.0,0.0,0.0,0.0,0.0,0.0,0.0,0.0,0.0,0.0,0.0,0.0,0.0,0.0,0.0,0.0,0.0,0.0,0.0,0.0,0.0,-1.5836,-1.6609,-1.8545,0.0,0.0,0.0,0.0,0.0,0.0,0.0,0.0,0.0,0.0,0.0,-2.0201,-2.1082,-2.1857,-2.2432,-2.2231,-2.2638,-2.392,-2.2323,-2.1581,-2.2478,-2.0153,-1.8437,0.0,0.0,0.0,0.0,0.0,0.0,0.0,0.0,0.0,0.0,0.0,0.0,0.0,0.0,0.0,0.0,0.0,0.0,0.0,0.0,0.0,0.0,0.0,0.0,0.0,0.0,0.0,0.0,0.0,0.0,0.0,0.0,-2.7654,-2.7262,0.0,0.0,0.0,0.0,0.0,0.0,0.0,0.0,0.0,0.0,0.0,0.0,0.0,-2.4847,-2.5294,-2.6115,-2.6566,-2.6662,-2.7702,-2.8112,-2.7921,-2.7921,-2.8071,-2.8373,-2.7839,0.0,-2.6914,-2.5143,0.0,0.0,0.0,0.0,0.0,0.0,0.0,0.0,0.0,0.0,0.0,0.0,0.0,0.0,0.0,0.0,0.0,0.0,0.0,0.0,0.0,0.0,-1.7066,-1.6658,-1.6628,-1.6768,0.0,-1.7379,-1.7961,-1.9338,-1.8089,0.0,0.0,0.0,0.0,0.0,0.0,0.0,-2.0535,-2.139,-2.2151,-2.2739,-2.2539,-2.2418,-2.2619,-2.219,-2.1854,-2.1774,-2.0631,-1.984,-1.9466,-1.813,0.0,0.0,0.0,0.0,0.0,0.0,0.0,0.0,0.0,0.0,0.0,0.0,0.0,0.0,0.0,0.0,0.0,0.0,0.0,0.0,0.0,0.0,0.0,0.0,0.0,0.0,0.0,0.0,0.0,-2.6404,-2.6337,-2.4966,-2.5388,-2.5349,0.0,0.0,0.0,0.0,0.0,0.0,0.0,0.0,0.0,-2.6432,-2.5954,-2.5959,-2.6547,-2.7094,-2.7549,-2.7883,-2.8404,-2.8671,-2.8698,-2.8698,-2.8684,-2.8558,-2.7015,-2.6276,-2.6031,-2.5633,-2.4706,-2.3365,0.0,0.0,0.0,0.0,-1.9318,-1.9315,-1.9667,-1.9768,-1.9829,-1.9761,0.0,0.0,0.0,0.0,0.0,0.0,0.0,0.0,0.0,0.0,-1.5536,-1.472,-1.4549,-1.4875,-1.5768,-1.5945,-1.6206,0.0,-1.6732,-1.6082,-1.6258,0.0,0.0,0.0,0.0,-1.8875,-1.9424,-2.1085,-2.2392,-2.2819,-2.2739,-2.2672,-2.2672,-2.2405,-2.2178,-2.2044,-2.1376,-2.0842,-2.0548,-1.9439,-1.8677,0.0,0.0,0.0,0.0,0.0,0.0,0.0,0.0,0.0,0.0,0.0,0.0,0.0,0.0,0.0,0.0,0.0,0.0,0.0,0.0,0.0,0.0,0.0,0.0,0.0,0.0,0.0,0.0,-2.5334,-2.5371,-2.352,-2.4168,-2.4329,0.0,0.0,0.0,0.0,0.0,0.0,-2.5384,-2.5705,-2.6266,-2.7148,-2.7388,-2.7789,-2.8377,-2.8604,-2.8978,-2.9486,-2.9486,-2.9606,-2.982,-2.9167,-2.868,-2.8296,-2.5783,-2.4632,-2.4552,-2.4804,-2.3464,-2.1145,-2.07,-1.9467,-1.781,-1.7761,-1.7764,-1.7949,-1.8425,-1.8534,-1.8494,-1.8296,-1.7941,-1.7351,-1.5548,0.0,0.0,0.0,0.0,-1.4797,-1.4104,-1.408,-1.3976,-1.304,-1.2874,-1.3293,-1.4446,-1.4489,-1.4638,0.0,-1.5634,-1.5173,-1.4739,0.0,0.0,0.0,0.0,-1.7553,-1.7931,-1.973,-2.1077,-2.1421,-2.1885,-2.216,-2.216,-2.2387,-2.2539,-2.2539,-2.2058,-2.167,-2.1456,-2.0668,-1.9973,-1.9386,0.0,0.0,0.0,0.0,0.0,0.0,0.0,0.0,0.0,0.0,0.0,0.0,0.0,0.0,0.0,0.0,0.0,0.0,0.0,0.0,0.0,0.0,0.0,0.0,0.0,0.0,0.0,0.0,0.0,-2.4623,-2.5571,0.0,0.0,0.0,0.0,-2.5358,-2.5932,-2.6627,-2.7495,-2.7829,-2.8404,-2.9299,-2.9339,-2.9633,-3.0221,-3.0234,-3.0408,-3.0702,-3.0702,-3.0715,-3.0636,-2.8155,-2.7016,-2.6887,-2.413,-2.2707,-2.2333,-2.1312,-2.0827,-2.0557,-1.9833,-1.9493,-1.9382,-1.9005,-1.8946,-1.8956,-1.8976,-1.8985,-1.9015,-1.9433,-1.8916,-1.735,-1.3627,-1.3341,0.0,0.0,-1.2229,-1.2498,-1.2587,-1.2667,-1.2824,-1.2988,-1.2956,-1.3036,-1.3102,-1.2752,-1.3379,0.0,-1.5484,-1.4457,-1.5779,0.0,-1.3791,-1.5216,-1.5773,-1.6145,-1.6443,-1.6821,-1.7203,-1.7438,-1.9147,-2.0271,-2.0271,-2.1872,-2.2846,-2.2846,-2.2552,-2.2365,-2.2352,-2.1777,-2.1253,-2.0601,-1.8257,0.0,0.0,0.0,0.0,0.0,0.0,0.0,0.0,0.0,0.0,0.0,0.0,0.0,0.0,0.0,0.0,0.0,0.0,0.0,0.0,0.0,0.0,0.0,0.0,0.0,0.0,0.0,0.0,-2.5812,-2.6974,0.0,-2.6306,-2.6547,-2.68,-2.6907,-2.7642,-2.8404,-2.9085,-2.9406,-2.9806,-3.0314,-3.0327,-3.0421,-3.0635,-3.0635,-3.0782,-3.1076,-3.1076,-3.1076,-3.0983,-2.8393,-2.7052,-2.6689,-2.2378,-2.0445,-2.0033,-1.8026,-1.782,-1.8873,-1.8658,-1.757,-1.6168,-1.591,-1.5917,-1.5996,-1.5886,-1.5847,-1.5816,-1.5826,-1.5365,-1.463,-1.3232,-1.2958,-1.3111,-1.2683,-1.2637,-1.2779,-1.3017,-1.3119,-1.3173,-1.3227,-1.3247,-1.322,-1.3119,-1.2969,-1.3161,-1.4137,-1.3399,-1.2723,-1.3006,-1.2497,-1.2162,-1.2492,-1.3823,-1.4904,-1.5111,-1.641,-1.7438,-1.7529,-1.8104,-1.8534,-1.8534,-1.9107,-1.9442,-1.9442,-1.9217,-1.9082,-1.9082,-1.8676,-1.834,-1.7949,-1.6668,-1.554,0.0,0.0,0.0,0.0,0.0,0.0,0.0,0.0,0.0,0.0,0.0,0.0,0.0,0.0,0.0,0.0,0.0,0.0,0.0,0.0,0.0,0.0,0.0,0.0,0.0,-2.6226,-2.7241,-2.7148,-2.8364,-2.8845,-2.7949,-2.8217,-2.8484,-2.8591,-2.9152,-2.974,-3.0327,-3.0541,-3.0782,-3.1076,-3.1089,-3.1089,-3.1089,-3.1089,-3.1183,-3.137,-3.137,-3.137,-3.1276,-2.7712,-2.6074,-2.5622,-2.0412,-1.8128,-1.7914,-1.605,-1.6054,-1.7144,-1.697,-1.5861,-1.4434,-1.4333,-1.436,-1.4428,-1.4272,-1.419,-1.4109,-1.3858,-1.3607,-1.3383,-1.3288,-1.3186,-1.3125,-1.3227,-1.3261,-1.3302,-1.3498,-1.3512,-1.3478,-1.3478,-1.3437,-1.337,-1.3268,-1.3207,-1.3112,-1.2915,-1.2474,-1.204,-1.1748,-1.1694,-1.1592,-1.1224,-1.2496,-1.3468,-1.3523,-1.4868,-1.58,-1.58,-1.6379,-1.6745,-1.6745,-1.7129,-1.7419,-1.75,-1.7228,-1.7056,-1.7137,-1.6843,-1.6581,-1.6281,-1.5061,-1.3778,-1.2457,0.0,0.0,0.0,0.0,0.0,0.0,0.0,0.0,0.0,0.0,0.0,0.0,0.0,0.0,0.0,0.0,0.0,0.0,0.0,0.0,0.0,0.0,0.0,-2.6077,-2.735,-2.8395,-2.8644,-2.9713,-3.0314,-3.002,-2.998,-3.01,-3.0381,-3.0394,-3.0648,-3.1209,-3.1249,-3.1383,-3.1677,-3.1677,-3.1677,-3.1677,-3.1677,-3.1677,-3.1664,-3.1677,-3.1582,-3.1379,-2.6205,-2.3783,-2.3471,-1.8247,-1.5859,-1.5845,-1.5703,-1.5554,-1.5364,-1.493,-1.476,-1.4753,-1.4746,-1.4746,-1.4719,-1.457,-1.4428,-1.4285,-1.4136,-1.398,-1.3765,-1.3851,-1.3759,-1.3838,-1.3838,-1.3838,-1.3838,-1.3838,-1.3736,-1.3634,-1.3634,-1.3519,-1.3403,-1.3403,-1.3288,-1.318,-1.3173,-1.2942,-1.2651,-1.2345,-1.2291,-1.2189,-1.1884,-1.1972,0.0,-1.1864,-1.1979,-1.2074,-1.2142,-1.3749,-1.4843,-1.4843,-1.6153,-1.7137,-1.7347,-1.6886,-1.6682,-1.6825,-1.6567,-1.6298,-1.5923,-1.3466,-1.1331,-0.9632,0.0,0.0,0.0,0.0,0.0,0.0,0.0,0.0,0.0,0.0,0.0,0.0,0.0,0.0,0.0,0.0,0.0,0.0,0.0,0.0,0.0,-2.6453,-2.7148,-2.6934,-2.8364,-2.9619,-3.0127,-3.1223,-3.1824,-3.153,-3.1503,-3.145,-3.1316,-3.1303,-3.1383,-3.1543,-3.1744,-3.1891,-3.1984,-3.1984,-3.1984,-3.1984,-3.1984,-3.1877,-3.1677,-3.0018,-2.903,-2.8656,-2.3481,-2.1049,-2.0853,-1.7499,-1.5954,-1.595,-1.5811,-1.5642,-1.5398,-1.5276,-1.516,-1.5045,-1.4943,-1.4835,-1.4733,-1.4692,-1.4652,-1.459,-1.4441,-1.4292,-1.4156,-1.4041,-1.3933,-1.3838,-1.3838,-1.3838,-1.3838,-1.3838,-1.381,-1.3756,-1.3654,-1.36,-1.3539,-1.3424,-1.337,-1.3308,-1.3193,-1.3105,-1.2922,-1.2515,-1.2359,-1.2223,-1.2026,-1.2128,0.0,-1.2169,-1.2291,-1.2338,-1.2237,-1.267,-1.3047,-1.3047,-1.3184,-1.3294,-1.334,-1.3051,-1.2874,-1.2796,-1.2703,-1.2634,-1.258,-1.1481,-1.0692,0.0,0.0,0.0,0.0,0.0,0.0,0.0,0.0,0.0,0.0,0.0,0.0,0.0,0.0,0.0,0.0,0.0,0.0,0.0,0.0,0.0,0.0,-2.7762,-2.8511,-2.8711,-2.974,-3.0688,-3.1276,-3.2158,-3.2612,-3.2318,-3.2291,-3.2118,-3.1704,-3.1664,-3.1664,-3.1664,-3.1944,-3.2104,-3.2104,-3.2225,-3.2225,-3.2104,-3.2104,-3.1465,-3.002,-2.8717,-2.7433,-2.6023,-2.1916,-2.0054,-1.988,-1.7253,-1.6029,-1.5947,-1.5947,-1.5811,0.0,0.0,0.0,0.0,0.0,-1.5004,-1.4916,-1.4855,-1.4835,-1.4814,-1.4658,-1.4509,-1.4373,-1.4285,-1.415,-1.4034,-1.4034,-1.4034,-1.4034,-1.4034,-1.3987,-1.3919,-1.3838,-1.3763,-1.3675,-1.3532,-1.3498,-1.3451,-1.3295,-1.3214,0.0,-1.2827,-1.261,-1.24,-1.2189,-1.2284,-1.2359,-1.2298,-1.2413,-1.2467,-1.2386,-1.2379,-1.2379,-1.2379,-1.2101,0.0,0.0,0.0,-1.1267,-1.0989,-1.1036,0.0,0.0,0.0,0.0,0.0,0.0,0.0,0.0,-1.0025,-0.9958,0.0,0.0,0.0,0.0,0.0,0.0,0.0,0.0,0.0,0.0,0.0,0.0,0.0,0.0,0.0,0.0,-2.9058,-2.9967,-3.0782,-3.1196,-3.1597,-3.2051,-3.2625,-3.2866,-3.267,-3.2643,-3.2318,-3.1757,-3.169,-3.1664,-3.1664,-3.1971,0.0,0.0,0.0,-3.2315,-3.1759,-3.1719,-3.0202,-2.7334,-2.7284,-2.5886,-2.3433,-2.0876,-1.9668,-1.9396,-1.7154,-1.6083,-1.6083,-1.6083,-1.5981,-1.5805,-1.552,-1.5316,-1.5181,-1.5181,-1.5181,-1.5167,-1.5038,0.0,0.0,-1.4794,-1.4652,-1.4529,-1.4496,-1.4401,-1.4299,-1.4299,-1.4299,-1.4299,-1.4299,-1.4197,-1.4095,-1.4075,-1.3966,-1.3824,-1.3682,-1.3641,-1.3587,-1.3451,-1.3302,-1.3193,-1.3173,-1.2942,-1.2664,-1.2406,-1.2461,-1.2481,-1.2352,-1.2433,-1.2494,-1.2481,0.0,0.0,-1.2474,-1.2223,-1.2135,-1.2135,-1.1653,-1.124,-1.0839,-1.0955,-1.0894,-1.0622,-1.0751,-1.0887,-1.0954,-1.0954,-1.1165,-1.1416,-1.0446,-1.0297,0.0,0.0,0.0,0.0,0.0,0.0,0.0,0.0,0.0,0.0,0.0,0.0,0.0,0.0,0.0,-2.8738,-3.0007,-3.1036,-3.1436,-3.2158,-3.2505,-3.2144,-3.2625,-3.2866,-3.267,-3.2643,-3.2398,-3.2051,-3.1797,-3.1664,-3.1664,-3.2171,-3.2465,-3.2465,-3.2616,-3.1516,-2.937,-2.9055,-2.7536,-2.4742,-2.2874,0.0,-2.0803,-1.8274,-1.7013,-1.6864,-1.6275,-1.6083,-1.6083,-1.6083,-1.592,-1.5662,-1.5479,-1.5316,-1.5181,-1.5181,-1.5181,-1.5181,-1.5153,-1.514,-1.5099,-1.4828,-1.4719,-1.4652,-1.4414,-1.4319,0.0,-1.4299,-1.4299,-1.4299,-1.4299,-1.4278,-1.4224,-1.4102,-1.4048,-1.3987,-1.3831,-1.3709,-1.362,-1.3593,-1.3458,-1.3315,-1.3193,-1.303,-1.2895,-1.284,-1.2745,-1.2678,-1.2651,-1.2562,-1.2461,-1.2345,-1.2332,-1.2332,-1.2332,-1.2169,-1.2135,-1.2135,-1.1755,-1.1538,-1.145,-1.1477,-1.1463,-1.1402,-1.143,-1.1463,-1.1491,-1.1491,-1.1579,-1.1735,-1.1294,-1.1219,0.0,0.0,0.0,0.0,0.0,0.0,0.0,0.0,0.0,0.0,0.0,-2.7054,-2.7802,0.0,-2.9098,-2.9993,-3.0742,-3.133,-3.1623,-3.2171,-3.2492,-3.2345,-3.2706,-3.2812,-3.2372,-3.2318,-3.2265,-3.2118,-3.1971,-3.1957,-3.2104,-3.2532,-3.2759,-3.2759,-3.1552,-3.0181,-2.8753,-2.7122,-2.4919,-2.2147,-2.1142,-1.9768,-1.8303,-1.701,-1.6334,-1.6191,-1.6117,-1.6123,-1.6198,-1.6198,-1.6015,-1.573,-1.5581,-1.5384,-1.5181,-1.5181,-1.5181,-1.5181,-1.5181,-1.514,-1.5065,-1.4984,-1.4808,-1.4611,-1.4543,-1.4421,-1.4299,-1.4299,-1.4299,-1.4299,-1.4299,-1.4299,-1.4278,-1.4204,-1.4183,-1.4143,-1.3987,-1.3838,-1.3736,-1.3736,-1.3553,-1.3403,-1.3403,-1.3281,-1.3132,-1.2983,-1.2895,-1.282,-1.2739,-1.2664,-1.2562,-1.2413,-1.2393,-1.2393,-1.2393,-1.2264,-1.2176,-1.2176,-1.1965,-1.1809,-1.1728,-1.1803,-1.1803,-1.1728,-1.1803,-1.1843,-1.1843,-1.1918,-1.2026,-1.2162,-1.2013,-1.1911,0.0,0.0,0.0,0.0,0.0,0.0,0.0,-2.7134,-2.7428,-2.7722,-2.8096,-2.8657,-2.9566,-2.9833,-3.0194,-3.1076,-3.137,-3.157,-3.181,-3.2198,-3.2492,-3.2612,-3.2839,-3.2772,-3.2238,-3.2238,-3.2251,-3.2185,-3.2185,-3.2291,-3.2629,-3.232,-3.2168,-3.2168,-2.9631,-2.7915,-2.7225,-2.4867,-2.2278,-1.9481,-1.9763,-1.8709,-1.6564,-1.6537,-1.6463,-1.6341,-1.6191,-1.6164,-1.6225,-1.6252,-1.609,-1.5798,-1.5683,-1.5472,-1.5221,-1.516,-1.514,-1.514,-1.514,-1.5065,-1.4984,-1.5072,-1.4855,-1.457,-1.4631,-1.4489,-1.4299,-1.4299,-1.4299,-1.4299,-1.4299,-1.4299,-1.4299,-1.4299,-1.4299,-1.4265,-1.4143,-1.3994,-1.3878,-1.3844,-1.3627,-1.3471,-1.3566,-1.3485,-1.3322,-1.3085,-1.3024,-1.2956,-1.2834,-1.2766,-1.2684,-1.2562,-1.2522,-1.2501,-1.2501,-1.24,-1.2332,-1.2332,-1.2216,-1.2094,-1.1965,-1.2081,-1.2101,-1.2006,-1.2128,-1.221,-1.2312,-1.2359,-1.2481,-1.2589,-1.2589,-1.2461,-2.4836,-2.513,-2.5905,-2.652,-2.7094,-2.7722,0.0,-2.8978,-2.9272,-2.9566,-3.0261,-3.0795,-3.0675,-3.1076,-3.1383,-3.1249,-3.1891,-3.2509,-3.2438,-3.316,-3.3494,-3.2986,-3.2959,-3.2853,-3.2532,-3.2732,-3.2772,-3.2519,-3.2492,-3.2519,-3.2643,-3.059,-2.9319,-2.9319,-2.6688,-2.4152,-2.1803,-2.1128,-1.9613,-1.7106,-1.7141,-1.6941,-1.672,-1.6585,-1.651,-1.649,-1.6347,-1.6137,-1.5913,-1.6049,-1.5934,-1.5662,-1.5649,-1.5533,-1.535,-1.5092,-1.4991,-1.4991,-1.4991,-1.4984,-1.495,-1.4828,-1.4753,-1.4665,-1.4421,-1.4326,-1.4299,-1.4299,-1.4299,-1.4299,-1.4299,-1.4299,-1.4299,-1.4299,-1.4299,-1.4292,-1.4278,-1.4156,-1.4007,-1.3865,-1.3709,-1.3566,-1.3444,-1.341,-1.339,-1.3356,-1.3234,-1.3146,-1.3125,-1.2895,-1.2725,-1.2705,-1.2583,-1.2501,-1.2501,-1.2488,-1.2481,-1.2481,-1.2461,-1.2447,-1.2427,-1.244,-1.2508,-1.263,-1.2644,-1.2725,-1.2861,-1.2881,-1.2895,-1.2908,-1.2908,-1.2895,-2.2293,-2.4511,-2.6862,-2.6321,-2.774,-2.9432,-3.0154,-3.0675,-3.1089,-3.1383,-3.1744,-3.2011,-3.2051,-3.2131,-3.2144,-3.2011,-3.2305,-3.2643,-3.2643,-3.316,-3.3387,-3.2799,-3.3187,-3.3253,-3.271,-3.2652,-3.2746,-3.2799,-3.2799,-3.2162,-3.0715,-2.9711,-2.8436,-2.6804,-2.4027,-2.2034,-2.0926,-1.9127,-1.7703,-1.6754,-1.6842,-1.6883,-1.6876,-1.6632,-1.6429,-1.6266,-1.63,-1.6185,-1.5995,-1.6151,-1.6035,-1.5757,-1.5669,-1.5547,-1.5384,-1.5174,-1.5038,-1.4984,-1.5065,-1.4984,-1.4841,-1.4869,-1.4753,-1.4584,-1.4462,-1.4367,-1.4299,-1.4299,-1.4299,-1.4299,-1.4299,-1.4299,-1.4299,-1.4299,-1.4299,-1.4299,-1.4299,-1.4183,-1.4055,-1.3987,-1.379,-1.3607,-1.3546,-1.3458,-1.3403,-1.3403,-1.3349,-1.3241,-1.3071,-1.2942,-1.2793,-1.2617,-1.2542,-1.2501,-1.2501,-1.2501,-1.2501,-1.2501,-1.2501,-1.2501,-1.2501,-1.2589,-1.2623,-1.2596,-1.2773,-1.2854,-1.2827,-1.2996,-1.3085,-1.3085,-1.3003,-1.3003,-2.0243,-2.3112,-2.5909,-2.5104,-2.7401,-2.9955,-3.0522,-3.1684,-3.2746,-3.2893,-3.304,-3.3146,-3.3106,-3.2919,-3.2732,-3.267,-3.2679,-3.2759,-3.2679,-3.324,-3.3414,-3.2746,-3.3307,-3.3467,-3.2732,-3.2732,-3.2866,-3.308,-3.3093,-3.1964,-2.942,-2.8596,-2.6955,-2.4187,-2.1277,-1.9775,-1.9775,-1.784,-1.6815,-1.6815,-1.6931,-1.6958,-1.691,-1.6646,-1.6361,-1.609,-1.6246,-1.6198,-1.6029,-1.6185,-1.6069,-1.5784,-1.5723,-1.5581,-1.5398,-1.5289,-1.5126,-1.4984,-1.5086,-1.4984,-1.4821,-1.4936,-1.4787,-1.4563,-1.4523,-1.4414,-1.4299,-1.4299,-1.4299,-1.4299,-1.4299,-1.4299,-1.4299,-1.4299,-1.4299,-1.4299,-1.4299,-1.4183,-1.4061,-1.4014,-1.3804,-1.3614,-1.3573,-1.3471,-1.3403,-1.3403,-1.3403,-1.3308,-1.3051,-1.2949,-1.2813,-1.2589,-1.2528,-1.2501,-1.2501,-1.2501,-1.2501,-1.2501,-1.2501,-1.2501,-1.2501,-1.2651,-1.2698,-1.263,-1.2888,-1.2983,-1.2915,-1.255,-1.2301,-1.2344,-1.2168,-1.1826,-2.0066,-2.1082,-2.2161,-2.2552,-2.5582,-2.8602,-2.903,-3.1831,-3.4175,-3.3895,-3.4295,-3.4429,-3.3561,-3.3387,-3.32,-3.2639,-3.3013,-3.328,-3.3,-3.3734,-3.3961,-3.3066,-3.324,-3.3307,-3.3,-3.3213,-3.3387,-3.34,-3.34,-3.2171,-2.942,-2.6751,-2.4084,-2.131,-1.8529,-1.7076,-1.7076,-1.7076,-1.6971,-1.6971,-1.6978,-1.6904,-1.6754,-1.6592,-1.6361,-1.609,-1.6246,-1.6137,-1.5872,-1.6029,-1.5913,-1.5655,-1.5791,-1.5669,-1.5411,-1.5404,-1.5221,-1.497,-1.4977,-1.497,-1.4964,-1.497,-1.4862,-1.4706,-1.4557,-1.4414,-1.4299,-1.4299,-1.4299,-1.4299,-1.4299,-1.4299,-1.4299,-1.4299,-1.4299,-1.4299,-1.4299,-1.4183,-1.4027,-1.3878,-1.3729,-1.358,-1.3437,-1.3403,-1.3403,-1.3403,-1.3403,-1.3342,-1.3186,-1.2915,-1.2732,-1.2725,-1.2589,-1.2501,-1.2501,-1.2501,-1.2501,-1.2501,-1.2501,-1.2501,-1.2501,-1.2651,-1.28,-1.2942,-1.3091,-1.3234,-1.3383,-1.1208,-1.0149,-1.0203,-0.9953,-0.8834,-1.6865,-1.9434,-2.2319,-2.145,-2.3845,-2.654,-2.7017,-2.9699,-3.2065,-3.1979,-3.2917,-3.3788,-3.3467,-3.3253,-3.3,-3.271,-3.3213,-3.3614,-3.3307,-3.3868,-3.3908,-3.2826,-3.3307,-3.3454,-3.2759,-3.1323,-3.0438,-3.0634,-2.9003,-2.6751,-2.3981,-2.2958,-2.1207,-1.8424,-1.7496,-1.6978,-1.6978,-1.6978,-1.6931,-1.6829,-1.6727,-1.6598,-1.6456,-1.6402,-1.6273,-1.6083,-1.6137,-1.6096,-1.6001,-1.5947,-1.5818,-1.5635,-1.5581,-1.5438,-1.5262,-1.5262,-1.5194,-1.5113,-1.5113,-1.5052,-1.497,-1.497,-1.4936,-1.4862,-1.4713,-1.4631,-1.459,-1.459,-1.4516,-1.4441,-1.4441,-1.4373,-1.4299,-1.4299,-1.4299,-1.4299,-1.4299,-1.4258,-1.415,-1.3892,-1.3804,-1.3688,-1.3444,-1.3403,-1.3403,-1.3403,-1.3315,-1.3227,-1.318,-1.3003,-1.2881,-1.2881,-1.284,-1.2807,-1.2807,-1.2807,-1.2807,-1.2807,-1.2807,-1.2807,-1.2807,-1.2949,-1.3003,-1.2963,-1.32,-1.2548,-1.1007,-1.034,-0.9276,-0.7825,-0.7683,-0.723,-1.5202,-1.7616,-2.0208,-1.9519,-2.1769,-2.4194,-2.4611,-2.718,-2.9625,-3.0504,-3.1334,-3.2145,-3.2934,-3.2692,-3.2358,-3.2385,-3.3053,-3.3561,-3.3574,-3.4002,-3.3948,-3.2973,-3.2455,-3.1893,-3.1342,-2.8035,-2.68,-2.9092,-2.6751,-2.3981,-2.1207,-2.1103,-1.9871,-1.7083,-1.6978,-1.6978,-1.6978,-1.6924,-1.6822,-1.6666,-1.6517,-1.6395,-1.6307,-1.6252,-1.6178,-1.6083,-1.6083,-1.6049,-1.5995,-1.5893,-1.5737,-1.5554,-1.5506,-1.5364,-1.5187,-1.5242,-1.5228,-1.5181,-1.5181,-1.512,-1.5045,-1.5045,-1.5011,-1.495,-1.4855,-1.4746,-1.4658,-1.4658,-1.455,-1.4434,-1.4434,-1.4367,-1.4299,-1.4299,-1.4299,-1.4299,-1.4299,-1.4258,-1.4156,-1.396,-1.3878,-1.3783,-1.3593,-1.3512,-1.3464,-1.341,-1.3315,-1.3254,-1.3254,-1.3085,-1.2983,-1.303,-1.299,-1.2963,-1.2963,-1.2963,-1.2963,-1.2963,-1.2963,-1.2963,-1.2963,-1.3098,-1.3132,-1.3037,-1.2528,-1.1428,-0.985,-0.8344,-0.6937,-0.5499,-0.5374,-0.4851,-1.5276,-1.5764,-1.6286,-1.7005,-1.9395,-2.1622,-2.1883,-2.4326,-2.7267,-2.9614,-2.9777,-3.0088,-3.2194,-3.1797,-3.141,-3.1984,-3.2612,-3.3227,-3.3598,-3.393,-3.3802,-3.3092,-3.0426,-2.8743,-2.8731,-2.3682,-2.2729,-2.846,-2.6331,-2.3662,-2.0999,-2.0903,-1.9662,-1.7083,-1.6978,-1.6978,-1.6971,-1.6809,-1.6653,-1.651,-1.6368,-1.63,-1.6293,-1.6151,-1.6083,-1.6083,-1.6076,-1.5988,-1.5852,-1.5839,-1.5662,-1.5425,-1.556,-1.5438,-1.5201,-1.5343,-1.5309,-1.5181,-1.5181,-1.5181,-1.5181,-1.5181,-1.5092,-1.4984,-1.4984,-1.478,-1.4543,-1.4543,-1.4434,-1.4326,-1.4326,-1.4312,-1.4299,-1.4299,-1.4299,-1.4299,-1.4299,-1.4183,-1.4082,-1.4075,-1.3946,-1.3838,-1.3838,-1.3722,-1.358,-1.3437,-1.3403,-1.3403,-1.3403,-1.3159,-1.3037,-1.3166,-1.3064,-1.2983,-1.2983,-1.2983,-1.2983,-1.2983,-1.2983,-1.2983,-1.2983,-1.3112,-1.3186,-1.3186,-1.124,-1.0044,-0.9795,-0.5616,-0.3423,-0.3221,-0.3056,-0.189,-1.5642,-1.6151,-1.6653,-1.6958,-1.777,-1.8458,-1.8553,-2.2317,-2.5865,-2.6546,-2.8814,-3.0925,-3.1782,-3.153,-3.1343,-3.1717,-3.2839,-3.2973,-3.0925,-3.103,-3.0385,-2.7578,-2.6738,-2.6221,-2.6053,-2.2673,-2.1242,-2.3034,-2.046,-1.8603,-1.8111,-1.8013,-1.7706,-1.6978,-1.6978,-1.6924,-1.6809,-1.6551,-1.6402,-1.6361,-1.6212,-1.6137,-1.6137,-1.6096,-1.6083,-1.6076,-1.5961,-1.5893,-1.5839,-1.5615,-1.5479,-1.5404,-1.533,-1.5248,-1.5187,-1.5228,-1.5215,-1.5181,-1.5181,-1.5181,-1.5181,-1.5181,-1.516,-1.5126,-1.5126,-1.5072,-1.5011,-1.5011,-1.4828,-1.4624,-1.4624,-1.4468,-1.4299,-1.4299,-1.4299,-1.4299,-1.4299,-1.4272,-1.4211,-1.4095,-1.3946,-1.3838,-1.3838,-1.3722,-1.3614,-1.3573,-1.3471,-1.3403,-1.3403,-1.3336,-1.3302,-1.3342,-1.3308,-1.3288,-1.3288,-1.3288,-1.3288,-1.3288,-1.3288,-1.3288,-1.3288,-1.3322,-1.3342,-1.3342,-1.2797,-1.0882,-0.7535,-0.6369,-0.4105,-0.0838,-0.0838,-0.0502,-1.6049,-1.6442,-1.6815,-1.71,-1.7182,-1.7182,-1.7134,-1.9326,-2.1701,-2.266,-2.4229,-2.6201,-2.8821,-2.8019,-2.7481,-2.9394,-2.9689,-2.9241,-2.8124,-2.8302,-2.7801,-2.5862,-2.4481,-2.3613,-2.3399,-2.0733,-1.9145,-1.9245,-1.7725,-1.689,-1.6978,-1.6978,-1.6978,-1.6978,-1.6978,-1.6876,-1.6653,-1.6422,-1.6279,-1.6205,-1.6123,-1.6083,-1.6083,-1.6083,-1.6083,-1.6076,-1.5988,-1.5913,-1.5839,-1.5608,-1.5472,-1.5398,-1.5242,-1.5181,-1.5181,-1.5181,-1.5181,-1.5181,-1.5181,-1.5181,-1.5181,-1.5181,-1.5181,-1.5181,-1.5181,-1.514,-1.5086,-1.5086,-1.4923,-1.4726,-1.4658,-1.4516,-1.438,-1.4312,-1.4299,-1.4299,-1.4299,-1.4299,-1.4278,-1.419,-1.4102,-1.4021,-1.3953,-1.3878,-1.3804,-1.3729,-1.3648,-1.3593,-1.3593,-1.3539,-1.3478,-1.341,-1.3458,-1.3471,-1.3403,-1.3403,-1.3403,-1.3403,-1.3464,-1.3471,-1.3403,-1.3464,-1.3471,-1.3403,-1.2478,-1.0715,-0.8123,-0.7205,-0.4863,-0.1429,-0.1429,-0.0925,-1.6442,-1.668,-1.6897,-1.727,-1.7263,-1.7073,-1.6741,-1.6632,-1.7224,-1.9037,-1.8962,-1.9986,-2.4867,-2.3432,-2.2619,-2.6178,-2.5439,-2.4577,-2.5216,-2.5417,-2.5468,-2.5059,-2.2653,-2.098,-2.0799,-1.855,-1.6998,-1.6985,-1.6978,-1.6978,-1.6978,-1.6978,-1.6978,-1.6978,-1.6944,-1.6788,-1.6524,-1.6361,-1.6212,-1.6083,-1.6083,-1.6083,-1.6083,-1.6083,-1.6069,-1.6049,-1.6029,-1.5934,-1.5784,-1.5635,-1.5499,-1.5364,-1.5235,-1.5181,-1.5181,-1.5181,-1.5181,-1.5181,-1.5181,-1.5181,-1.5181,-1.5181,-1.5181,-1.5181,-1.5181,-1.5099,-1.4997,-1.4997,-1.4889,-1.474,-1.4604,-1.4557,-1.4509,-1.436,-1.4346,-1.4346,-1.4306,-1.4299,-1.4299,-1.4299,-1.4299,-1.4258,-1.4122,-1.4089,-1.4027,-1.3892,-1.3851,-1.3838,-1.3838,-1.3736,-1.3607,-1.3471,-1.358,-1.36,-1.3471,-1.3458,-1.3458,-1.3458,-1.3587,-1.36,-1.3464,-1.3587,-1.3593,-1.3464,-1.1605,-1.0425,-1.009,-0.8156,-0.6059,-0.3791,-0.3791,-0.2781,-1.6653,-1.691,-1.7107,-1.7066,-1.7039,-1.6876,-1.632,-1.7614,-1.8934,-1.8997,-2.0088,-2.1535,-2.307,-2.2736,-2.2729,-2.4366,-2.4806,-2.4246,-2.2513,-2.2555,-2.1882,-1.9536,-1.8667,-1.8192,-1.8137,-1.7563,-1.7107,-1.6992,-1.6978,-1.6978,-1.6978,-1.6978,-1.6978,-1.6978,-1.6734,-1.6578,-1.6524,-1.6252,-1.611,-1.6083,-1.6083,-1.6083,-1.6083,-1.6083,-1.6015,-1.5886,-1.5764,0.0,-1.5479,-1.5323,-1.5248,-1.5221,-1.5194,-1.5181,-1.5181,-1.5181,-1.5181,-1.5181,-1.5181,-1.5181,-1.5181,-1.5181,-1.5181,-1.5181,-1.5181,-1.5167,-1.5147,-1.5147,-1.5038,-1.4923,-1.4896,-1.4794,-1.4665,-1.4509,-1.457,-1.4597,-1.4353,-1.4299,-1.4299,-1.4299,-1.4299,-1.4292,-1.4265,-1.4156,-1.4061,-1.4034,-1.3926,-1.3838,-1.3838,-1.3817,-1.379,-1.377,-1.379,-1.379,-1.377,-1.3763,-1.3763,-1.3763,-1.379,-1.379,-1.3763,-1.379,-1.379,-1.3763,-1.333,-1.221,-1.0405,-1.0058,-0.8684,-0.6455,-0.6455,-0.6166,-1.6829,-1.7026,-1.7175,-1.7107,-1.7032,-1.6761,-1.592,-1.6443,-1.6995,-1.6217,-1.6784,-1.7946,-1.9734,-1.8982,-1.8798,-2.1072,-2.0641,-1.9792,-1.9263,-1.9349,-1.9033,-1.8033,-1.7806,-1.767,-1.7446,-1.7351,-1.7216,-1.6998,-1.6978,-1.6978,-1.6978,-1.6904,-1.6822,-1.6741,-1.6524,-1.6415,-1.6415,-1.6191,-1.6083,-1.6083,-1.6083,-1.6083,-1.6083,-1.6083,-1.5995,-1.5852,-1.5778,-1.5669,-1.552,-1.5364,-1.5303,-1.5296,-1.5215,-1.5181,-1.5181,-1.5181,-1.5181,-1.5181,-1.5181,-1.5181,-1.5181,-1.5181,-1.5181,-1.5181,-1.5181,-1.5181,-1.5181,-1.5181,-1.5133,-1.5065,-1.4991,-1.4916,-1.4821,-1.4665,-1.4685,-1.4679,-1.4462,-1.4407,-1.4387,-1.4312,-1.4299,-1.4299,-1.4299,-1.4238,-1.419,-1.419,-1.4129,-1.4082,-1.4082,-1.4082,-1.4021,-1.3858,-1.3912,-1.3926,-1.3844,-1.3838,-1.3838,-1.3838,-1.3919,-1.3926,-1.3759,-1.3919,-1.3926,-1.3844,-1.3838,-1.3317,-1.219,-1.219,-1.1069,-0.8908,-0.8908,-0.8195,-1.6924,-1.7087,-1.7182,-1.7154,-1.7039,-1.6653,-1.5601,-1.5133,-1.4631,-1.3614,-1.3403,-1.4075,-1.635,-1.5354,-1.5013,-1.7712,-1.6611,-1.5757,-1.6748,-1.6937,-1.7188,-1.7758,-1.7812,-1.7717,-1.7446,-1.7392,-1.7263,-1.6998,-1.6978,-1.6965,-1.6931,-1.6815,-1.668,-1.6524,-1.6381,-1.6307,-1.6307,-1.6157,-1.6083,-1.6083,-1.6083,-1.6083,-1.6083,-1.6083,-1.5981,-1.5805,-1.5805,-1.5703,-1.5533,-1.5411,-1.5364,-1.535,-1.5228,-1.5181,-1.5181,-1.5181,-1.5181,-1.5181,-1.5181,-1.5181,-1.5181,-1.5181,-1.5181,-1.5181,-1.5181,-1.5181,-1.5181,-1.5181,-1.5181,-1.5153,-1.5045,-1.5018,-1.4984,-1.4862,-1.4787,-1.4713,-1.4631,-1.4584,-1.4529,-1.4414,-1.4394,-1.4394,-1.4394,-1.4394,-1.438,-1.4353,-1.4346,-1.4333,-1.4306,-1.4299,-1.4211,-1.3966,-1.4048,-1.4068,-1.3953,-1.3939,-1.3939,-1.3939,-1.4055,-1.4068,-1.3946,-1.4055,-1.4061,-1.3939,-1.3939,-1.3939,-1.3939,-1.3939,-1.2977,-1.1318,-1.1318,-1.035,-1.6863,-1.7087,-1.7161,-1.7032,-1.6883,-1.6497,-1.5445,-1.497,-1.4502,-1.3587,-1.3403,-1.3616,-1.4312,-1.4235,-1.4401,-1.5338,-1.5499,-1.5683,-1.6456,-1.6802,-1.7154,-1.7616,-1.767,-1.7602,-1.7439,-1.7297,-1.7148,-1.6992,-1.6978,-1.6917,-1.6781,-1.6754,-1.668,-1.6524,-1.6381,-1.6307,-1.6307,-1.6157,-1.6083,-1.6083,-1.6083,-1.6083,-1.6083,-1.6083,-1.5927,-1.5655,-1.5655,-1.5493,0.0,-1.5208,-1.5201,-1.5201,-1.5187,-1.5181,-1.5181,-1.5181,-1.5181,-1.5181,-1.5181,-1.5181,-1.5181,-1.5181,-1.5181,-1.5181,-1.5181,-1.5181,-1.5181,-1.5181,-1.5181,-1.5181,-1.5167,-1.516,-1.516,-1.5147,-1.4936,-1.4774,-1.4903,-1.4821,-1.4713,-1.4699,-1.4699,-1.4699,-1.4699,-1.4699,-1.4652,-1.4516,-1.4489,-1.4448,-1.4319,-1.4299,-1.4292,-1.4258,-1.4272,-1.4272,-1.4258,-1.4258,-1.4258,-1.4258,-1.4272,-1.4272,-1.4258,-1.4272,-1.4272,-1.4258,-1.4258,-1.4258,-1.4258,-1.4258,-1.417,-1.3987,-1.3987,-1.3738,-1.672,-1.7012,-1.7161,-1.7019,-1.6863,-1.6476,-1.5425,-1.495,-1.4482,-1.3587,-1.3403,-1.3458,-1.3634,-1.3668,-1.3851,-1.4421,-1.4489,-1.4821,-1.5845,-1.6171,-1.6537,-1.7175,-1.7405,-1.7453,-1.7297,-1.7229,-1.7168,-1.7114,-1.7195,-1.7141,-1.6904,-1.6802,-1.668,-1.6524,-1.6381,-1.6307,-1.6307,-1.6157,-1.6083,-1.6083,-1.6083,-1.6083,-1.6076,-1.5988,-1.5832,-1.5635,-1.554,-1.5377,0.0,-1.5181,-1.5181,-1.5181,-1.5181,-1.5181,-1.5181,-1.5181,-1.5181,-1.5181,-1.5181,-1.5181,-1.5181,-1.5181,-1.5181,-1.5181,-1.5181,-1.5181,-1.5181,-1.5181,-1.5181,-1.5181,-1.5181,-1.5181,-1.5181,-1.5181,-1.5092,-1.4997,-1.4977,-1.4923,-1.4848,-1.476,-1.474,-1.474,-1.474,-1.474,-1.4719,-1.4658,-1.4652,-1.4631,-1.457,-1.4563,-1.4529,-1.4434,-1.4353,-1.4299,-1.4299,-1.4299,-1.4299,-1.4299,-1.4299,-1.4299,-1.4299,-1.4299,-1.3584,-1.2148,-1.2148,-1.1433,-1.0002,-1.0002,-1.0002,-1.0002,-1.0002,-0.9978,-1.6524,-1.687,-1.7046,-1.6992,-1.6768,-1.6313,-1.5391,-1.4882,-1.438,-1.3566,-1.3403,-1.3403,-1.3403,-1.3403,-1.3519,-1.3885,-1.396,-1.4319,-1.5303,-1.5642,-1.6022,-1.6639,-1.6897,-1.7019,-1.6998,-1.7114,-1.7209,-1.7256,-1.7358,-1.7311,-1.706,-1.6904,-1.6707,-1.6469,-1.6361,-1.6286,-1.6246,-1.6137,-1.6083,-1.6083,-1.6035,-1.6035,-1.6076,-1.5879,-1.5737,-1.5628,-1.5479,-1.5323,0.0,-1.5181,-1.5181,-1.5181,-1.5181,-1.5181,-1.5181,-1.5181,-1.5181,-1.5181,-1.5181,-1.5181,-1.5181,-1.5181,-1.5181,-1.5181,-1.5181,-1.5181,-1.5181,-1.5181,-1.5181,-1.5181,-1.5181,-1.5181,-1.5181,-1.5181,-1.5181,-1.5153,-1.5059,-1.5031,-1.4997,-1.4889,-1.4869,-1.4869,-1.4869,-1.4869,-1.4855,-1.4814,-1.4808,-1.4794,-1.4746,-1.474,-1.4699,-1.459,-1.4489,-1.4414,-1.4367,-1.436,-1.438,-1.4428,-1.4346,-1.3958,-1.328,-1.3242,-1.2059,-0.9646,-0.9646,-0.8842,-0.7057,-0.7057,-0.7057,-0.7057,-0.7057,-0.7057,-1.6279,-1.6639,-1.6788,-1.6944,-1.653,-1.5927,-1.5323,-1.4726,-1.4129,-1.3526,-1.3403,-1.3403,-1.3403,-1.3403,-1.3451,-1.3607,-1.4007,-1.4455,-1.4916,-1.5364,-1.575,-1.6056,-1.6096,-1.6212,-1.6503,-1.6931,-1.7256,-1.7405,-1.7419,-1.7351,-1.7195,-1.7053,-1.6775,-1.6327,-1.6307,-1.6239,-1.6083,-1.6083,-1.6083,-1.6083,-1.5927,-1.5934,-1.6069,-1.5778,-1.5642,-1.5628,-1.5479,-1.5323,0.0,-1.5181,-1.5181,-1.5181,-1.5181,-1.5181,-1.5181,-1.5181,-1.5181,-1.5181,-1.5181,-1.5181,-1.5181,-1.5181,-1.5181,-1.5181,-1.5181,-1.5181,-1.5181,-1.5181,-1.5181,-1.5181,-1.5181,-1.5181,-1.5181,-1.5181,-1.5181,-1.5181,-1.5181,-1.5181,-1.5181,-1.5181,-1.5174,-1.5174,-1.5174,-1.5174,-1.5126,-1.4991,-1.497,-1.4909,-1.476,-1.474,-1.474,-1.474,-1.4733,-1.4672,-1.4523,-1.4509,-1.4577,-1.4726,-1.4462,-1.328,-1.105,-1.0773,-0.9646,-0.7146,-0.7146,-0.7146,-0.7057,-0.7057,-0.7057,-0.7057,-0.7057,-0.7057,-1.978,-2.0289,-2.0721,-2.0562,-2.0447,-2.0153,-1.9454,-1.7937,-1.6435,-1.5739,-1.4458,-1.3403,-1.3403,-1.3403,-1.3519,-1.3871,-1.4055,-1.4299,-1.4746,-1.5201,-1.5554,-1.5757,-1.6225,-1.6653,-1.6951,-1.7202,-1.7365,-1.7419,-1.7609,-1.7528,-1.7073,-1.71,-1.6965,-1.6619,-1.6415,-1.6286,-1.6239,-1.6137,-1.6029,-1.5927,-1.5981,-1.5927,-1.5778,-1.5683,-1.5581,-1.5472,-1.5323,-1.5228,-1.5181,-1.5181,-1.5181,-1.5194,-1.5296,-1.5276,-1.5194,-1.5303,-1.5269,-1.5181,-1.5181,-1.5181,-1.5181,-1.5181,-1.5181,-1.5181,-1.5181,-1.5181,-1.5181,-1.5181,-1.5181,-1.5181,-1.5181,-1.5181,-1.5181,-1.5181,-1.5181,-1.5181,-1.5181,-1.5181,-1.5181,-1.5181,-1.5181,-1.5181,-1.5181,-1.5181,-1.5167,-1.512,-1.5113,-1.5099,-1.5045,-1.5045,-1.5004,-1.4909,-1.4984,-1.4943,-1.4692,-1.4665,-1.4685,-1.4733,-1.2993,-1.1688,-1.0897,-0.9165,-0.7134,-0.4792,-0.4668,-0.3938,-0.224,-0.2256,-0.2272,-0.2288,-0.2288,-0.2288,-2.173,-2.1873,-2.2295,-2.2143,-2.204,-2.1878,-2.1333,-1.9287,-1.7298,-1.6757,-1.4863,-1.3403,-1.3403,-1.3403,-1.3492,-1.3777,-1.4007,-1.4211,-1.438,-1.4889,-1.5323,-1.5527,-1.611,-1.6639,-1.6992,-1.7216,-1.7358,-1.7419,-1.7541,-1.7426,-1.7005,-1.6951,-1.6829,-1.6592,-1.6402,-1.6279,-1.6225,-1.613,-1.6035,-1.594,-1.5981,-1.59,-1.5716,-1.5601,-1.5499,-1.5404,-1.5248,-1.5215,0.0,-1.5269,-1.5303,-1.5364,-1.5459,-1.5404,-1.5282,-1.5377,-1.535,-1.5269,-1.5269,-1.5309,-1.5357,-1.5357,-1.5316,-1.5269,-1.5269,-1.5228,-1.5181,-1.5181,-1.5221,-1.5255,-1.5201,-1.5221,-1.5255,-1.5194,-1.5181,-1.5181,-1.5181,-1.5181,-1.5181,-1.5181,-1.5181,-1.5181,-1.5181,-1.5181,-1.5181,-1.5181,-1.5181,-1.5181,-1.5181,-1.5181,-1.5147,-1.5059,-1.5126,-1.5106,-1.4923,-1.4855,-1.4848,-1.4903,-1.2386,-1.0509,-0.9719,-0.7157,-0.4661,-0.2289,-0.2274,-0.1542,0.0,0.0,0.0,0.0,0.0,0.0,0.0,-2.1891,-2.2353,-2.237,-2.2152,-2.1825,-2.1417,-1.9211,0.0,-1.6689,-1.4863,-1.3403,-1.3403,-1.3403,-1.341,-1.3431,-1.3919,-1.4197,-1.3899,-1.4502,-1.5099,-1.5432,-1.5845,-1.6279,-1.6741,-1.7012,-1.7222,-1.7378,-1.7256,-1.7107,-1.6944,-1.6673,-1.6449,-1.63,-1.6293,-1.6225,-1.6083,-1.6083,-1.6076,-1.6062,-1.5934,-1.5859,-1.5825,-1.556,-1.5438,0.0,-1.5276,-1.5296,-1.5425,-1.5425,-1.5513,-1.5642,-1.5649,-1.556,-1.5432,-1.5438,-1.5438,-1.5425,-1.5425,-1.552,-1.5642,-1.5642,-1.554,-1.5425,-1.5425,-1.5316,-1.5201,-1.5215,-1.5316,-1.5398,-1.5255,-1.5309,-1.5377,-1.5228,-1.5194,-1.5181,-1.5181,-1.5181,-1.5181,-1.5181,-1.5181,-1.5187,-1.5194,-1.5187,-1.5187,-1.5194,-1.5187,-1.5187,-1.5194,-1.5187,-1.5187,-1.5201,-1.5187,-1.5181,-1.5181,-1.5065,-1.4945,-1.4892,-1.2211,-0.9636,-0.7393,-0.4735,-0.2313,0.0,0.0,0.0,0.0,0.0,0.0,0.0,0.0,0.0,-2.5425,0.0,-2.5961,-2.5728,-2.5787,-2.5391,0.0,-2.121,-1.8935,-1.7009,-1.4863,-1.3403,-1.3403,-1.3403,-1.3478,-1.3702,-1.4055,-1.4231,-1.4048,-1.457,-1.5248,-1.6008,-1.6191,-1.6476,-1.7032,-1.6944,-1.6917,-1.7073,-1.7053,-1.6863,-1.649,-1.6503,-1.6402,-1.6144,-1.6137,-1.6117,-1.6083,-1.6083,-1.6022,-1.5906,-1.5988,-1.5906,-1.5689,-1.573,-1.5689,-1.5581,-1.5547,-1.5554,-1.5588,-1.5588,-1.5608,-1.5649,-1.5757,-1.5716,-1.5601,-1.571,-1.5683,-1.5588,-1.5588,-1.5608,-1.5642,-1.5642,-1.5615,-1.5588,-1.5588,-1.5479,-1.5377,-1.5499,-1.556,-1.5581,-1.554,-1.5472,-1.5404,-1.5364,-1.5269,-1.5181,-1.5181,-1.5181,-1.5181,-1.5181,-1.5181,-1.5221,-1.5337,-1.5262,-1.5221,-1.5337,-1.5255,-1.5221,-1.5343,-1.5255,-1.5228,-1.5343,-1.5255,-1.5181,-1.5181,-1.5153,-1.4296,-1.2428,-0.9826,-0.7265,-0.4828,-0.2256,-0.0562,0.0,0.0,0.0,0.0,0.0,0.0,0.0,0.0,0.0,-2.6386,-2.6076,-2.5634,-2.5483,-2.4808,-2.3868,-2.2564,-2.0385,-1.8247,-1.691,-1.4863,-1.3403,-1.3403,-1.3403,-1.3451,-1.3614,-1.3892,-1.4183,-1.4448,-1.4767,-1.5276,-1.611,-1.6266,-1.6463,-1.6849,-1.6741,-1.668,-1.6761,-1.6714,-1.6564,-1.632,-1.6313,-1.6246,-1.609,-1.6083,-1.6083,-1.6083,-1.6083,-1.6042,-1.5961,-1.6042,-1.5961,-1.5744,-1.5818,-1.5778,-1.5642,-1.5642,-1.5676,-1.5737,-1.5737,-1.5778,-1.5852,-1.5927,-1.5866,-1.5744,-1.5825,-1.5805,-1.5737,-1.5737,-1.5784,-1.5832,-1.5757,-1.5737,-1.5737,-1.5737,-1.5683,-1.5615,-1.5635,-1.5689,-1.5723,-1.5655,-1.5628,-1.5594,-1.5533,-1.5452,-1.5371,-1.5303,-1.5289,-1.5289,-1.5289,-1.5289,-1.5337,-1.5493,-1.5445,-1.5418,-1.5506,-1.5445,-1.5418,-1.5506,-1.5445,-1.5425,-1.5506,-1.5438,-1.5391,-1.5391,-1.533,-1.4203,-1.1579,-0.9015,-0.6458,-0.3898,-0.1327,0.0,0.0,0.0,0.0,0.0,0.0,0.0,0.0,0.0,0.0,-2.5461,-2.4133,-2.2898,-2.3574,-2.2074,-2.041,-2.0046,-1.8275,-1.6483,-1.6164,-1.4698,-1.3403,-1.3403,-1.3417,-1.3444,-1.3464,-1.3715,-1.4183,-1.4964,-1.5031,-1.5282,-1.6029,-1.6212,-1.6341,-1.6503,-1.6483,-1.6463,-1.649,-1.6354,-1.6273,-1.6273,-1.6151,-1.6083,-1.6083,-1.6083,-1.6083,-1.6083,-1.6083,-1.6083,-1.6083,-1.6083,-1.6015,-1.5886,-1.5886,-1.5825,-1.571,-1.571,0.0,-1.5886,-1.5886,-1.5961,-1.6083,-1.6083,-1.6001,-1.5886,-1.5886,-1.5886,-1.5886,-1.5886,-1.5974,-1.6062,-1.5934,-1.5886,-1.5886,-1.5886,-1.5886,-1.5866,-1.5737,-1.5791,-1.5859,-1.5737,-1.5778,-1.5825,-1.5703,-1.5655,-1.5601,-1.5472,-1.5445,-1.5445,-1.5445,-1.5445,-1.5493,-1.5642,-1.5655,-1.5649,-1.5669,-1.5655,-1.5649,-1.5669,-1.5655,-1.5649,-1.5669,-1.5649,-1.5442,-1.5048,-1.4937,-1.3465,-1.0398,-0.8569,-0.6286,-0.3343,-0.1146,0.0,0.0,0.0,0.0,0.0,0.0,0.0,0.0,0.0,0.0,-2.1019,-1.9624,-1.8978,-2.2391,-2.1693,-1.9643,-1.7672,-1.6936,-1.6082,-1.43,-1.3645,-1.3403,-1.3403,-1.3505,-1.3634,-1.3756,-1.4027,-1.4536,-1.5411,-1.5316,-1.5432,-1.6185,-1.6185,-1.6225,-1.6497,-1.6293,-1.6205,-1.6334,-1.6205,-1.6117,-1.6117,-1.6096,-1.6083,-1.6083,-1.6083,-1.6083,-1.6083,-1.6083,-1.6083,-1.6083,-1.6083,-1.6069,-1.6049,-1.6049,-1.6035,-1.6015,0.0,-1.6029,-1.6049,-1.6049,-1.6062,-1.6083,-1.6083,-1.6069,-1.6049,-1.6049,-1.6049,-1.6049,-1.6049,-1.6062,-1.6076,-1.6056,-1.6049,-1.6049,-1.6049,-1.6049,-1.6042,-1.6022,-1.6029,-1.6042,-1.6022,-1.5934,-1.5845,-1.5825,-1.573,-1.5635,-1.5608,-1.5601,-1.5601,-1.5601,-1.5601,-1.5649,-1.5798,-1.5716,-1.5683,-1.5805,-1.5716,-1.5683,-1.5805,-1.5716,-1.5683,-1.5805,-1.571,-1.4654,-1.2401,-1.2186,-1.0126,-0.5259,-0.6665,-0.5503,-0.0781,-0.0193,0.0,0.0,0.0,0.0,0.0,0.0,0.0,0.0,0.0,0.0,-1.9947,-1.8486,-1.749,-1.9506,-1.8418,-1.6511,-1.5333,-1.5059,-1.4644,-1.3583,-1.3403,-1.3403,-1.3403,-1.3587,-1.3844,-1.4156,-1.4462,-1.4862,-1.5438,-1.5466,-1.5615,-1.613,-1.6123,-1.6137,-1.6273,-1.6157,-1.611,-1.6185,-1.6123,-1.6083,-1.6083,-1.6083,-1.6083,-1.6083,-1.6083,-1.6083,-1.6083,-1.6083,-1.6083,-1.6083,-1.6083,-1.6083,-1.6083,-1.6083,-1.6083,-1.6083,0.0,-1.6083,-1.6083,-1.6083,-1.6083,-1.6083,-1.6083,-1.6083,-1.6083,-1.6083,-1.6083,-1.6083,-1.6083,-1.6083,-1.6083,-1.6083,-1.6083,-1.6083,-1.6083,-1.6083,-1.6083,-1.6083,-1.6083,-1.6083,-1.6083,-1.6029,-1.5974,-1.5974,-1.5927,-1.5852,-1.5771,-1.5757,-1.5757,-1.5757,-1.5757,-1.5805,-1.5954,-1.592,-1.59,-1.5967,-1.592,-1.59,-1.5967,-1.592,-1.5906,-1.5967,-1.4619,-1.3187,-1.1994,-1.046,-0.7858,-0.4015,-0.3608,-0.2438,-0.0098,0.0,0.0,0.0,0.0,0.0,0.0,0.0,0.0,0.0,0.0,0.0,-1.8428,-1.7321,-1.6197,-1.6457,-1.532,-1.4034,-1.4089,-1.3939,-1.3783,-1.377,-1.3654,-1.3559,-1.3559,-1.3797,-1.4122,-1.4502,-1.4882,-1.5215,-1.5479,-1.5615,-1.5784,-1.6049,-1.6083,-1.6083,-1.6083,-1.6083,-1.6083,-1.6083,-1.6083,-1.6083,-1.6083,-1.6083,-1.6083,-1.6083,-1.6083,-1.6083,-1.6083,-1.6083,-1.6083,-1.6083,-1.6083,-1.6083,-1.6083,-1.6083,-1.6083,-1.6083,-1.6083,-1.6083,-1.6083,-1.6083,-1.6083,-1.6083,-1.6083,-1.6083,-1.6083,-1.6083,-1.6083,-1.6083,-1.6083,-1.6083,-1.6083,-1.6083,-1.6083,-1.6083,-1.6083,-1.6083,-1.6083,-1.6083,-1.6083,-1.6083,-1.6083,-1.6083,-1.6083,-1.6083,-1.6083,-1.6049,-1.5934,-1.5906,-1.5906,-1.5906,-1.5906,-1.5947,-1.6062,-1.6083,-1.6083,-1.6083,-1.6083,-1.6083,-1.6083,-1.6083,-1.5877,-1.5273,-1.3356,-1.1544,-1.034,-0.7585,-0.5061,-0.3059,-0.1082,0.0,0.0,0.0,0.0,0.0,0.0,0.0,0.0,0.0,0.0,0.0,0.0,0.0,-1.3986,-1.395,-1.3949,-1.4253,-1.4046,-1.4041,-1.4733,-1.4557,-1.4367,-1.4774,-1.4414,-1.4021,-1.4021,-1.4265,-1.4523,-1.4699,-1.5208,-1.5642,-1.5798,-1.5832,-1.59,-1.6062,-1.6083,-1.6083,-1.6083,-1.6083,-1.6083,-1.6083,-1.6083,-1.6083,-1.6083,-1.6083,-1.6083,-1.6083,-1.6083,-1.6083,-1.6083,-1.6083,-1.6083,-1.6083,-1.6083,-1.6083,-1.6083,-1.6083,-1.6083,-1.6083,-1.6083,-1.6083,-1.6083,-1.6083,-1.6083,-1.6083,-1.6083,-1.6083,-1.6083,-1.6083,-1.6083,-1.6083,-1.6083,-1.6083,-1.6083,-1.6083,-1.6083,-1.6083,-1.6083,-1.6083,-1.6083,-1.6083,-1.6083,-1.6083,-1.6083,-1.6083,-1.6083,-1.6083,-1.6083,-1.6076,-1.6069,-1.6069,-1.6069,-1.6069,-1.6069,-1.6069,-1.6083,-1.6083,-1.6083,-1.6083,-1.6083,-1.6083,-1.6083,-1.6083,-1.5167,-1.2652,-1.2248,-1.004,-0.503,-0.2116,-0.0504,-0.0302,-0.0099,0.0,0.0,0.0,0.0,0.0,0.0,0.0,0.0,0.0,0.0,0.0,0.0,0.0,-1.3471,-1.3485,-1.3627,-1.4204,-1.4163,-1.4109,-1.4577,-1.4631,-1.4624,-1.4794,-1.4645,-1.4462,-1.436,-1.4516,-1.4733,-1.4977,-1.552,-1.5934,-1.5988,-1.5995,-1.6015,-1.6076,-1.6083,-1.6083,-1.6083,-1.6083,-1.6083,-1.6083,-1.6083,-1.6083,-1.6083,-1.6083,-1.6083,-1.6083,-1.6083,-1.6083,-1.6083,-1.6083,-1.6083,-1.6083,-1.6083,-1.6083,-1.6083,-1.6083,-1.6083,-1.6083,-1.6083,-1.6083,-1.6083,-1.6083,-1.6083,-1.6083,-1.6083,-1.6083,-1.6083,-1.6083,-1.6083,-1.6083,-1.6083,-1.6083,-1.6083,-1.6083,-1.6083,-1.6083,-1.6083,-1.6083,-1.6083,-1.6083,-1.6083,-1.6083,-1.6083,-1.6083,-1.6083,-1.6083,-1.6083,-1.6083,-1.6083,-1.6083,-1.6083,-1.6083,-1.6083,-1.6083,-1.6083,-1.6083,-1.6083,-1.6083,-1.6083,-1.6083,-1.6083,-1.4663,-1.3256,-1.2248,-0.904,-0.553,-0.1815,-0.0606,0.0,0.0,0.0,0.0,0.0,0.0,0.0,0.0,0.0,0.0,0.0,0.0,0.0,0.0,0.0,0.0,-1.3403,-1.3403,-1.3532,-1.4095,-1.419,-1.4231,-1.4577,-1.4808,-1.5004,-1.5194,-1.5045,-1.4801,-1.4557,-1.4679,-1.4896,-1.514,-1.5649,-1.6029,-1.6076,-1.6083,-1.6083,-1.6083,-1.6083,-1.6083,-1.6083,-1.6083,-1.6083,-1.6083,-1.6083,-1.6083,-1.6083,-1.6083,-1.6083,-1.6083,-1.6083,-1.6083,-1.6083,-1.6083,-1.6083,-1.6083,-1.6083,-1.6083,-1.6083,-1.6083,-1.6083,-1.6083,-1.6083,-1.6083,-1.6083,-1.6083,-1.6083,-1.6083,-1.6083,-1.6083,-1.6083,-1.6083,-1.6083,-1.6083,-1.6083,-1.6083,-1.6083,-1.6083,-1.6083,-1.6083,-1.6083,-1.6083,-1.6083,-1.6083,-1.6083,-1.6083,-1.6083,-1.6083,-1.6083,-1.6083,-1.6083,-1.6083,-1.6083,-1.6083,-1.6083,-1.6083,-1.6083,-1.6083,-1.6083,-1.6083,-1.6083,-1.6083,-1.5373,-1.4869,-1.4869,-1.2453,-1.0445,-0.964,-0.5429,-0.2016,-0.0202,0.0,0.0,0.0,0.0,0.0,0.0,0.0,0.0,0.0,0.0,0.0,0.0,0.0,0.0,0.0,0.0,0.0,-1.3403,-1.3403,-1.3437,-1.3593,-1.3973,-1.4421,-1.4875,-1.5201,-1.5581,-1.6185,-1.571,-1.5045,-1.4604,-1.4767,-1.5018,-1.516,-1.556,-1.5906,-1.6062,-1.6083,-1.6083,-1.6083,-1.6083,-1.6083,-1.6083,-1.6083,-1.6083,-1.6083,-1.6083,-1.6083,-1.6083,-1.6083,-1.6083,-1.6083,-1.6083,-1.6083,-1.6083,-1.6083,-1.6083,-1.6083,-1.6083,-1.6083,-1.6083,-1.6083,-1.6083,-1.6083,-1.6083,-1.6083,-1.6083,-1.6083,-1.6083,-1.6083,-1.6083,-1.6083,-1.6083,-1.6083,-1.6083,-1.6083,-1.6083,-1.6083,-1.6083,-1.6083,-1.6083,-1.6083,-1.6083,-1.6083,-1.6083,-1.6083,-1.6083,-1.6083,-1.6083,-1.6083,-1.6083,-1.6083,-1.6083,-1.6083,-1.6083,-1.6083,-1.6083,-1.6083,-1.6083,-1.6083,-1.6083,-1.6083,-1.6083,-1.6083,-1.376,-1.2048,-1.2048,-0.964,-0.6935,-0.4226,-0.1614,0.0,0.0,0.0,0.0,0.0,0.0,0.0,0.0,0.0,0.0,0.0,0.0,0.0,0.0,0.0,0.0,0.0,0.0,0.0,-1.337,-1.3403,-1.3512,-1.3987,-1.436,-1.4753,-1.5316,-1.5506,-1.5683,-1.6069,-1.5716,-1.5303,-1.5167,-1.5221,-1.5296,-1.5337,-1.5716,-1.6029,-1.6076,-1.6083,-1.6083,-1.6083,-1.6083,-1.6083,-1.6083,-1.6083,-1.6083,-1.6083,-1.6083,-1.6083,-1.6083,-1.6083,-1.6083,-1.6083,-1.6083,-1.6083,-1.6083,-1.6083,-1.6083,-1.6083,-1.6083,-1.6083,-1.6083,-1.6083,-1.6083,-1.6083,-1.6083,-1.6083,-1.6083,-1.6083,-1.6083,-1.6083,-1.6083,-1.6083,-1.6083,-1.6083,-1.6083,-1.6083,-1.6083,-1.6083,-1.6083,-1.6083,-1.6083,-1.6083,-1.6083,-1.6083,-1.6083,-1.6083,-1.6157,-1.6239,-1.6239,-1.6239,-1.6218,-1.611,-1.6083,-1.6083,-1.6083,-1.6083,-1.6083,-1.6083,-1.6083,-1.6083,-1.6083,-1.4543,-1.3257,-1.3267,-1.1005,-0.8503,-0.664,-0.5731,-0.4127,-0.1513,-0.0505,0.0,0.0,0.0,0.0,0.0,0.0,0.0,0.0,0.0,0.0,0.0,0.0,0.0,0.0,0.0,0.0,0.0,0.0,0.0,-1.3464,-1.358,-1.377,-1.4197,-1.457,-1.5004,-1.5662,-1.5811,-1.5866,-1.6042,-1.5771,-1.5499,-1.5499,-1.5452,-1.5432,-1.5493,-1.5778,-1.6008,-1.6076,-1.6083,-1.6083,-1.6083,-1.6083,-1.6083,-1.6083,-1.6083,-1.6083,-1.6083,-1.6083,-1.6083,-1.6083,-1.6083,-1.6083,-1.6083,-1.6083,-1.6083,-1.6083,-1.6083,-1.6083,-1.6083,-1.6083,-1.6083,-1.6083,-1.6083,-1.6083,-1.6083,-1.6083,-1.6083,-1.6083,-1.6083,-1.6083,-1.6083,-1.6083,-1.6083,-1.6083,-1.6083,-1.6083,-1.6083,-1.6083,-1.6083,-1.6083,-1.6083,-1.6083,-1.6083,-1.6083,-1.6083,-1.6083,-1.6083,-1.6151,-1.6218,-1.6218,-1.6266,-1.6286,-1.6191,-1.6171,-1.6157,-1.6096,-1.613,-1.6151,-1.6096,-1.6083,-1.6083,-1.6083,-1.3925,-1.2125,-1.2058,-0.8881,-0.5466,-0.2722,-0.2426,-0.1825,-0.0203,0.0,0.0,0.0,0.0,0.0,0.0,0.0,0.0,0.0,0.0,0.0,0.0,0.0,0.0,0.0,0.0,0.0,0.0,0.0,0.0,-1.362,-1.3844,-1.4116,-1.4312,-1.4719,-1.5255,-1.5947,-1.611,-1.611,-1.609,-1.5866,-1.5676,-1.5662,-1.5547,-1.5499,-1.5655,-1.5791,-1.5927,-1.6062,-1.6083,-1.6083,-1.6083,-1.6083,-1.6083,-1.6083,-1.6083,-1.6083,-1.6083,-1.6083,-1.6083,-1.6083,-1.6083,-1.6083,-1.6083,-1.6083,-1.6083,-1.6083,-1.6083,-1.6083,-1.6083,-1.6083,-1.6083,-1.6083,-1.6083,-1.6083,-1.6083,-1.6083,-1.6083,-1.6083,-1.6083,-1.6083,-1.6083,-1.6083,-1.6083,-1.6083,-1.6083,-1.6083,-1.6083,-1.6083,-1.6083,-1.6083,-1.6083,-1.6083,-1.6083,-1.6083,-1.6083,-1.6083,-1.6083,-1.609,-1.6103,-1.6117,-1.6225,-1.6334,-1.6347,-1.6341,-1.6286,-1.6137,-1.6225,-1.6286,-1.6151,-1.6123,-1.6024,-1.5817,-1.3501,-1.1583,-1.1073,-0.6846,-0.2724,-0.0303,0.0,0.0,0.0,0.0,0.0,0.0,0.0,0.0,0.0,0.0,0.0,0.0,0.0,0.0,0.0,0.0,0.0,0.0,0.0,0.0,0.0,0.0,0.0,-1.3566,-1.3844,-1.419,-1.4699,-1.5337,-1.5913,-1.6198,-1.6347,-1.6361,-1.613,-1.6029,-1.5947,-1.5832,-1.5778,-1.5811,-1.5961,-1.6015,-1.6042,-1.6076,-1.6083,-1.6083,-1.6083,-1.6083,-1.6083,-1.6083,-1.6083,-1.6083,-1.6083,-1.6083,-1.6083,-1.6083,-1.6083,-1.6083,-1.6083,-1.6083,-1.6083,-1.6083,-1.6083,-1.6083,-1.6083,-1.6083,-1.6083,-1.6083,-1.6083,-1.6083,-1.6083,-1.6083,-1.6083,-1.6083,-1.6083,-1.6083,-1.6083,-1.6083,-1.6083,-1.6083,-1.6083,-1.6083,-1.6083,-1.6083,-1.6083,-1.6083,-1.6083,-1.6083,-1.6083,-1.6083,-1.6083,-1.6083,-1.6083,-1.6171,-1.6286,-1.6395,-1.6449,-1.6503,-1.6625,-1.6564,-1.6435,-1.6293,-1.6374,-1.6469,-1.6435,-1.6429,-1.5704,-1.3548,-1.0839,-0.766,-0.3298,-0.1639,-0.0612,-0.0102,0.0,0.0,0.0,0.0,0.0,0.0,0.0,0.0,0.0,0.0,0.0,0.0,0.0,0.0,0.0,0.0,0.0,0.0,0.0,0.0,0.0,0.0,0.0,-1.3648,-1.4,-1.4448,-1.512,-1.5689,-1.6123,-1.6273,-1.6422,-1.6435,-1.6144,-1.6083,-1.6035,-1.5879,-1.5852,-1.5879,-1.5961,-1.6035,-1.6083,-1.6083,-1.6083,-1.6083,-1.6083,-1.6083,-1.6083,-1.6083,-1.6083,-1.6083,-1.6083,-1.6083,-1.6083,-1.6083,-1.6083,-1.6083,-1.6083,-1.6083,-1.6083,-1.6083,-1.6083,-1.6083,-1.6083,-1.6083,-1.6083,-1.6083,-1.6083,-1.6083,-1.6083,-1.6083,-1.6083,-1.6083,-1.6083,-1.6083,-1.6083,-1.6083,-1.6083,-1.6083,-1.6083,-1.6083,-1.6083,-1.6083,-1.6083,-1.6083,-1.6083,-1.6083,-1.6083,-1.6083,-1.6083,-1.6096,-1.6171,-1.6246,-1.6341,-1.6483,-1.6578,-1.6632,-1.6639,-1.6632,-1.6592,-1.6442,-1.6524,-1.6612,-1.6537,-1.6524,-1.559,-1.28,-0.8914,-0.4785,-0.0623,0.0,0.0,0.0,0.0,0.0,0.0,0.0,0.0,0.0,0.0,0.0,0.0,0.0,0.0,0.0,0.0,0.0,0.0,0.0,0.0,0.0,0.0,0.0,0.0,0.0,0.0,-1.3682,-1.417,-1.4753,-1.5432,-1.5825,-1.6083,-1.6239,-1.6381,-1.6415,-1.6171,-1.6096,-1.6035,-1.5879,-1.5852,-1.5859,-1.5886,-1.6001,-1.6076,-1.6049,-1.6069,-1.6069,-1.6042,-1.6069,-1.6083,-1.6083,-1.6083,-1.6083,-1.6083,-1.6083,-1.6083,-1.6083,-1.6083,-1.6083,-1.6083,-1.6083,-1.6083,-1.6083,-1.6083,-1.6083,-1.6083,-1.6083,-1.6083,-1.6083,-1.6083,-1.6083,-1.6083,-1.6083,-1.6083,-1.6083,-1.6083,-1.6083,-1.6083,-1.6083,-1.6083,-1.6083,-1.6083,-1.6083,-1.6083,-1.6083,-1.6083,-1.6083,-1.6083,-1.6083,-1.6083,-1.6083,-1.6103,-1.6144,-1.6273,-1.6327,-1.6381,-1.6524,-1.6653,-1.6727,-1.6625,-1.67,-1.6748,-1.6592,-1.668,-1.6754,-1.6625,-1.5763,-1.4208,-1.1409,-0.6638,-0.2596,-0.0312,0.0,0.0,0.0,0.0,0.0,0.0,0.0,0.0,0.0,0.0,0.0,0.0,0.0,0.0,0.0,0.0,0.0,0.0,0.0,0.0,0.0,0.0,0.0,0.0,0.0,0.0,-1.3376,-1.417,-1.4997,-1.535,-1.5662,-1.5927,-1.6076,-1.6232,-1.6327,-1.6286,-1.6178,-1.6035,-1.5879,-1.5852,-1.59,-1.6029,-1.6069,-1.6035,-1.59,-1.5995,-1.6035,-1.59,-1.6001,-1.6083,-1.6083,-1.6083,-1.6083,-1.6083,-1.6083,-1.6083,-1.6083,-1.6083,-1.6083,-1.6083,-1.6083,-1.6083,-1.6083,-1.6083,-1.6083,-1.6083,-1.6083,-1.6083,-1.6083,-1.6083,-1.6083,-1.6083,-1.6083,-1.6083,-1.6083,-1.6083,-1.6083,-1.6083,-1.6083,-1.6083,-1.6083,-1.6083,-1.6083,-1.6083,-1.6083,-1.6083,-1.6083,-1.6083,-1.6083,-1.6083,-1.6083,-1.6178,-1.6286,-1.6307,-1.6395,-1.653,-1.668,-1.6734,-1.6781,-1.689,-1.6937,-1.691,-1.6754,-1.6842,-1.6944,-1.6924,-1.2996,-0.8668,-0.582,-0.2634,-0.042,-0.0105,0.0,0.0,0.0,0.0,0.0,0.0,0.0,0.0,0.0,0.0,0.0,0.0,0.0,0.0,0.0,0.0,0.0,0.0,0.0,0.0,0.0,0.0,0.0,0.0,0.0,0.0,-1.3451,-1.4231,-1.493,-1.5316,-1.5506,-1.5649,-1.5798,-1.5886,-1.5934,-1.5934,-1.5879,-1.5866,-1.5961,-1.5981,-1.6001,-1.6069,-1.6083,-1.6056,-1.5988,-1.6042,-1.6056,-1.5988,-1.6042,-1.6083,-1.6083,-1.6083,-1.6083,-1.6083,-1.6083,-1.6083,-1.6083,-1.6083,-1.6083,-1.6083,-1.6083,-1.6083,-1.6083,-1.6083,-1.6083,-1.6083,-1.6083,-1.6083,-1.6083,-1.6083,-1.6083,-1.6083,-1.6083,-1.6083,-1.6083,-1.6083,-1.6083,-1.6083,-1.6083,-1.6083,-1.6083,-1.6083,-1.6083,-1.6083,-1.6083,-1.6083,-1.6083,-1.6083,-1.6083,-1.6083,-1.6083,-1.613,-1.6218,-1.6381,-1.6476,-1.6578,-1.6815,-1.6876,-1.6897,-1.6965,-1.6978,-1.6538,-1.4871,-1.5758,-1.6551,-1.4949,-0.9968,-0.5735,-0.4464,-0.191,0.0,0.0,0.0,0.0,0.0,0.0,0.0,0.0,0.0,0.0,0.0,0.0,0.0,0.0,0.0,0.0,0.0,0.0,0.0,0.0,0.0,0.0,0.0,0.0,0.0,0.0,0.0,0.0,-1.3376,-1.4,-1.4509,-1.4957,-1.5153,-1.5282,-1.5432,-1.5527,-1.5594,-1.5628,-1.5642,-1.571,-1.5927,-1.6001,-1.6022,-1.6022,-1.6056,-1.6069,-1.6029,-1.6056,-1.6069,-1.6029,-1.6056,-1.6083,-1.6083,-1.6083,-1.6083,-1.6083,-1.6083,-1.6083,-1.6083,-1.6083,-1.6083,-1.6083,-1.6083,-1.6083,-1.6083,-1.6083,-1.6083,-1.6083,-1.6083,-1.6083,-1.6083,-1.6083,-1.6083,-1.6083,-1.6083,-1.6083,-1.6083,-1.6083,-1.6083,-1.6083,-1.6083,-1.6083,-1.6083,-1.6083,-1.6083,-1.6083,-1.6083,-1.6083,-1.6083,-1.6083,-1.6083,-1.6083,-1.6083,-1.611,-1.6185,-1.6402,-1.6524,-1.6632,-1.6863,-1.6951,-1.6978,-1.6978,-1.6978,-1.6229,-1.3353,-1.3785,-1.3996,-1.113,-0.7111,-0.3934,-0.3298,-0.1384,0.0,0.0,0.0,0.0,0.0,0.0,0.0,0.0,0.0,0.0,0.0,0.0,0.0,0.0,0.0,0.0,0.0,0.0,0.0,0.0,0.0,0.0,0.0,0.0,0.0,0.0,0.0,0.0,-1.2874,-1.3234,-1.358,-1.4027,-1.4462,-1.4814,-1.497,-1.5221,-1.5466,-1.5608,-1.5642,-1.5642,-1.5655,-1.5771,-1.5866,-1.5866,-1.5988,-1.6029,-1.5886,-1.5988,-1.6029,-1.5886,-1.5995,-1.6083,-1.6083,-1.6083,-1.6083,-1.6083,-1.6083,-1.6083,-1.6083,-1.6083,-1.6083,-1.6083,-1.6083,-1.6083,-1.6083,-1.6083,-1.6083,-1.6083,-1.6083,-1.6083,-1.6083,-1.6083,-1.6083,-1.6083,-1.6083,-1.6083,-1.6083,-1.6083,-1.6083,-1.6083,-1.6083,-1.6083,-1.6083,-1.6083,-1.6083,-1.6083,-1.6083,-1.6083,-1.6083,-1.6083,-1.6083,-1.6083,-1.6083,-1.6185,-1.63,-1.632,-1.6524,-1.6741,-1.6754,-1.687,-1.6978,-1.6978,-1.6978,-1.6229,-1.3353,-1.0707,-0.8064,-0.5207,-0.4357,-0.3403,-0.0639,-0.0107,0.0,0.0,0.0,0.0,0.0,0.0,0.0,0.0,0.0,0.0,0.0,0.0,0.0,0.0,0.0,0.0,0.0,0.0,0.0,0.0,0.0,0.0,0.0,0.0,0.0,0.0,0.0,0.0,-1.2596,-1.3024,-1.3485,-1.3838,-1.4116,-1.4373,-1.4618,-1.4835,-1.5025,-1.5181,-1.5282,-1.5343,-1.5343,-1.5622,-1.5852,-1.5852,-1.5981,-1.6062,-1.6008,-1.6049,-1.6062,-1.6008,-1.6049,-1.6083,-1.6083,-1.6083,-1.6083,-1.6083,-1.6083,-1.6083,-1.6083,-1.6083,-1.6083,-1.6083,-1.6083,-1.6083,-1.6083,-1.6083,-1.6083,-1.6083,-1.6083,-1.6083,-1.6083,-1.6083,-1.6083,-1.6083,-1.6083,-1.6083,-1.6083,-1.6083,-1.6083,-1.6083,-1.6083,-1.6083,-1.6083,-1.6083,-1.6083,-1.6083,-1.6083,-1.6144,-1.6212,-1.611,-1.6151,-1.6212,-1.611,-1.6191,-1.6327,-1.6422,-1.6592,-1.6775,-1.687,-1.6937,-1.6551,-1.4633,-1.2827,-1.0712,-0.7852,-0.6478,-0.5419,-0.4357,-0.2766,-0.1171,-0.0213,0.0,0.0,0.0,0.0,0.0,0.0,0.0,0.0,0.0,0.0,0.0,0.0,0.0,0.0,0.0,0.0,0.0,0.0,0.0,0.0,0.0,0.0,0.0,0.0,0.0,0.0,0.0,0.0,0.0,-1.2237,-1.261,-1.3037,-1.3383,-1.362,-1.3871,-1.4272,-1.4482,-1.4665,-1.4916,-1.5045,-1.5126,-1.5174,-1.5466,-1.5723,-1.5771,-1.5954,-1.6083,-1.6083,-1.6083,-1.6083,-1.6083,-1.6083,-1.6083,-1.6083,-1.6083,-1.6083,-1.6083,-1.6083,-1.6083,-1.6083,-1.6083,-1.6083,-1.6083,-1.6083,-1.6083,-1.6083,-1.6083,-1.6083,-1.6083,-1.6083,-1.6083,-1.6083,-1.6083,-1.6083,-1.6083,-1.6083,-1.6083,-1.6083,-1.6083,-1.6083,-1.6083,-1.6083,-1.6083,-1.6083,-1.6083,-1.6083,-1.609,-1.6137,-1.6225,-1.63,-1.6246,-1.6266,-1.63,-1.6246,-1.6266,-1.6341,-1.6483,-1.6632,-1.6775,-1.6876,-1.6944,-1.6229,-1.3353,-1.0602,-0.7746,-0.4782,-0.3509,-0.2766,-0.2766,-0.1278,0.0,0.0,0.0,0.0,0.0,0.0,0.0,0.0,0.0,0.0,0.0,0.0,0.0,0.0,0.0,0.0,0.0,0.0,0.0,0.0,0.0,0.0,0.0,0.0,0.0,0.0,0.0,0.0,0.0,0.0,0.0,0.0,0.0,0.0,-1.2603,-1.2929,-1.3302,-1.3905,-1.4163,-1.4401,-1.4855,-1.4957,-1.5011,-1.5153,-1.5309,-1.5459,-1.5608,-1.5879,-1.6076,-1.6076,-1.6076,-1.6083,-1.6083,-1.6083,-1.6083,-1.6083,-1.6083,-1.6083,-1.6083,-1.6083,-1.6083,-1.6083,-1.6083,-1.6083,-1.6083,-1.6083,-1.6083,-1.6083,-1.6083,-1.6083,-1.6083,-1.6083,-1.6083,-1.6083,-1.6083,-1.6083,-1.6083,-1.6083,-1.6083,-1.6083,-1.6083,-1.6083,-1.6083,-1.6083,-1.6083,-1.6083,-1.609,-1.609,-1.611,-1.6259,-1.632,-1.6347,-1.6476,-1.6429,-1.6347,-1.6483,-1.6429,-1.6354,-1.649,-1.6639,-1.6754,-1.6754,-1.6765,-1.6124,-1.3248,-1.0391,-0.7535,-0.4676,-0.1916,0.0,0.0,0.0,0.0,0.0,0.0,0.0,0.0,0.0,0.0,0.0,0.0,0.0,0.0,0.0,0.0,0.0,0.0,0.0,0.0,0.0,0.0,0.0,0.0,0.0,0.0,0.0,0.0,0.0,0.0,0.0,0.0,0.0,0.0,-1.1667,0.0,0.0,0.0,0.0,0.0,-1.3159,-1.3464,-1.381,-1.4373,-1.4658,-1.4882,-1.5133,-1.5309,-1.5425,-1.5466,-1.5723,-1.592,-1.592,-1.6008,-1.6083,-1.6083,-1.6083,-1.6083,-1.6083,-1.6083,-1.6083,-1.6083,-1.6083,-1.6083,-1.6083,-1.6083,-1.6083,-1.6083,-1.6083,-1.6083,-1.6083,-1.6083,-1.6083,-1.6083,-1.6083,-1.6083,-1.6083,-1.6083,-1.6083,-1.6083,-1.6083,-1.6083,-1.6083,-1.6083,-1.6083,-1.6083,-1.6083,-1.6083,-1.6096,-1.6205,-1.6246,-1.6266,-1.6415,-1.6537,-1.6619,-1.6544,-1.6571,-1.6612,-1.6544,-1.6571,-1.6632,-1.6673,-1.6795,-1.6917,-1.6917,-1.5456,-1.3143,-1.0391,-0.7429,-0.457,-0.1809,-0.0533,0.0,0.0,0.0,0.0,0.0,0.0,0.0,0.0,0.0,0.0,0.0,0.0,0.0,0.0,0.0,0.0,0.0,0.0,0.0,0.0,0.0,0.0,0.0,0.0,0.0,0.0,0.0,0.0,0.0,0.0,0.0,0.0,0.0,0.0,0.0,0.0,0.0,0.0,0.0,0.0,-1.2901,-1.3139,-1.3424,-1.415,-1.4387,-1.457,-1.493,-1.5072,-1.5153,-1.5215,-1.5527,-1.5784,-1.5845,-1.5988,-1.6083,-1.6083,-1.6083,-1.6083,-1.6083,-1.6083,-1.6083,-1.6083,-1.6083,-1.6083,-1.6083,-1.6083,-1.6083,-1.6083,-1.6083,-1.6083,-1.6083,-1.6083,-1.6083,-1.6083,-1.6083,-1.6083,-1.6083,-1.6083,-1.6083,-1.6083,-1.6083,-1.6083,-1.6083,-1.6083,-1.6083,-1.6083,-1.6083,-1.6083,-1.6103,-1.6252,-1.6307,-1.6341,-1.6544,-1.6673,-1.6748,-1.672,-1.6727,-1.6748,-1.672,-1.6734,-1.6761,-1.6829,-1.691,-1.6978,-1.6978,-1.4844,-1.1978,-0.9122,-0.6266,-0.3404,-0.0639,0.0,0.0,0.0,0.0,0.0,0.0,0.0,0.0,0.0,0.0,0.0,0.0,0.0,0.0,0.0,0.0,0.0,0.0,0.0,0.0,0.0,0.0,0.0,0.0,0.0,0.0,0.0,0.0,0.0,0.0,0.0,0.0,0.0,0.0,0.0,-1.1613,0.0,0.0,0.0,-1.1925,0.0,-1.284,-1.2963,-1.3146,-1.398,-1.4082,-1.4156,-1.4584,-1.4679,-1.474,-1.4875,-1.5276,-1.5628,-1.5805,-1.5974,-1.6083,-1.6083,-1.6083,-1.6083,-1.6083,-1.6083,-1.6083,-1.6083,-1.6083,-1.6083,-1.6083,-1.6083,-1.6083,-1.6083,-1.6083,-1.6083,-1.6083,-1.6083,-1.6083,-1.6083,-1.6083,-1.6083,-1.6083,-1.6083,-1.6083,-1.6083,-1.6083,-1.6083,-1.6083,-1.6083,-1.6083,-1.6083,-1.6083,-1.6083,-1.6103,-1.6273,-1.6334,-1.6374,-1.6673,-1.6775,-1.6795,-1.6937,-1.689,-1.6802,-1.6937,-1.6883,-1.6802,-1.6944,-1.6978,-1.6978,-1.6656,-1.4417,-1.1552,-0.8699,-0.5841,-0.3085,-0.0533,0.0,0.0,0.0,0.0,0.0,0.0,0.0,0.0,0.0,0.0,0.0,0.0,0.0,0.0,0.0,0.0,0.0,0.0,0.0,0.0,0.0,0.0,0.0,0.0,0.0,0.0,0.0,0.0,0.0,0.0,0.0,0.0,0.0,0.0,0.0,-1.1586,-1.1619,-1.1633,-1.1694,0.0,0.0,-1.2054,-1.2352,-1.2712,-1.3132,-1.3485,-1.3817,-1.4143,-1.4299,-1.4394,-1.4428,-1.4808,-1.5235,-1.5628,-1.5913,-1.6083,-1.6083,-1.6083,-1.6083,-1.6083,-1.6083,-1.6083,-1.6083,-1.6083,-1.6083,-1.6083,-1.6083,-1.6083,-1.6083,-1.6083,-1.6083,-1.6083,-1.6083,-1.6083,-1.6083,-1.6083,-1.6083,-1.6083,-1.6083,-1.6083,-1.6083,-1.6083,-1.6083,-1.6083,-1.6083,-1.6083,-1.6083,-1.6083,-1.6083,-1.611,-1.6381,-1.6483,-1.6524,-1.6829,-1.6937,-1.6937,-1.6971,-1.6958,-1.6944,-1.6971,-1.6958,-1.6944,-1.6971,-1.6978,-1.6446,-1.4101,-1.1451,-0.8593,-0.5735,-0.2872,-0.0639,-0.0107,0.0,0.0,0.0,0.0,0.0,0.0,0.0,0.0,0.0,0.0,0.0,0.0,0.0,0.0,0.0,0.0,0.0,0.0,0.0,0.0,0.0,0.0,0.0,0.0,0.0,0.0,0.0,0.0,0.0,0.0,0.0,0.0,0.0,0.0,0.0,-1.3309,-1.3031,-1.276,-1.1918,0.0,0.0,0.0,-1.2176,-1.2386,-1.2766,-1.2963,-1.318,-1.3553,-1.3688,-1.381,-1.4034,-1.4516,-1.4936,-1.516,-1.5635,-1.5995,-1.6076,-1.6083,-1.6083,-1.6083,-1.6083,-1.6083,-1.6083,-1.6083,-1.6083,-1.6083,-1.6083,-1.6083,-1.6083,-1.6083,-1.6083,-1.6083,-1.6083,-1.6083,-1.6083,-1.6083,-1.6083,-1.6083,-1.6083,-1.6083,-1.6083,-1.6083,-1.6083,-1.6083,-1.6083,-1.6083,-1.6083,-1.6083,-1.613,-1.6225,-1.6442,-1.6571,-1.6666,-1.6904,-1.6978,-1.6978,-1.6978,-1.6978,-1.6978,-1.6978,-1.6978,-1.6663,-1.5271,-1.4844,-1.4207,-1.1345,-0.8487,-0.5947,-0.457,-0.2022,0.0,0.0,0.0,0.0,0.0,0.0,0.0,0.0,0.0,0.0,0.0,0.0,0.0,0.0,0.0,0.0,0.0,0.0,0.0,0.0,0.0,0.0,0.0,0.0,0.0,0.0,0.0,0.0,0.0,0.0,0.0,0.0,0.0,0.0,0.0,0.0,0.0,0.0,0.0,0.0,0.0,0.0,-1.1823,0.0,0.0,0.0,-1.2488,-1.2508,-1.2569,-1.2935,-1.3051,-1.3207,-1.3566,-1.4136,-1.4536,-1.4563,-1.516,-1.5683,-1.5927,-1.5981,-1.6008,-1.6035,-1.6015,-1.6022,-1.6076,-1.6029,-1.6022,-1.6076,-1.6083,-1.6083,-1.6083,-1.6083,-1.6083,-1.6083,-1.6083,-1.6083,-1.6083,-1.6083,-1.6083,-1.6083,-1.6083,-1.6083,-1.6083,-1.6083,-1.6083,-1.6083,-1.6083,-1.6083,-1.6083,-1.6083,-1.6157,-1.6286,-1.6456,-1.6598,-1.6734,-1.6917,-1.6978,-1.6978,-1.6978,-1.6978,-1.6978,-1.6978,-1.6656,-1.5697,-1.3353,-1.2295,-1.1235,-0.8382,-0.5947,-0.404,-0.3509,-0.1703,0.0,0.0,0.0,0.0,0.0,0.0,0.0,0.0,0.0,0.0,0.0,0.0,0.0,0.0,0.0,0.0,0.0,0.0,0.0,0.0,0.0,0.0,0.0,0.0,0.0,0.0,0.0,0.0,0.0,0.0,0.0,0.0,0.0,0.0,0.0,0.0,0.0,0.0,0.0,0.0,0.0,-1.3341,0.0,0.0,0.0,-1.204,-1.1952,0.0,-1.2332,-1.2379,0.0,0.0,-1.2847,-1.3363,-1.3797,-1.3926,-1.436,-1.4869,-1.5418,-1.5608,-1.5737,-1.5866,-1.5764,-1.5798,-1.6062,-1.5839,-1.5805,-1.6069,-1.6083,-1.6083,-1.6083,-1.6083,-1.6083,-1.6083,-1.6083,-1.6083,-1.6083,-1.6083,-1.6083,-1.6083,-1.6083,-1.6083,-1.6083,-1.6083,-1.6083,-1.6083,-1.6083,-1.6083,-1.6083,-1.6083,-1.609,-1.6144,-1.6422,-1.653,-1.6592,-1.6883,-1.6978,-1.6978,-1.6978,-1.6978,-1.6978,-1.6978,-1.5271,-1.3143,-1.2821,-1.0918,-0.8276,-0.5417,-0.4465,-0.3615,-0.1065,-0.0213,0.0,0.0,0.0,0.0,0.0,0.0,0.0,0.0,0.0,0.0,0.0,0.0,0.0,0.0,0.0,0.0,0.0,0.0,0.0,0.0,0.0,0.0,0.0,0.0,0.0,0.0,0.0,0.0,0.0,0.0,0.0,0.0,0.0,0.0,0.0,0.0,0.0,0.0,0.0,0.0,0.0,0.0,0.0,-1.2095,0.0,-1.1789,0.0,0.0,0.0,0.0,0.0,0.0,0.0,-1.303,-1.3417,-1.3566,-1.3973,-1.4448,-1.4964,-1.5079,-1.5208,-1.5445,-1.5493,-1.5594,-1.5811,-1.5628,-1.5635,-1.5934,-1.5947,-1.5988,-1.6076,-1.6083,-1.6083,-1.6083,-1.6083,-1.6083,-1.6083,-1.6083,-1.6083,-1.6083,-1.6083,-1.6083,-1.6083,-1.6083,-1.6083,-1.6083,-1.6083,-1.6083,-1.6083,-1.6083,-1.6137,-1.6239,-1.6442,-1.6578,-1.6686,-1.6904,-1.6978,-1.6978,-1.6978,-1.6978,-1.6663,-1.506,-1.3675,-1.1978,-0.8699,-0.6899,-0.5311,-0.2553,-0.1809,-0.1491,-0.032,0.0,0.0,0.0,0.0,0.0,0.0,0.0,0.0,0.0,0.0,0.0,0.0,0.0,0.0,0.0,0.0,0.0,0.0,0.0,0.0,0.0,0.0,0.0,0.0,0.0,0.0,0.0,0.0,0.0,0.0,0.0,0.0,0.0,0.0,0.0,0.0,0.0,0.0,-2.2582,0.0,0.0,0.0,0.0,0.0,0.0,0.0,0.0,0.0,0.0,0.0,0.0,0.0,0.0,0.0,0.0,-1.3152,-1.3268,-1.3593,-1.4007,-1.4496,-1.4624,-1.476,-1.4977,-1.5065,-1.5221,-1.5493,-1.5337,-1.5391,-1.5778,-1.5832,-1.5906,-1.6015,-1.6062,-1.6083,-1.6083,-1.6083,-1.6083,-1.6083,-1.6083,-1.6083,-1.6083,-1.6083,-1.6083,-1.6083,-1.6083,-1.5678,-1.4968,-1.4968,-1.4968,-1.4968,-1.4968,-1.5538,-1.6266,-1.6408,-1.6558,-1.6707,-1.6863,-1.6944,-1.6978,-1.6978,-1.6978,-1.6446,-1.3569,-1.2189,-1.0496,-0.5629,-0.3615,-0.2553,-0.0533,0.0,0.0,0.0,0.0,0.0,0.0,0.0,0.0,0.0,0.0,0.0,0.0,0.0,0.0,0.0,0.0,0.0,0.0,0.0,0.0,0.0,0.0,0.0,0.0,0.0,0.0,0.0,0.0,0.0,0.0,0.0,0.0,0.0,0.0,0.0,0.0,0.0,0.0,0.0,0.0,0.0,0.0,0.0,0.0,-2.139,0.0,0.0,0.0,0.0,-1.4309,0.0,0.0,0.0,0.0,0.0,0.0,0.0,0.0,0.0,0.0,0.0,0.0,0.0,0.0,-1.4523,-1.4529,-1.4414,-1.4577,-1.5153,-1.4923,-1.5018,-1.5615,-1.5778,-1.5852,-1.5957,-1.6001,-1.6083,-1.6083,-1.6083,-1.6083,-1.6083,-1.6083,-1.6083,-1.6083,-1.6083,-1.6083,-1.6083,-1.6083,-1.4663,-1.2248,-1.2248,-1.2248,-1.2248,-1.2248,-1.386,-1.611,-1.6259,-1.6408,-1.6551,-1.6707,-1.6856,-1.6978,-1.6978,-1.6978,-1.6446,-1.3569,-1.0813,-0.8064,-0.4995,-0.2235,-0.0107,0.0,0.0,0.0,0.0,0.0,0.0,0.0,0.0,0.0,0.0,0.0,0.0,0.0,0.0,0.0,0.0,0.0,0.0,0.0,0.0,0.0,0.0,0.0,0.0,0.0,0.0,0.0,0.0,0.0,0.0,0.0,0.0,0.0,0.0,0.0,0.0,0.0,0.0,0.0,0.0,0.0,0.0,0.0,0.0,-2.453,-2.2524,0.0,0.0,0.0,0.0,0.0,0.0,0.0,0.0,0.0,0.0,0.0,0.0,0.0,0.0,0.0,0.0,0.0,0.0,0.0,0.0,0.0,-1.4116,-1.4312,-1.4713,-1.4557,-1.4706,-1.5303,-1.5479,-1.5649,-1.5845,-1.6001,-1.6083,-1.6083,-1.6083,-1.6083,-1.6083,-1.6083,-1.6083,-1.6083,-1.6083,-1.5167,-1.3555,-1.5373,-1.3561,-0.9644,-1.3256,-1.3655,-1.2248,-1.4059,-1.5273,-1.6103,-1.6252,-1.6402,-1.6558,-1.6815,-1.6937,-1.6978,-1.6978,-1.5697,-1.3569,-1.0813,-0.7958,-0.5101,-0.2235,-0.0746,0.0,0.0,0.0,0.0,0.0,0.0,0.0,0.0,0.0,0.0,0.0,0.0,0.0,0.0,0.0,0.0,0.0,0.0,0.0,0.0,0.0,0.0,0.0,0.0,0.0,0.0,0.0,0.0,0.0,0.0,0.0,0.0,0.0,0.0,0.0,0.0,0.0,0.0,0.0,0.0,0.0,0.0,0.0,-2.6466,-2.648,0.0,-2.4198,-2.3515,0.0,-1.9959,0.0,0.0,0.0,0.0,0.0,0.0,0.0,0.0,0.0,0.0,0.0,0.0,-1.2969,0.0,0.0,0.0,0.0,0.0,-1.3756,-1.3919,-1.4326,-1.4217,-1.4373,-1.4916,-1.5242,-1.5499,-1.5689,-1.5947,-1.6083,-1.6083,-1.6083,-1.6083,-1.6083,-1.5167,-1.4669,-1.4663,-1.3661,-1.2253,-1.0745,-1.3456,-1.2153,-0.8342,-1.2857,-1.3655,-1.2248,-1.396,-1.5273,-1.6096,-1.6191,-1.6354,-1.6558,-1.6809,-1.6937,-1.6978,-1.6978,-1.506,-1.2189,-0.9334,-0.6478,-0.3615,-0.0746,0.0,0.0,0.0,0.0,0.0,0.0,0.0,0.0,0.0,0.0,0.0,0.0,0.0,0.0,0.0,0.0,0.0,0.0,0.0,0.0,0.0,0.0,0.0,0.0,0.0,0.0,0.0,0.0,0.0,0.0,0.0,0.0,0.0,0.0,0.0,0.0,0.0,0.0,0.0,0.0,0.0,0.0,0.0,0.0]},{"header":{"parameterUnit":"m.s-1","parameterCategory":1,"la1":30.6,"la2":29.2853,"lo1":-89.7004,"lo2":-87.6739,"dy":0.0162,"dx":0.0183,"nx":112,"ny":82,"refTime":"2026-03-28T12:00:00:Z","depth":0,"parameterNumber":3,"parameterNumberName":"V-component_of_WINDS"},"data":[0.0,0.0,0.0,0.0,0.0,0.0,0.0,0.0,0.0,0.0,0.0,0.0,0.0,0.0,0.0,0.0,0.0,0.0,0.0,0.0,0.0,0.0,0.0,0.0,0.0,0.0,0.0,0.0,0.0,0.0,0.0,0.0,0.0,0.0,0.0,0.0,0.0,0.0,0.0,0.0,0.0,0.0,0.0,0.0,0.0,0.0,0.0,0.0,0.0,0.0,0.0,0.0,0.0,0.0,0.0,0.0,0.0,0.0,0.0,0.0,0.0,0.0,0.0,0.0,0.0,0.0,0.0,0.0,0.0,0.0,0.0,0.0,0.0,0.0,0.0,0.0,0.0,0.0,0.0,0.0,0.0,0.0,0.0,0.0,0.0,0.0,0.0,0.0,0.0,0.0,4.2746,4.2551,4.5563,4.7966,4.8923,4.8342,4.6955,4.475,0.0,0.0,0.0,0.0,0.0,0.0,0.0,0.0,0.0,0.0,0.0,0.0,0.0,0.0,0.0,0.0,0.0,0.0,0.0,0.0,0.0,0.0,0.0,0.0,0.0,0.0,0.0,0.0,0.0,0.0,0.0,0.0,0.0,0.0,0.0,0.0,0.0,0.0,0.0,0.0,0.0,0.0,0.0,0.0,0.0,0.0,0.0,0.0,0.0,0.0,0.0,0.0,0.0,0.0,0.0,0.0,0.0,0.0,0.0,0.0,0.0,0.0,0.0,0.0,0.0,0.0,0.0,0.0,0.0,0.0,0.0,0.0,0.0,0.0,0.0,0.0,0.0,0.0,0.0,0.0,0.0,0.0,0.0,0.0,0.0,0.0,0.0,0.0,0.0,0.0,0.0,0.0,0.0,0.0,0.0,0.0,0.0,0.0,0.0,0.0,0.0,0.0,0.0,0.0,4.3086,4.5538,4.6848,4.7966,4.8923,4.8342,4.6955,4.475,0.0,0.0,0.0,0.0,0.0,0.0,0.0,0.0,0.0,0.0,0.0,0.0,0.0,0.0,0.0,0.0,0.0,0.0,0.0,0.0,0.0,0.0,0.0,0.0,0.0,0.0,0.0,0.0,0.0,0.0,0.0,0.0,0.0,0.0,0.0,0.0,0.0,0.0,0.0,0.0,0.0,0.0,0.0,0.0,0.0,0.0,0.0,0.0,0.0,0.0,0.0,0.0,0.0,0.0,0.0,0.0,0.0,0.0,0.0,0.0,0.0,0.0,0.0,0.0,0.0,0.0,0.0,0.0,0.0,0.0,0.0,0.0,0.0,0.0,0.0,0.0,0.0,0.0,0.0,0.0,0.0,0.0,0.0,0.0,0.0,0.0,0.0,0.0,0.0,0.0,0.0,0.0,0.0,0.0,0.0,0.0,0.0,0.0,0.0,0.0,0.0,0.0,0.0,4.198,4.3038,4.6018,4.7076,4.7966,4.8923,4.8342,4.6955,4.475,4.3842,0.0,0.0,0.0,0.0,0.0,0.0,0.0,0.0,0.0,0.0,0.0,0.0,0.0,0.0,0.0,0.0,0.0,0.0,0.0,0.0,0.0,0.0,0.0,0.0,0.0,0.0,0.0,0.0,0.0,0.0,0.0,0.0,0.0,0.0,0.0,0.0,0.0,0.0,0.0,0.0,0.0,0.0,0.0,0.0,0.0,0.0,0.0,0.0,0.0,0.0,0.0,0.0,0.0,0.0,0.0,0.0,0.0,0.0,0.0,0.0,0.0,0.0,0.0,0.0,0.0,0.0,0.0,0.0,0.0,0.0,0.0,0.0,0.0,0.0,0.0,0.0,0.0,0.0,0.0,0.0,0.0,0.0,0.0,0.0,0.0,0.0,0.0,0.0,0.0,0.0,0.0,0.0,0.0,0.0,0.0,0.0,0.0,0.0,0.0,0.0,0.0,0.0,4.2893,4.3443,4.5943,4.6833,4.7737,4.8892,4.8173,4.6786,4.475,4.3673,0.0,0.0,0.0,0.0,0.0,0.0,0.0,0.0,0.0,0.0,0.0,0.0,0.0,0.0,0.0,0.0,0.0,0.0,0.0,0.0,0.0,0.0,0.0,0.0,0.0,0.0,0.0,0.0,0.0,0.0,0.0,0.0,0.0,0.0,0.0,0.0,0.0,0.0,0.0,0.0,0.0,0.0,0.0,0.0,0.0,0.0,0.0,0.0,0.0,0.0,0.0,0.0,0.0,0.0,0.0,0.0,0.0,0.0,0.0,0.0,0.0,0.0,0.0,0.0,0.0,0.0,0.0,0.0,0.0,0.0,0.0,0.0,0.0,0.0,0.0,0.0,0.0,0.0,0.0,0.0,0.0,0.0,0.0,0.0,0.0,0.0,0.0,0.0,0.0,0.0,0.0,0.0,0.0,0.0,0.0,0.0,0.0,0.0,0.0,0.0,0.0,0.0,4.3443,4.4997,4.6103,4.6244,4.7036,4.8861,4.7699,4.621,4.4716,4.3227,0.0,0.0,0.0,0.0,0.0,0.0,0.0,0.0,0.0,0.0,0.0,0.0,0.0,0.0,0.0,0.0,0.0,0.0,0.0,0.0,0.0,0.0,0.0,0.0,0.0,0.0,0.0,0.0,0.0,0.0,0.0,0.0,0.0,0.0,0.0,0.0,0.0,0.0,0.0,0.0,0.0,0.0,0.0,0.0,0.0,0.0,0.0,0.0,0.0,0.0,0.0,0.0,0.0,0.0,0.0,0.0,0.0,0.0,0.0,0.0,0.0,0.0,0.0,0.0,0.0,0.0,0.0,0.0,0.0,0.0,0.0,0.0,0.0,0.0,0.0,0.0,0.0,0.0,0.0,0.0,0.0,0.0,0.0,0.0,0.0,0.0,0.0,0.0,0.0,0.0,0.0,0.0,0.0,0.0,0.0,0.0,0.0,0.0,0.0,0.0,0.0,0.0,4.3677,4.5109,0.0,4.707,4.7605,4.8892,4.8477,4.7158,4.475,0.0,0.0,0.0,0.0,0.0,0.0,0.0,0.0,0.0,0.0,0.0,0.0,0.0,0.0,0.0,0.0,0.0,0.0,0.0,0.0,0.0,0.0,0.0,0.0,0.0,0.0,0.0,0.0,0.0,0.0,0.0,0.0,0.0,0.0,0.0,0.0,0.0,0.0,0.0,0.0,0.0,0.0,0.0,0.0,0.0,0.0,0.0,0.0,0.0,0.0,0.0,0.0,0.0,0.0,0.0,0.0,0.0,0.0,0.0,0.0,0.0,0.0,0.0,0.0,0.0,0.0,0.0,0.0,0.0,0.0,0.0,0.0,0.0,0.0,0.0,0.0,0.0,0.0,0.0,0.0,0.0,0.0,0.0,0.0,0.0,0.0,0.0,0.0,0.0,0.0,0.0,0.0,0.0,0.0,0.0,0.0,0.0,0.0,0.0,0.0,0.0,0.0,4.3032,4.4398,4.596,0.0,4.7935,4.8331,4.9294,4.8917,4.7496,4.4784,0.0,0.0,0.0,0.0,0.0,0.0,0.0,0.0,0.0,0.0,0.0,0.0,0.0,0.0,0.0,0.0,0.0,0.0,0.0,0.0,0.0,0.0,0.0,0.0,0.0,0.0,0.0,0.0,0.0,0.0,0.0,0.0,0.0,0.0,0.0,0.0,0.0,0.0,0.0,0.0,0.0,0.0,0.0,0.0,0.0,0.0,0.0,0.0,0.0,0.0,0.0,0.0,0.0,0.0,0.0,0.0,0.0,0.0,0.0,0.0,0.0,0.0,0.0,0.0,0.0,0.0,0.0,0.0,0.0,0.0,0.0,0.0,0.0,0.0,0.0,0.0,0.0,0.0,0.0,0.0,0.0,0.0,0.0,0.0,0.0,0.0,0.0,0.0,0.0,0.0,0.0,0.0,0.0,0.0,0.0,0.0,0.0,0.0,0.0,0.0,0.0,0.0,4.3287,4.5762,4.7935,4.866,4.8726,4.9128,5.0038,4.8781,4.6989,0.0,0.0,0.0,0.0,0.0,0.0,0.0,0.0,0.0,0.0,0.0,0.0,0.0,0.0,0.0,0.0,0.0,0.0,0.0,0.0,0.0,0.0,0.0,0.0,0.0,0.0,0.0,0.0,0.0,0.0,0.0,0.0,0.0,0.0,0.0,0.0,0.0,0.0,0.0,0.0,0.0,0.0,0.0,0.0,0.0,0.0,0.0,0.0,0.0,0.0,0.0,0.0,0.0,0.0,0.0,0.0,0.0,0.0,0.0,0.0,0.0,0.0,0.0,0.0,0.0,0.0,0.0,0.0,0.0,0.0,0.0,0.0,0.0,0.0,0.0,0.0,0.0,0.0,0.0,0.0,0.0,0.0,0.0,0.0,0.0,0.0,0.0,0.0,0.0,0.0,0.0,0.0,0.0,0.0,0.0,0.0,0.0,0.0,0.0,0.0,0.0,0.0,0.0,4.5744,4.8308,5.0221,5.0423,5.0456,5.0554,5.0847,4.9999,4.8451,4.6069,0.0,0.0,0.0,0.0,0.0,0.0,0.0,0.0,0.0,0.0,0.0,0.0,0.0,0.0,0.0,0.0,0.0,0.0,0.0,0.0,0.0,0.0,0.0,0.0,0.0,0.0,0.0,0.0,0.0,0.0,0.0,0.0,0.0,0.0,0.0,0.0,0.0,0.0,0.0,0.0,0.0,0.0,0.0,0.0,0.0,0.0,0.0,0.0,0.0,0.0,0.0,0.0,0.0,0.0,0.0,0.0,0.0,0.0,0.0,0.0,0.0,0.0,0.0,0.0,0.0,0.0,0.0,0.0,0.0,0.0,0.0,0.0,0.0,0.0,0.0,0.0,0.0,0.0,0.0,0.0,0.0,0.0,0.0,0.0,0.0,0.0,0.0,0.0,0.0,0.0,0.0,0.0,0.0,0.0,0.0,0.0,0.0,0.0,0.0,0.0,0.0,0.0,4.8017,5.0483,5.2352,5.2969,5.2731,5.244,5.2133,5.1691,5.0005,4.6711,0.0,0.0,0.0,0.0,0.0,0.0,0.0,0.0,0.0,0.0,0.0,0.0,0.0,0.0,0.0,0.0,0.0,0.0,0.0,0.0,0.0,0.0,0.0,0.0,0.0,0.0,0.0,0.0,0.0,0.0,0.0,0.0,0.0,0.0,0.0,0.0,0.0,0.0,0.0,0.0,0.0,0.0,0.0,0.0,0.0,0.0,0.0,0.0,0.0,0.0,0.0,0.0,0.0,0.0,0.0,0.0,0.0,0.0,0.0,0.0,0.0,0.0,0.0,0.0,0.0,0.0,0.0,0.0,0.0,0.0,0.0,0.0,0.0,0.0,0.0,0.0,0.0,0.0,0.0,0.0,0.0,0.0,0.0,0.0,0.0,0.0,0.0,0.0,0.0,0.0,0.0,0.0,0.0,0.0,0.0,0.0,0.0,0.0,0.0,0.0,0.0,0.0,5.0115,5.236,5.439,5.5844,5.5312,5.4543,5.3883,5.3633,5.1633,4.729,0.0,0.0,0.0,0.0,0.0,0.0,0.0,0.0,0.0,0.0,0.0,0.0,0.0,0.0,0.0,0.0,0.0,0.0,0.0,0.0,0.0,0.0,0.0,0.0,0.0,0.0,0.0,0.0,0.0,0.0,0.0,0.0,0.0,0.0,0.0,0.0,0.0,0.0,0.0,0.0,0.0,0.0,0.0,0.0,0.0,0.0,0.0,0.0,0.0,0.0,0.0,0.0,0.0,0.0,0.0,0.0,0.0,0.0,0.0,0.0,5.4918,5.2823,0.0,0.0,0.0,0.0,0.0,0.0,0.0,0.0,0.0,0.0,0.0,0.0,0.0,0.0,0.0,0.0,0.0,0.0,0.0,0.0,0.0,0.0,0.0,0.0,0.0,0.0,0.0,0.0,0.0,0.0,0.0,0.0,0.0,0.0,0.0,0.0,0.0,0.0,0.0,0.0,5.1686,5.4363,5.656,5.7581,5.6914,5.6361,5.6188,5.503,5.3362,5.0997,4.9036,0.0,0.0,0.0,0.0,0.0,0.0,0.0,0.0,0.0,0.0,0.0,0.0,0.0,0.0,0.0,0.0,0.0,0.0,0.0,0.0,0.0,0.0,0.0,0.0,0.0,0.0,0.0,0.0,0.0,0.0,0.0,0.0,0.0,0.0,0.0,0.0,0.0,0.0,0.0,0.0,0.0,0.0,0.0,0.0,0.0,0.0,0.0,0.0,0.0,0.0,0.0,0.0,0.0,0.0,0.0,0.0,0.0,0.0,0.0,5.8825,5.6399,0.0,0.0,0.0,0.0,0.0,0.0,0.0,0.0,0.0,0.0,0.0,0.0,0.0,0.0,0.0,0.0,0.0,0.0,0.0,0.0,0.0,0.0,0.0,0.0,0.0,0.0,0.0,0.0,0.0,0.0,0.0,0.0,0.0,0.0,0.0,0.0,0.0,0.0,0.0,0.0,5.3652,5.6273,5.8474,5.9718,5.9078,5.8439,5.8085,5.6946,5.5371,5.3339,5.0931,0.0,0.0,0.0,0.0,0.0,0.0,0.0,0.0,0.0,0.0,0.0,0.0,0.0,0.0,0.0,0.0,0.0,0.0,0.0,0.0,0.0,0.0,0.0,0.0,0.0,0.0,0.0,0.0,0.0,0.0,0.0,0.0,0.0,0.0,0.0,0.0,0.0,0.0,0.0,0.0,0.0,0.0,0.0,0.0,0.0,0.0,0.0,0.0,0.0,0.0,0.0,0.0,0.0,6.533,6.616,6.7271,6.7271,6.7343,6.7307,6.3938,6.1413,5.9666,5.8995,0.0,0.0,0.0,0.0,0.0,0.0,0.0,0.0,0.0,0.0,0.0,0.0,0.0,0.0,0.0,0.0,0.0,0.0,0.0,0.0,0.0,0.0,0.0,0.0,6.151,6.1184,5.624,0.0,0.0,0.0,0.0,0.0,0.0,0.0,0.0,0.0,0.0,0.0,5.55,5.7923,6.0052,6.163,6.108,6.0347,5.9766,5.8921,5.753,5.5462,5.3018,5.0655,0.0,0.0,0.0,0.0,0.0,0.0,0.0,0.0,0.0,0.0,0.0,0.0,0.0,0.0,0.0,0.0,0.0,0.0,0.0,0.0,0.0,0.0,0.0,0.0,0.0,0.0,0.0,0.0,0.0,0.0,0.0,0.0,5.9643,5.9136,0.0,0.0,0.0,0.0,0.0,0.0,0.0,0.0,0.0,0.0,0.0,0.0,0.0,6.6235,6.7652,6.9848,7.1055,7.1311,7.4092,7.519,7.4677,7.4677,7.508,7.5634,7.4458,0.0,6.538,6.5287,0.0,0.0,0.0,0.0,0.0,0.0,0.0,0.0,0.0,0.0,0.0,0.0,0.0,0.0,0.0,0.0,0.0,0.0,0.0,0.0,0.0,0.0,6.3691,6.3839,6.4008,6.3972,0.0,5.9384,5.5691,5.4233,5.3097,0.0,0.0,0.0,0.0,0.0,0.0,0.0,5.6418,5.8767,6.086,6.2475,6.1924,6.1386,6.1312,6.0554,5.9637,5.8626,5.63,5.4509,5.3482,4.9811,0.0,0.0,0.0,0.0,0.0,0.0,0.0,0.0,0.0,0.0,0.0,0.0,0.0,0.0,0.0,0.0,0.0,0.0,0.0,0.0,0.0,0.0,0.0,0.0,0.0,0.0,0.0,0.0,0.0,6.1272,6.2235,6.1408,6.2838,6.2938,0.0,0.0,0.0,0.0,0.0,0.0,0.0,0.0,0.0,6.931,7.0116,7.1321,7.2936,7.4441,7.5689,7.6607,7.8038,7.8772,7.8846,7.8846,7.8809,7.873,7.8736,7.7131,7.4282,7.1148,6.8576,6.6441,0.0,0.0,0.0,0.0,6.4187,6.4433,6.5347,6.5683,6.5624,6.54,0.0,0.0,0.0,0.0,0.0,0.0,0.0,0.0,0.0,0.0,6.7292,6.8515,6.919,6.924,6.796,6.5469,6.2382,0.0,5.7172,5.5856,5.3808,0.0,0.0,0.0,0.0,5.6006,5.7635,5.9748,6.152,6.2695,6.2475,6.2291,6.2291,6.1557,6.0933,6.0566,5.8731,5.7262,5.6455,5.3408,5.1316,0.0,0.0,0.0,0.0,0.0,0.0,0.0,0.0,0.0,0.0,0.0,0.0,0.0,0.0,0.0,0.0,0.0,0.0,0.0,0.0,0.0,0.0,0.0,0.0,0.0,0.0,0.0,0.0,6.3702,6.524,6.4185,6.6402,6.6843,0.0,0.0,0.0,0.0,0.0,0.0,6.9743,7.0624,7.2165,7.4588,7.5249,7.635,7.7965,7.8589,7.9617,8.1012,8.1012,8.1342,8.1929,8.2081,8.1839,8.1311,8.1774,8.1842,8.1254,7.6057,7.2755,7.0817,6.9604,6.9026,6.8867,6.8678,6.9,6.9719,7.0927,7.1343,7.1192,7.0113,6.8752,6.7089,6.4761,0.0,0.0,0.0,0.0,6.4737,6.7806,6.9207,7.0264,7.2112,7.3014,7.3058,7.1405,7.004,6.7773,0.0,6.1279,5.9744,5.6992,0.0,0.0,0.0,0.0,5.7865,5.9342,6.0948,6.2313,6.3104,6.311,6.3014,6.3014,6.2353,6.1924,6.1924,6.0603,5.9538,5.8951,5.6785,5.4876,5.3261,0.0,0.0,0.0,0.0,0.0,0.0,0.0,0.0,0.0,0.0,0.0,0.0,0.0,0.0,0.0,0.0,0.0,0.0,0.0,0.0,0.0,0.0,0.0,0.0,0.0,0.0,0.0,0.0,0.0,6.765,7.0257,0.0,0.0,0.0,0.0,6.9669,7.1248,7.3156,7.5542,7.646,7.8038,8.0498,8.0608,8.1415,8.303,8.3067,8.3544,8.4352,8.4352,8.4389,8.4459,8.5071,8.5358,8.5276,8.5203,8.4745,8.3713,7.9538,7.7727,7.7394,7.5,7.4039,7.3947,7.3157,7.2931,7.2968,7.3044,7.3082,7.3195,7.3813,7.1848,6.9266,6.9298,6.7841,0.0,0.0,6.805,6.955,7.0486,7.1385,7.2269,7.3192,7.3476,7.3462,7.337,7.1409,6.8829,0.0,6.4495,6.3251,6.1847,0.0,6.0639,5.937,5.9911,6.0783,6.1633,6.2503,6.3371,6.4238,6.3871,6.3565,6.3565,6.3073,6.2768,6.2768,6.1961,6.1447,6.141,5.9832,5.8194,5.6602,5.4566,0.0,0.0,0.0,0.0,0.0,0.0,0.0,0.0,0.0,0.0,0.0,0.0,0.0,0.0,0.0,0.0,0.0,0.0,0.0,0.0,0.0,0.0,0.0,0.0,0.0,0.0,0.0,0.0,7.0917,7.4111,0.0,7.2275,7.2936,7.3634,7.3927,7.5946,7.8038,7.991,8.0791,8.1893,8.3287,8.3324,8.3581,8.4168,8.4168,8.4572,8.538,8.538,8.538,8.5414,8.6103,8.6125,8.5624,8.6528,8.6403,8.5497,8.3906,8.2072,8.0152,7.9239,7.8847,7.8588,7.7764,7.7802,7.8185,7.7649,7.7458,7.7305,7.6505,7.4686,7.2722,7.2275,7.1213,7.0311,7.1025,7.1668,7.2476,7.3822,7.4399,7.4707,7.5014,7.513,7.4976,7.4399,7.3553,7.2328,7.0272,6.775,6.5454,6.3925,6.3548,6.2937,6.1398,6.2033,6.2987,6.3861,6.4911,6.5653,6.5993,6.5837,6.5717,6.5717,6.5024,6.4599,6.4599,6.385,6.3402,6.3402,6.23,6.1177,6.0112,5.837,5.5563,0.0,0.0,0.0,0.0,0.0,0.0,0.0,0.0,0.0,0.0,0.0,0.0,0.0,0.0,0.0,0.0,0.0,0.0,0.0,0.0,0.0,0.0,0.0,0.0,0.0,7.2055,7.4845,7.4588,7.7928,7.925,7.679,7.7524,7.8259,7.8552,8.0094,8.1709,8.3324,8.3911,8.4572,8.538,8.5416,8.5416,8.5416,8.5416,8.5673,8.6187,8.6187,8.6187,8.6221,8.7227,8.7323,8.6846,8.7975,8.8115,8.7561,8.7128,8.5577,8.3333,8.2491,8.2075,8.1862,8.1285,8.1439,8.1823,8.0939,8.0477,8.0015,7.8592,7.7169,7.5899,7.5361,7.4784,7.4437,7.5014,7.5207,7.5438,7.6553,7.663,7.6438,7.6438,7.6207,7.5822,7.5245,7.4899,7.4361,7.3245,7.0744,6.8282,6.6628,6.632,6.5743,6.4063,6.4663,6.5465,6.5733,6.6723,6.7431,6.7431,6.7253,6.7162,6.7162,6.5936,6.5294,6.5596,6.4294,6.3653,6.3955,6.286,6.1879,6.1029,5.8765,5.6307,5.3691,0.0,0.0,0.0,0.0,0.0,0.0,0.0,0.0,0.0,0.0,0.0,0.0,0.0,0.0,0.0,0.0,0.0,0.0,0.0,0.0,0.0,0.0,0.0,7.1403,7.4888,7.775,7.8699,8.1636,8.3287,8.248,8.237,8.27,8.3471,8.3508,8.4205,8.5747,8.5857,8.6224,8.7031,8.7031,8.7031,8.7031,8.7031,8.7031,8.6995,8.7031,8.7066,8.7098,8.8466,8.9148,8.9149,8.9686,8.994,8.9863,8.9056,8.8209,8.7132,8.467,8.3708,8.367,8.3632,8.3632,8.3478,8.2631,8.1823,8.1016,8.0169,7.9285,7.8569,7.8554,7.853,7.8477,7.8477,7.8477,7.8477,7.8477,7.79,7.7323,7.7323,7.6669,7.6015,7.6015,7.5361,7.4745,7.4707,7.3399,7.1745,7.0014,6.9706,6.9129,6.7398,6.7898,0.0,6.7282,6.7936,6.8475,6.8423,6.7959,6.7649,6.7649,6.57,6.4803,6.5597,6.3294,6.2257,6.3068,6.156,6.0297,5.9427,5.5821,5.4179,5.4626,0.0,0.0,0.0,0.0,0.0,0.0,0.0,0.0,0.0,0.0,0.0,0.0,0.0,0.0,0.0,0.0,0.0,0.0,0.0,0.0,0.0,7.2679,7.4588,7.4001,7.7928,8.1379,8.2774,8.5783,8.7435,8.6628,8.6554,8.6407,8.604,8.6004,8.6224,8.6664,8.7215,8.7619,8.7876,8.7876,8.7876,8.7876,8.7876,8.7582,8.7031,8.8113,8.8361,8.7867,8.9187,8.9832,8.9878,9.0551,9.0479,8.9885,8.9671,8.8709,8.7325,8.6632,8.5978,8.5324,8.4747,8.4132,8.3555,8.3324,8.3093,8.2747,8.19,8.1054,8.0285,7.9631,7.9015,7.8477,7.8477,7.8477,7.8477,7.8477,7.8323,7.8015,7.7438,7.713,7.6784,7.613,7.5822,7.5476,7.4822,7.4322,7.3283,7.0975,7.009,6.9321,6.8205,6.8783,0.0,6.9013,6.9706,6.9975,6.9398,6.9201,6.9131,6.9131,6.7434,6.6457,6.6686,6.4872,6.3632,6.325,6.279,6.2446,6.2178,5.9409,5.7689,0.0,0.0,0.0,0.0,0.0,0.0,0.0,0.0,0.0,0.0,0.0,0.0,0.0,0.0,0.0,0.0,0.0,0.0,0.0,0.0,0.0,0.0,7.6276,7.8332,7.8883,8.1709,8.4315,8.593,8.8353,8.9601,8.8793,8.872,8.8243,8.7105,8.6995,8.6995,8.6995,8.7766,8.8206,8.8206,8.8536,8.8536,8.8206,8.8206,8.7939,8.7493,8.871,8.9033,8.856,8.9987,9.046,9.0138,9.0876,9.0902,9.0441,9.0441,8.9671,0.0,0.0,0.0,0.0,0.0,8.5093,8.4593,8.4247,8.4132,8.4016,8.3131,8.2285,8.1516,8.1016,8.0246,7.9592,7.9592,7.9592,7.9592,7.9592,7.9323,7.8938,7.8477,7.8054,7.7553,7.6746,7.6553,7.6284,7.5399,7.4938,0.0,7.2745,7.1514,7.0321,6.9129,6.9667,7.009,6.9744,7.0398,7.0706,7.0244,7.0206,7.0206,7.0206,6.8629,0.0,0.0,0.0,6.3897,6.232,6.2589,0.0,0.0,0.0,0.0,0.0,0.0,0.0,0.0,5.6857,5.6472,0.0,0.0,0.0,0.0,0.0,0.0,0.0,0.0,0.0,0.0,0.0,0.0,0.0,0.0,0.0,0.0,7.9837,8.2333,8.4572,8.571,8.6811,8.8059,8.9638,9.0298,8.9455,8.9382,8.8793,8.7252,8.7068,8.6995,8.6995,8.7839,0.0,0.0,0.0,8.9086,8.8456,8.8345,8.8339,8.8369,8.9242,8.9536,8.9402,9.0875,9.1064,9.0284,9.0895,9.121,9.121,9.121,9.0633,8.9633,8.8017,8.6863,8.6094,8.6094,8.6094,8.6017,8.5286,0.0,0.0,8.3901,8.3093,8.2401,8.2208,8.167,8.1093,8.1093,8.1093,8.1093,8.1093,8.0516,7.9939,7.9823,7.9208,7.84,7.7592,7.7361,7.7053,7.6284,7.5438,7.4822,7.4707,7.3399,7.1822,7.036,7.0667,7.0783,7.0052,7.0514,7.086,7.0783,0.0,0.0,7.0744,6.9321,6.8385,6.8385,6.609,6.3743,6.1473,6.2127,6.1781,6.0242,6.0973,6.1743,6.2524,6.2524,6.332,6.4743,5.9242,5.8396,0.0,0.0,0.0,0.0,0.0,0.0,0.0,0.0,0.0,0.0,0.0,0.0,0.0,0.0,0.0,7.8956,8.2443,8.527,8.6371,8.8353,8.9307,8.8316,8.9638,9.0298,8.9455,8.9382,8.9014,8.8059,8.7362,8.6995,8.6995,8.839,8.9197,8.9197,8.9308,8.962,9.0058,8.9421,8.9369,8.998,9.1319,0.0,9.1012,9.1872,9.1796,9.0989,9.1136,9.121,9.121,9.121,9.0287,8.8825,8.7786,8.6863,8.6094,8.6094,8.6094,8.6094,8.594,8.5863,8.5632,8.4093,8.3478,8.3093,8.1747,8.1208,0.0,8.1093,8.1093,8.1093,8.1093,8.0977,8.0669,7.9977,7.9669,7.9323,7.8438,7.7746,7.7246,7.7092,7.6322,7.5515,7.4822,7.3899,7.3129,7.2822,7.2283,7.1898,7.1745,7.1245,7.0667,7.0014,6.9937,6.9937,6.9937,6.9013,6.8385,6.8385,6.6667,6.5436,6.4936,6.5089,6.5013,6.4666,6.482,6.5013,6.5166,6.5166,6.5667,6.6551,6.4051,6.3628,0.0,0.0,0.0,0.0,0.0,0.0,0.0,0.0,0.0,0.0,0.0,7.4331,7.6387,0.0,7.9947,8.2406,8.4462,8.6077,8.6885,8.839,8.9271,8.8867,8.9858,9.0152,8.894,8.8793,8.8647,8.8243,8.7839,8.7802,8.8206,8.9381,9.0005,9.0005,9.0352,9.0531,9.0503,9.0475,9.0621,9.0936,9.2497,9.3,9.2543,9.2909,9.2633,9.1825,9.1402,9.1441,9.1864,9.1864,9.0825,8.921,8.8363,8.7248,8.6094,8.6094,8.6094,8.6094,8.6094,8.5863,8.544,8.4978,8.3978,8.2862,8.2477,8.1785,8.1093,8.1093,8.1093,8.1093,8.1093,8.1093,8.0977,8.0554,8.0439,8.0208,7.9323,7.8477,7.79,7.79,7.6861,7.6015,7.6015,7.5322,7.4476,7.363,7.3129,7.2706,7.2245,7.1822,7.1245,7.0398,7.0283,7.0283,7.0283,6.9552,6.9052,6.9052,6.7859,6.6974,6.6513,6.6936,6.6936,6.6513,6.6936,6.7167,6.7167,6.759,6.8205,6.8975,6.8129,6.7552,0.0,0.0,0.0,0.0,0.0,0.0,0.0,7.4551,7.5359,7.6166,7.7194,7.8736,8.1232,8.1966,8.2957,8.538,8.6187,8.6738,8.7399,8.8463,8.9271,8.9601,9.0225,9.0041,8.8573,8.8573,8.861,8.8426,8.8426,8.872,8.9345,9.0329,9.0839,9.0839,9.1534,9.1664,9.1178,9.1606,9.1909,9.2143,9.348,9.4056,9.3941,9.3787,9.3364,9.2672,9.1825,9.1672,9.2018,9.2172,9.1248,8.9594,8.894,8.7748,8.6324,8.5978,8.5863,8.5863,8.5863,8.544,8.4978,8.5478,8.4247,8.2631,8.2978,8.217,8.1093,8.1093,8.1093,8.1093,8.1093,8.1093,8.1093,8.1093,8.1093,8.09,8.0208,7.9361,7.8707,7.8515,7.7284,7.6399,7.6938,7.6476,7.5553,7.4207,7.386,7.3476,7.2783,7.2399,7.1937,7.1245,7.1014,7.0898,7.0898,7.0321,6.9937,6.9937,6.9283,6.859,6.7859,6.8513,6.8629,6.809,6.8783,6.9244,6.9385,7.009,7.0783,7.1398,7.1398,7.0667,6.8238,6.9045,7.1174,7.2863,7.4441,7.6166,0.0,7.9617,8.0424,8.1232,8.3141,8.4609,8.4278,8.538,8.6224,8.5857,8.7619,8.9015,8.9124,9.1106,9.2024,9.0629,9.0555,9.0262,8.9381,8.9931,9.0041,8.9344,8.9271,8.9344,8.9382,9.0765,9.1593,9.1593,9.2313,9.2969,9.3507,9.2901,9.3272,9.4598,9.4791,9.4866,9.4826,9.4057,9.3633,9.3518,9.271,9.1518,9.0248,9.1018,9.0364,8.8825,8.8748,8.8094,8.7055,8.5593,8.5016,8.5016,8.5016,8.4978,8.4786,8.4093,8.367,8.317,8.1785,8.1246,8.1093,8.1093,8.1093,8.1093,8.1093,8.1093,8.1093,8.1093,8.1093,8.1054,8.0977,8.0285,7.9438,7.8631,7.7746,7.6938,7.6245,7.6053,7.5938,7.5745,7.5053,7.4553,7.4437,7.3129,7.2168,7.2052,7.136,7.0898,7.0898,7.0821,7.0783,7.0783,7.0667,7.0591,7.0475,7.0552,7.0937,7.1629,7.1706,7.2168,7.2937,7.3053,7.3129,7.3206,7.3206,7.3129,7.3204,7.3522,7.4816,7.7817,7.9436,8.0865,8.2847,8.4278,8.5416,8.6224,8.7215,8.7949,8.8059,8.828,8.8316,8.7949,8.8757,8.9382,8.9382,9.1106,9.173,9.0115,9.1179,9.1363,8.9565,8.9711,8.9968,9.0115,9.0115,9.051,9.1465,9.2124,9.2648,9.3093,9.3324,9.3573,9.3907,9.4011,9.4369,9.5018,9.5518,9.5749,9.5711,9.4326,9.3172,9.2249,9.2441,9.1787,9.071,9.1595,9.0941,8.9363,8.8863,8.8171,8.7248,8.6055,8.5286,8.4978,8.544,8.4978,8.417,8.4324,8.367,8.2708,8.2016,8.1477,8.1093,8.1093,8.1093,8.1093,8.1093,8.1093,8.1093,8.1093,8.1093,8.1093,8.1093,8.0439,7.9708,7.9323,7.8207,7.7169,7.6823,7.6322,7.6015,7.6015,7.5707,7.5091,7.413,7.3399,7.2552,7.1552,7.1129,7.0898,7.0898,7.0898,7.0898,7.0898,7.0898,7.0898,7.0898,7.1398,7.1591,7.1437,7.2437,7.2899,7.2745,7.3707,7.4207,7.4207,7.3745,7.3745,7.6548,7.7404,7.8861,8.2434,8.4332,8.5779,8.7402,8.8856,8.9968,9.0372,9.0776,9.1069,9.0959,9.0445,8.9931,8.9455,8.9784,9.0005,8.9784,9.1326,9.1803,8.9968,9.151,9.195,8.9931,8.9931,9.0298,9.0886,9.0922,9.1532,9.2955,9.3171,9.3618,9.4372,9.4509,9.4556,9.4556,9.5099,9.5365,9.5365,9.6019,9.6172,9.5903,9.4403,9.2787,9.1248,9.2133,9.1864,9.0902,9.1787,9.1133,8.9517,8.9171,8.8363,8.7325,8.6709,8.5786,8.4978,8.5555,8.4978,8.4055,8.4709,8.3862,8.2593,8.2362,8.1747,8.1093,8.1093,8.1093,8.1093,8.1093,8.1093,8.1093,8.1093,8.1093,8.1093,8.1093,8.0439,7.9746,7.9477,7.8284,7.7207,7.6976,7.6399,7.6015,7.6015,7.6015,7.5476,7.4014,7.3437,7.2668,7.1398,7.1052,7.0898,7.0898,7.0898,7.0898,7.0898,7.0898,7.0898,7.0898,7.1745,7.2014,7.1629,7.3091,7.363,7.3245,7.4497,7.5014,7.4769,7.4204,7.4141,7.6554,7.972,8.3435,8.6039,8.8485,9.0715,9.2423,9.3437,9.3896,9.3125,9.4226,9.4593,9.2207,9.173,9.1216,8.9674,9.0702,9.1436,9.0665,9.2684,9.3308,9.0849,9.1326,9.151,9.0665,9.1253,9.173,9.1767,9.1767,9.2122,9.2955,9.3677,9.4398,9.5142,9.5882,9.6231,9.6231,9.6231,9.6249,9.6249,9.6288,9.5865,9.5018,9.4095,9.2787,9.1248,9.2133,9.1518,9.0017,9.0902,9.0248,8.8786,8.9556,8.8863,8.7401,8.7363,8.6324,8.4901,8.4939,8.4901,8.4863,8.4901,8.4286,8.3401,8.2554,8.1747,8.1093,8.1093,8.1093,8.1093,8.1093,8.1093,8.1093,8.1093,8.1093,8.1093,8.1093,8.0439,7.9554,7.8707,7.7861,7.7015,7.6207,7.6015,7.6015,7.6015,7.6015,7.5668,7.4784,7.3245,7.2206,7.2168,7.1398,7.0898,7.0898,7.0898,7.0898,7.0898,7.0898,7.0898,7.0898,7.1745,7.2591,7.3399,7.4245,7.5053,7.5899,7.6132,7.5808,7.4973,7.4967,7.4635,8.0638,8.335,8.6301,8.9778,9.2201,9.4102,9.5794,9.6388,9.6532,9.6273,9.4592,9.2831,9.195,9.1363,9.0665,8.9565,9.1253,9.2354,9.151,9.3051,9.3161,9.0188,9.151,9.1913,9.0005,9.0969,9.1969,9.2562,9.3045,9.3677,9.4424,9.4718,9.5166,9.5902,9.6155,9.6288,9.6288,9.6288,9.6019,9.5441,9.4864,9.4134,9.3326,9.3018,9.2287,9.121,9.1518,9.1287,9.0748,9.0441,8.971,8.8671,8.8363,8.7555,8.6555,8.6555,8.617,8.5709,8.5709,8.5363,8.4901,8.4901,8.4709,8.4286,8.3439,8.2978,8.2747,8.2747,8.2324,8.19,8.19,8.1516,8.1093,8.1093,8.1093,8.1093,8.1093,8.0862,8.0246,7.8784,7.8284,7.763,7.6245,7.6015,7.6015,7.6015,7.5515,7.5014,7.4745,7.3745,7.3053,7.3053,7.2822,7.2629,7.2629,7.2629,7.2629,7.2629,7.2629,7.2629,7.2629,7.3437,7.3745,7.3514,7.4861,7.5488,7.5333,7.5979,7.6234,7.6044,7.5469,7.5082,8.4066,8.6585,8.9305,9.3332,9.5239,9.6586,9.8253,9.8425,9.8044,9.7487,9.4676,9.2048,9.1105,8.9821,8.8904,8.8977,9.0812,9.2207,9.2244,9.3418,9.3272,9.0592,9.165,9.1971,9.0384,9.1341,9.2321,9.2976,9.3677,9.4424,9.5166,9.5189,9.5533,9.6269,9.6288,9.6288,9.6288,9.598,9.5403,9.4518,9.3672,9.2979,9.2479,9.2172,9.1748,9.121,9.121,9.1018,9.071,9.0133,8.9248,8.8209,8.794,8.7132,8.6132,8.644,8.6363,8.6094,8.6094,8.5747,8.5324,8.5324,8.5132,8.4786,8.4247,8.3632,8.3131,8.3131,8.2516,8.1862,8.1862,8.1477,8.1093,8.1093,8.1093,8.1093,8.1093,8.0862,8.0285,7.9169,7.8707,7.8169,7.7092,7.663,7.6361,7.6053,7.5515,7.5168,7.5168,7.4207,7.363,7.3899,7.3668,7.3514,7.3514,7.3514,7.3514,7.3514,7.3514,7.3514,7.3514,7.4284,7.4476,7.3937,7.5372,7.5902,7.5453,7.6185,7.6404,7.6247,7.5669,7.5273,8.6632,8.9402,9.2364,9.6442,9.7504,9.8034,9.9737,9.9411,9.832,9.6863,9.444,9.1919,8.9669,8.7362,8.6297,8.7876,8.9601,9.1289,9.2941,9.386,9.3823,9.2169,9.1932,9.1858,9.1821,9.2404,9.2884,9.309,9.3755,9.4464,9.5212,9.5273,9.5576,9.6269,9.6288,9.6288,9.6249,9.5326,9.4441,9.3633,9.2826,9.2441,9.2402,9.1595,9.121,9.121,9.1171,9.0671,8.9902,8.9825,8.8825,8.7478,8.8248,8.7555,8.6209,8.7017,8.6824,8.6094,8.6094,8.6094,8.6094,8.6094,8.5593,8.4978,8.4978,8.3824,8.2477,8.2477,8.1862,8.1246,8.1246,8.117,8.1093,8.1093,8.1093,8.1093,8.1093,8.0439,7.9862,7.9823,7.9092,7.8477,7.8477,7.7823,7.7015,7.6207,7.6015,7.6015,7.6015,7.463,7.3937,7.4668,7.4091,7.363,7.363,7.363,7.363,7.363,7.363,7.363,7.363,7.4361,7.4784,7.4784,7.5772,7.6295,7.6327,7.6709,7.6486,7.5673,7.568,7.5328,8.8709,9.1595,9.4441,9.6172,9.7058,9.7804,9.89,9.7638,9.6111,9.5723,9.1385,8.7633,8.7617,8.6628,8.6114,8.7142,9.0225,9.2792,9.3783,9.5146,9.5641,9.4617,9.4412,9.4151,9.3549,9.3541,9.3876,9.4579,9.473,9.5151,9.5962,9.602,9.6117,9.6288,9.6288,9.598,9.5326,9.3864,9.3018,9.2787,9.1941,9.1518,9.1518,9.1287,9.121,9.1171,9.0517,9.0133,8.9825,8.8556,8.7786,8.7363,8.694,8.6478,8.6132,8.6363,8.6286,8.6094,8.6094,8.6094,8.6094,8.6094,8.5978,8.5786,8.5786,8.5478,8.5132,8.5132,8.4093,8.2939,8.2939,8.2054,8.1093,8.1093,8.1093,8.1093,8.1093,8.0939,8.0592,7.9939,7.9092,7.8477,7.8477,7.7823,7.7207,7.6976,7.6399,7.6015,7.6015,7.563,7.5438,7.5668,7.5476,7.5361,7.5361,7.5361,7.5361,7.5361,7.5361,7.5361,7.5361,7.5553,7.5668,7.5668,7.5961,7.6219,7.6505,7.665,7.6726,7.6792,7.6792,7.6717,9.1018,9.3249,9.5365,9.698,9.7442,9.7442,9.7173,9.5525,9.3531,9.1735,8.7366,8.4058,8.46,8.4046,8.4265,8.6592,9.0036,9.3094,9.4945,9.6318,9.6952,9.6517,9.6393,9.6046,9.5173,9.499,9.5163,9.5661,9.5637,9.5788,9.6288,9.6288,9.6288,9.6288,9.6288,9.5711,9.4441,9.3133,9.2326,9.1902,9.1441,9.121,9.121,9.121,9.121,9.1171,9.0671,9.0248,8.9825,8.8517,8.7748,8.7325,8.644,8.6094,8.6094,8.6094,8.6094,8.6094,8.6094,8.6094,8.6094,8.6094,8.6094,8.6094,8.6094,8.5863,8.5555,8.5555,8.4632,8.3516,8.3131,8.2324,8.1554,8.117,8.1093,8.1093,8.1093,8.1093,8.0977,8.0477,7.9977,7.9515,7.9131,7.8707,7.8284,7.7861,7.74,7.7092,7.7092,7.6784,7.6438,7.6053,7.6322,7.6399,7.6015,7.6015,7.6015,7.6015,7.6361,7.6399,7.6015,7.6361,7.6399,7.6015,7.6093,7.6243,7.6484,7.6576,7.676,7.7057,7.7057,7.7104,9.3249,9.4595,9.5826,9.7942,9.7904,9.6826,9.4941,9.3136,9.0723,8.6764,8.3379,8.129,8.1975,8.1381,8.2259,8.6639,8.9826,9.2938,9.6203,9.7402,9.8035,9.8221,9.8122,9.7654,9.6814,9.6554,9.6403,9.6326,9.6288,9.6288,9.6288,9.6288,9.6288,9.6288,9.6095,9.5211,9.371,9.2787,9.1941,9.121,9.121,9.121,9.121,9.121,9.1133,9.1018,9.0902,9.0364,8.9517,8.8671,8.7902,8.7132,8.6401,8.6094,8.6094,8.6094,8.6094,8.6094,8.6094,8.6094,8.6094,8.6094,8.6094,8.6094,8.6094,8.5632,8.5055,8.5055,8.4439,8.3593,8.2824,8.2554,8.2285,8.1439,8.1362,8.1362,8.1131,8.1093,8.1093,8.1093,8.1093,8.0862,8.0092,7.99,7.9554,7.8784,7.8554,7.8477,7.8477,7.79,7.7169,7.6399,7.7015,7.713,7.6399,7.6322,7.6322,7.6322,7.7053,7.713,7.6361,7.7053,7.7092,7.6361,7.6508,7.6598,7.6643,7.6794,7.6988,7.7172,7.7172,7.7215,9.4441,9.5903,9.7019,9.6788,9.6634,9.5711,9.2556,9.0091,8.7666,8.4812,8.1707,8.0368,8.3188,8.3037,8.4092,8.899,9.138,9.3751,9.7032,9.8185,9.9217,10.0502,10.011,9.9364,9.846,9.7731,9.7019,9.6365,9.6288,9.6288,9.6288,9.6288,9.6288,9.6288,9.4903,9.4018,9.371,9.2172,9.1364,9.121,9.121,9.121,9.121,9.121,9.0825,9.0094,8.9402,0.0,8.7786,8.6901,8.6478,8.6324,8.617,8.6094,8.6094,8.6094,8.6094,8.6094,8.6094,8.6094,8.6094,8.6094,8.6094,8.6094,8.6094,8.6017,8.5901,8.5901,8.5286,8.4632,8.4478,8.3901,8.317,8.2285,8.2631,8.2785,8.14,8.1093,8.1093,8.1093,8.1093,8.1054,8.09,8.0285,7.9746,7.9592,7.8977,7.8477,7.8477,7.8361,7.8207,7.8092,7.8207,7.8207,7.8092,7.8054,7.8054,7.8054,7.8207,7.8207,7.8054,7.8207,7.8207,7.8054,7.8089,7.8193,7.8375,7.8381,7.8505,7.872,7.872,7.8351,9.5441,9.6557,9.7403,9.7019,9.6596,9.5057,9.0287,8.765,8.4957,8.0611,7.8539,7.8121,8.0266,8.1009,8.2655,8.6936,8.8965,9.1637,9.6295,9.7274,9.849,10.098,10.0981,10.0212,9.8942,9.8404,9.7634,9.6403,9.6288,9.6288,9.6288,9.5865,9.5403,9.4941,9.371,9.3095,9.3095,9.1825,9.121,9.121,9.121,9.121,9.121,9.121,9.071,8.9902,8.9479,8.8863,8.8017,8.7132,8.6786,8.6748,8.6286,8.6094,8.6094,8.6094,8.6094,8.6094,8.6094,8.6094,8.6094,8.6094,8.6094,8.6094,8.6094,8.6094,8.6094,8.6094,8.5824,8.544,8.5016,8.4593,8.4055,8.317,8.3285,8.3247,8.2016,8.1708,8.1593,8.117,8.1093,8.1093,8.1093,8.0746,8.0477,8.0477,8.0131,7.9862,7.9862,7.9862,7.9515,7.8592,7.89,7.8977,7.8515,7.8477,7.8477,7.8477,7.8938,7.8977,7.853,7.8938,7.8977,7.8515,7.8477,7.8527,7.8631,7.8631,7.8757,7.8952,7.8952,7.8794,9.598,9.6903,9.7442,9.7288,9.6634,9.4441,8.8479,8.5824,8.2978,7.7207,7.6015,7.641,7.7753,7.899,8.1003,8.4691,8.6465,8.9363,9.498,9.6057,9.748,10.0712,10.1019,10.0481,9.8942,9.8634,9.7904,9.6403,9.6288,9.6211,9.6019,9.5365,9.4595,9.371,9.2903,9.2479,9.2479,9.1633,9.121,9.121,9.121,9.121,9.121,9.121,9.0633,8.9633,8.9633,8.9056,8.8094,8.7401,8.7132,8.7055,8.6363,8.6094,8.6094,8.6094,8.6094,8.6094,8.6094,8.6094,8.6094,8.6094,8.6094,8.6094,8.6094,8.6094,8.6094,8.6094,8.6094,8.594,8.5324,8.517,8.4978,8.4286,8.3862,8.3439,8.2978,8.2708,8.2401,8.1747,8.1631,8.1631,8.1631,8.1631,8.1554,8.14,8.1362,8.1285,8.1131,8.1093,8.0592,7.9208,7.9669,7.9785,7.9131,7.9054,7.9054,7.9054,7.9708,7.9785,7.9092,7.9708,7.9746,7.9054,7.9054,7.9054,7.9054,7.9054,7.9138,7.9274,7.9274,7.9288,9.5634,9.6903,9.7326,9.6596,9.5749,9.3557,8.7594,8.4901,8.2247,7.7053,7.6015,7.6731,7.9146,7.9715,8.1154,8.5351,8.6791,8.894,9.3326,9.5288,9.7288,9.9904,10.0212,9.9827,9.8904,9.8096,9.725,9.6365,9.6288,9.5942,9.5172,9.5018,9.4595,9.371,9.2903,9.2479,9.2479,9.1633,9.121,9.121,9.121,9.121,9.121,9.121,9.0325,8.8786,8.8786,8.7863,0.0,8.6247,8.6209,8.6209,8.6132,8.6094,8.6094,8.6094,8.6094,8.6094,8.6094,8.6094,8.6094,8.6094,8.6094,8.6094,8.6094,8.6094,8.6094,8.6094,8.6094,8.6094,8.6017,8.5978,8.5978,8.5901,8.4709,8.3785,8.4516,8.4055,8.3439,8.3362,8.3362,8.3362,8.3362,8.3362,8.3093,8.2324,8.217,8.1939,8.1208,8.1093,8.1054,8.0862,8.0939,8.0939,8.0862,8.0862,8.0862,8.0862,8.0939,8.0939,8.0862,8.0939,8.0939,8.0862,8.0862,8.0862,8.0862,8.0862,8.0877,8.0869,8.0869,8.0476,9.4826,9.648,9.7326,9.6519,9.5634,9.3441,8.7478,8.4786,8.2131,7.7053,7.6015,7.6322,7.7323,7.7515,7.8554,8.1785,8.217,8.4055,8.9863,9.171,9.3787,9.7403,9.8711,9.8981,9.8096,9.7711,9.7365,9.7057,9.7519,9.7211,9.5865,9.5288,9.4595,9.371,9.2903,9.2479,9.2479,9.1633,9.121,9.121,9.121,9.121,9.1171,9.0671,8.9787,8.8671,8.8132,8.7209,0.0,8.6094,8.6094,8.6094,8.6094,8.6094,8.6094,8.6094,8.6094,8.6094,8.6094,8.6094,8.6094,8.6094,8.6094,8.6094,8.6094,8.6094,8.6094,8.6094,8.6094,8.6094,8.6094,8.6094,8.6094,8.6094,8.5593,8.5055,8.4939,8.4632,8.4209,8.3708,8.3593,8.3593,8.3593,8.3593,8.3478,8.3131,8.3093,8.2978,8.2631,8.2593,8.2401,8.1862,8.14,8.1093,8.1093,8.1093,8.1093,8.1093,8.1093,8.1093,8.1093,8.1093,8.1176,8.1285,8.1285,8.1349,8.1458,8.1458,8.1458,8.1458,8.1458,8.1265,9.371,9.5672,9.6673,9.6365,9.5095,9.2518,8.7286,8.4401,8.1554,7.6938,7.6015,7.6015,7.6015,7.6015,7.6669,7.8746,7.9169,8.1208,8.6786,8.8709,9.0864,9.4364,9.5826,9.6519,9.6403,9.7057,9.7596,9.7865,9.8442,9.8173,9.6749,9.5865,9.4749,9.3403,9.2787,9.2364,9.2133,9.1518,9.121,9.121,9.0941,9.0941,9.1171,9.0056,8.9248,8.8632,8.7786,8.6901,0.0,8.6094,8.6094,8.6094,8.6094,8.6094,8.6094,8.6094,8.6094,8.6094,8.6094,8.6094,8.6094,8.6094,8.6094,8.6094,8.6094,8.6094,8.6094,8.6094,8.6094,8.6094,8.6094,8.6094,8.6094,8.6094,8.6094,8.594,8.5401,8.5247,8.5055,8.4439,8.4324,8.4324,8.4324,8.4324,8.4247,8.4016,8.3978,8.3901,8.3632,8.3593,8.3362,8.2747,8.217,8.1747,8.1477,8.1439,8.1554,8.1823,8.1362,8.1231,8.1543,8.1311,8.1298,8.1501,8.1501,8.1553,8.1688,8.1688,8.1688,8.1688,8.1688,8.1688,9.2326,9.4364,9.5211,9.6095,9.3749,9.0325,8.6901,8.3516,8.0131,7.6707,7.6015,7.6015,7.6015,7.6015,7.6284,7.7169,7.9438,8.1977,8.4593,8.7132,8.9325,9.1056,9.1287,9.1941,9.3595,9.6019,9.7865,9.8711,9.8788,9.8404,9.7519,9.6711,9.5134,9.2595,9.2479,9.2095,9.121,9.121,9.121,9.121,9.0325,9.0364,9.1133,8.9479,8.8709,8.8632,8.7786,8.6901,0.0,8.6094,8.6094,8.6094,8.6094,8.6094,8.6094,8.6094,8.6094,8.6094,8.6094,8.6094,8.6094,8.6094,8.6094,8.6094,8.6094,8.6094,8.6094,8.6094,8.6094,8.6094,8.6094,8.6094,8.6094,8.6094,8.6094,8.6094,8.6094,8.6094,8.6094,8.6094,8.6055,8.6055,8.6055,8.6055,8.5786,8.5016,8.4901,8.4555,8.3708,8.3593,8.3593,8.3593,8.3555,8.3208,8.2362,8.2285,8.267,8.3516,8.2016,8.1543,8.2545,8.1833,8.1501,8.168,8.168,8.168,8.1688,8.1688,8.1688,8.1688,8.1688,8.1688,8.5676,8.7883,8.9307,8.9063,8.8128,8.6431,8.3024,8.1327,7.9451,7.6084,7.5702,7.6015,7.6015,7.6015,7.6669,7.8669,7.9708,8.1093,8.3632,8.6209,8.8209,8.9363,9.2018,9.4441,9.6134,9.7557,9.8481,9.8788,9.9865,9.9404,9.6826,9.698,9.6211,9.4249,9.3095,9.2364,9.2095,9.1518,9.0902,9.0325,9.0633,9.0325,8.9479,8.894,8.8363,8.7748,8.6901,8.6363,8.6094,8.6094,8.6094,8.617,8.6748,8.6632,8.617,8.6786,8.6594,8.6094,8.6094,8.6094,8.6094,8.6094,8.6094,8.6094,8.6094,8.6094,8.6094,8.6094,8.6094,8.6094,8.6094,8.6094,8.6094,8.6094,8.6094,8.6094,8.6094,8.6094,8.6094,8.6094,8.6094,8.6094,8.6094,8.6094,8.6017,8.5747,8.5709,8.5632,8.5324,8.5324,8.5093,8.4555,8.4978,8.4747,8.3324,8.317,8.3285,8.3555,8.321,8.3167,8.3471,8.2854,8.2583,8.2791,8.2211,8.1976,8.2118,8.2703,8.3289,8.3875,8.3875,8.3875,8.1812,8.4197,8.5823,8.562,8.484,8.3469,8.1028,7.9571,7.8027,7.5586,7.5584,7.6015,7.6015,7.6015,7.6515,7.813,7.9438,8.0592,8.1554,8.4439,8.6901,8.8055,9.1364,9.4364,9.6365,9.7634,9.8442,9.8788,9.9481,9.8827,9.6442,9.6134,9.5441,9.4095,9.3018,9.2326,9.2018,9.1479,9.0941,9.0402,9.0633,9.0171,8.9133,8.8479,8.7902,8.7363,8.6478,8.6286,0.0,8.6594,8.6786,8.7132,8.7671,8.7363,8.6671,8.7209,8.7055,8.6594,8.6594,8.6824,8.7094,8.7094,8.6863,8.6594,8.6594,8.6363,8.6094,8.6094,8.6324,8.6517,8.6209,8.6324,8.6517,8.617,8.6094,8.6094,8.6094,8.6094,8.6094,8.6094,8.6094,8.6094,8.6094,8.6094,8.6094,8.6094,8.6094,8.6094,8.6094,8.6094,8.5901,8.5401,8.5786,8.567,8.4632,8.4247,8.4209,8.4516,8.4132,8.4072,8.4482,8.3914,8.3698,8.3914,8.3367,8.315,8.3281,8.3828,8.4375,8.4883,8.4883,8.4883,0.0,8.2416,8.3788,8.4592,8.3033,8.1099,8.0278,7.8142,0.0,7.5281,7.5584,7.6015,7.6015,7.6015,7.6053,7.6169,7.8938,8.0516,7.8823,8.2247,8.5632,8.7517,8.9863,9.2326,9.4941,9.648,9.7673,9.8557,9.7865,9.7019,9.6095,9.4557,9.3287,9.2441,9.2402,9.2018,9.121,9.121,9.1171,9.1095,9.0364,8.994,8.9748,8.8248,8.7555,0.0,8.6632,8.6748,8.7478,8.7478,8.7979,8.8709,8.8748,8.8248,8.7517,8.7555,8.7555,8.7478,8.7478,8.8017,8.8709,8.8709,8.8132,8.7478,8.7478,8.6863,8.6209,8.6286,8.6863,8.7325,8.6517,8.6824,8.7209,8.6363,8.617,8.6094,8.6094,8.6094,8.6094,8.6094,8.6094,8.6132,8.617,8.6132,8.6132,8.617,8.6132,8.6132,8.617,8.6132,8.6132,8.6209,8.6132,8.6094,8.6094,8.544,8.5302,8.6104,8.4868,8.457,8.5579,8.5024,8.4812,8.5,8.4922,8.4922,8.5,8.5,8.5039,8.5078,8.5078,8.5078,7.4367,0.0,7.7032,7.6616,7.6513,7.644,0.0,7.584,7.5594,7.517,7.5584,7.6015,7.6015,7.6015,7.6438,7.7707,7.9708,8.0708,7.9669,8.2631,8.6478,9.0787,9.1825,9.3441,9.6596,9.6095,9.5942,9.6826,9.6711,9.5634,9.3518,9.3595,9.3018,9.1556,9.1518,9.1402,9.121,9.121,9.0864,9.021,9.0671,9.021,8.8979,8.921,8.8979,8.8363,8.8171,8.8209,8.8402,8.8402,8.8517,8.8748,8.9363,8.9133,8.8479,8.9094,8.894,8.8402,8.8402,8.8517,8.8709,8.8709,8.8556,8.8402,8.8402,8.7786,8.7209,8.7902,8.8248,8.8363,8.8132,8.7748,8.7363,8.7132,8.6594,8.6094,8.6094,8.6094,8.6094,8.6094,8.6094,8.6324,8.6978,8.6555,8.6324,8.6978,8.6517,8.6324,8.7017,8.6517,8.6363,8.7017,8.6517,8.6094,8.6094,8.594,8.6007,8.6376,8.6239,8.6296,8.6701,8.6142,8.5857,8.5898,8.5234,8.5234,8.5898,8.5898,8.625,8.6875,8.6875,8.6875,7.2496,7.3893,7.5245,7.4802,7.5234,7.5701,7.557,7.5418,7.5281,7.5112,7.5584,7.6015,7.6015,7.6015,7.6284,7.7207,7.8784,8.0439,8.1939,8.3747,8.6632,9.1364,9.2249,9.3364,9.5557,9.4941,9.4595,9.5057,9.4788,9.3941,9.2556,9.2518,9.2133,9.1248,9.121,9.121,9.121,9.121,9.0979,9.0517,9.0979,9.0517,8.9286,8.971,8.9479,8.8709,8.8709,8.8902,8.9248,8.9248,8.9479,8.9902,9.0325,8.9979,8.9286,8.9748,8.9633,8.9248,8.9248,8.9517,8.9787,8.9363,8.9248,8.9248,8.9248,8.894,8.8556,8.8671,8.8979,8.9171,8.8786,8.8632,8.844,8.8094,8.7632,8.7171,8.6786,8.6709,8.6709,8.6709,8.6709,8.6978,8.7863,8.7594,8.744,8.794,8.7594,8.744,8.794,8.7594,8.7478,8.794,8.7555,8.7286,8.7286,8.694,8.6616,8.6494,8.6681,8.6909,8.71,8.6904,8.6797,8.6797,8.6328,8.6328,8.6797,8.6797,8.7031,8.75,8.75,8.75,7.2909,7.455,7.6082,7.563,7.604,7.6504,7.6479,7.5756,7.5127,7.5236,7.5616,7.6015,7.6015,7.6092,7.6245,7.6361,7.7784,8.0439,8.4863,8.5247,8.6671,9.0902,9.1941,9.2672,9.3595,9.348,9.3364,9.3518,9.2749,9.2287,9.2287,9.1595,9.121,9.121,9.121,9.121,9.121,9.121,9.121,9.121,9.121,9.0825,9.0094,9.0094,8.9748,8.9094,8.9094,0.0,9.0094,9.0094,9.0517,9.121,9.121,9.0748,9.0094,9.0094,9.0094,9.0094,9.0094,9.0594,9.1095,9.0364,9.0094,9.0094,9.0094,9.0094,8.9979,8.9248,8.9556,8.994,8.9248,8.9479,8.9748,8.9056,8.8786,8.8479,8.7748,8.7594,8.7594,8.7594,8.7594,8.7863,8.8709,8.8786,8.8748,8.8863,8.8786,8.8748,8.8863,8.8786,8.8748,8.8863,8.8748,8.8705,8.8733,8.8078,8.7485,8.7037,8.7001,8.7156,8.7514,8.7531,8.7578,8.7695,8.7578,8.75,8.75,8.7617,8.7695,8.7695,8.7695,8.7695,7.4839,7.6225,7.6831,7.4399,7.4727,7.5615,7.5418,7.5226,7.5254,7.5772,7.5932,7.6015,7.6015,7.6592,7.7323,7.8015,7.9554,8.2439,8.7401,8.6863,8.7517,9.1787,9.1787,9.2018,9.3557,9.2402,9.1902,9.2633,9.1902,9.1402,9.1402,9.1287,9.121,9.121,9.121,9.121,9.121,9.121,9.121,9.121,9.121,9.1133,9.1018,9.1018,9.0941,9.0825,0.0,9.0902,9.1018,9.1018,9.1095,9.121,9.121,9.1133,9.1018,9.1018,9.1018,9.1018,9.1018,9.1095,9.1171,9.1056,9.1018,9.1018,9.1018,9.1018,9.0979,9.0864,9.0902,9.0979,9.0864,9.0364,8.9863,8.9748,8.921,8.8671,8.8517,8.8479,8.8479,8.8479,8.8479,8.8748,8.9594,8.9133,8.894,8.9633,8.9133,8.894,8.9633,8.9133,8.894,8.9633,8.9094,8.8759,8.8944,8.8816,8.8878,8.9181,8.8382,8.8383,8.9528,8.8242,8.7812,8.8515,8.7851,8.75,8.75,8.8164,8.8515,8.8515,8.8515,8.8515,7.4768,7.5906,7.6903,7.6457,7.7088,7.7678,7.7083,7.658,7.6223,7.6062,7.6015,7.6015,7.6015,7.7053,7.8515,8.0285,8.2016,8.4286,8.7555,8.7709,8.8556,9.1479,9.1441,9.1518,9.2287,9.1633,9.1364,9.1787,9.1441,9.121,9.121,9.121,9.121,9.121,9.121,9.121,9.121,9.121,9.121,9.121,9.121,9.121,9.121,9.121,9.121,9.121,0.0,9.121,9.121,9.121,9.121,9.121,9.121,9.121,9.121,9.121,9.121,9.121,9.121,9.121,9.121,9.121,9.121,9.121,9.121,9.121,9.121,9.121,9.121,9.121,9.121,9.0902,9.0594,9.0594,9.0325,8.9902,8.944,8.9363,8.9363,8.9363,8.9363,8.9633,9.0479,9.0287,9.0171,9.0556,9.0287,9.0171,9.0556,9.0287,9.021,9.0556,9.0388,9.0252,9.034,9.0058,8.9813,8.9715,8.9341,8.9381,8.9961,8.9258,8.9023,8.9414,8.9023,8.8867,8.8867,8.9219,8.9414,8.9414,8.9414,8.9414,7.4955,7.578,7.7026,7.8688,7.9275,7.9592,7.99,7.9054,7.8169,7.8092,7.7438,7.6899,7.6899,7.8246,8.0092,8.2247,8.4401,8.6286,8.7786,8.8556,8.9517,9.1018,9.121,9.121,9.121,9.121,9.121,9.121,9.121,9.121,9.121,9.121,9.121,9.121,9.121,9.121,9.121,9.121,9.121,9.121,9.121,9.121,9.121,9.121,9.121,9.121,9.121,9.121,9.121,9.121,9.121,9.121,9.121,9.121,9.121,9.121,9.121,9.121,9.121,9.121,9.121,9.121,9.121,9.121,9.121,9.121,9.121,9.121,9.121,9.121,9.121,9.121,9.121,9.121,9.121,9.1018,9.0364,9.021,9.021,9.021,9.021,9.0441,9.1095,9.121,9.121,9.121,9.121,9.121,9.121,9.121,9.1206,9.127,9.1412,9.154,9.1645,9.1287,9.0875,9.0417,9.015,9.0195,9.0586,9.0234,9.0117,9.0312,9.0117,9.0,9.0,9.0195,9.0312,9.0312,9.0312,9.0312,7.6863,7.7147,7.7624,7.9315,7.9154,7.9631,8.3555,8.2554,8.1477,8.3785,8.1747,7.9515,7.9515,8.09,8.2362,8.3362,8.6247,8.8709,8.9594,8.9787,9.0171,9.1095,9.121,9.121,9.121,9.121,9.121,9.121,9.121,9.121,9.121,9.121,9.121,9.121,9.121,9.121,9.121,9.121,9.121,9.121,9.121,9.121,9.121,9.121,9.121,9.121,9.121,9.121,9.121,9.121,9.121,9.121,9.121,9.121,9.121,9.121,9.121,9.121,9.121,9.121,9.121,9.121,9.121,9.121,9.121,9.121,9.121,9.121,9.121,9.121,9.121,9.121,9.121,9.121,9.121,9.1171,9.1133,9.1133,9.1133,9.1133,9.1133,9.1133,9.121,9.121,9.121,9.121,9.121,9.121,9.121,9.121,9.1248,9.1473,9.1488,9.1678,9.2128,9.2358,9.242,9.2382,9.0898,9.0742,9.2344,9.0859,9.039,9.1172,9.039,9.0,9.0,9.082,9.1211,9.1211,9.1211,9.1211,7.6399,7.6476,7.7284,8.0554,8.0323,8.0015,8.267,8.2978,8.2939,8.3901,8.3054,8.2016,8.1439,8.2324,8.3555,8.4939,8.8017,9.0364,9.0671,9.071,9.0825,9.1171,9.121,9.121,9.121,9.121,9.121,9.121,9.121,9.121,9.121,9.121,9.121,9.121,9.121,9.121,9.121,9.121,9.121,9.121,9.121,9.121,9.121,9.121,9.121,9.121,9.121,9.121,9.121,9.121,9.121,9.121,9.121,9.121,9.121,9.121,9.121,9.121,9.121,9.121,9.121,9.121,9.121,9.121,9.121,9.121,9.121,9.121,9.121,9.121,9.121,9.121,9.121,9.121,9.121,9.121,9.121,9.121,9.121,9.121,9.121,9.121,9.121,9.121,9.121,9.121,9.121,9.121,9.121,9.1291,9.1427,9.1488,9.1782,9.206,9.2404,9.2537,9.2617,9.2617,9.1992,9.1914,9.2578,9.1953,9.1758,9.2109,9.1797,9.1601,9.1601,9.1953,9.2109,9.2109,9.2109,9.2109,7.6015,7.6015,7.6746,7.9939,8.0477,8.0708,8.267,8.3978,8.5093,8.617,8.5324,8.3939,8.2554,8.3247,8.4478,8.5863,8.8748,9.0902,9.1171,9.121,9.121,9.121,9.121,9.121,9.121,9.121,9.121,9.121,9.121,9.121,9.121,9.121,9.121,9.121,9.121,9.121,9.121,9.121,9.121,9.121,9.121,9.121,9.121,9.121,9.121,9.121,9.121,9.121,9.121,9.121,9.121,9.121,9.121,9.121,9.121,9.121,9.121,9.121,9.121,9.121,9.121,9.121,9.121,9.121,9.121,9.121,9.121,9.121,9.121,9.121,9.121,9.121,9.121,9.121,9.121,9.121,9.121,9.121,9.121,9.121,9.121,9.121,9.121,9.121,9.121,9.121,9.1253,9.1297,9.1297,9.15,9.1672,9.1721,9.2066,9.24,9.2578,9.2617,9.2617,9.2617,9.2617,9.2617,9.2617,9.2617,9.2617,9.2617,9.2617,9.2617,9.2617,9.2617,9.2617,9.2617,9.2617,9.2617,7.6015,7.6015,7.6207,7.7092,7.9246,8.1785,8.4362,8.6209,8.8363,9.1787,8.9094,8.5324,8.2824,8.3747,8.517,8.5978,8.8248,9.021,9.1095,9.121,9.121,9.121,9.121,9.121,9.121,9.121,9.121,9.121,9.121,9.121,9.121,9.121,9.121,9.121,9.121,9.121,9.121,9.121,9.121,9.121,9.121,9.121,9.121,9.121,9.121,9.121,9.121,9.121,9.121,9.121,9.121,9.121,9.121,9.121,9.121,9.121,9.121,9.121,9.121,9.121,9.121,9.121,9.121,9.121,9.121,9.121,9.121,9.121,9.121,9.121,9.121,9.121,9.121,9.121,9.121,9.121,9.121,9.121,9.121,9.121,9.121,9.121,9.121,9.121,9.121,9.121,9.1392,9.1515,9.1515,9.1721,9.1965,9.2169,9.2447,9.2617,9.2617,9.2617,9.2617,9.2617,9.2617,9.2617,9.2617,9.2617,9.2617,9.2617,9.2617,9.2617,9.2617,9.2617,9.2617,9.2617,9.2617,9.2617,7.5822,7.6015,7.663,7.9323,8.1439,8.367,8.6863,8.794,8.894,9.1133,8.9133,8.6786,8.6017,8.6324,8.6748,8.6978,8.9133,9.0902,9.1171,9.121,9.121,9.121,9.121,9.121,9.121,9.121,9.121,9.121,9.121,9.121,9.121,9.121,9.121,9.121,9.121,9.121,9.121,9.121,9.121,9.121,9.121,9.121,9.121,9.121,9.121,9.121,9.121,9.121,9.121,9.121,9.121,9.121,9.121,9.121,9.121,9.121,9.121,9.121,9.121,9.121,9.121,9.121,9.121,9.121,9.121,9.121,9.121,9.121,9.1633,9.2095,9.2095,9.2095,9.1979,9.1364,9.121,9.121,9.121,9.121,9.121,9.121,9.121,9.121,9.121,9.1824,9.2137,9.1504,9.2118,9.254,9.2065,9.2048,9.2212,9.2448,9.2537,9.2617,9.2617,9.2617,9.2617,9.2617,9.2617,9.2617,9.2617,9.2617,9.2617,9.2617,9.2617,9.2617,9.2617,9.2617,9.2617,9.2617,9.2617,9.2617,7.6361,7.7015,7.8092,8.0516,8.2631,8.5093,8.8825,8.9671,8.9979,9.0979,8.944,8.7902,8.7902,8.7632,8.7517,8.7863,8.9479,9.0787,9.1171,9.121,9.121,9.121,9.121,9.121,9.121,9.121,9.121,9.121,9.121,9.121,9.121,9.121,9.121,9.121,9.121,9.121,9.121,9.121,9.121,9.121,9.121,9.121,9.121,9.121,9.121,9.121,9.121,9.121,9.121,9.121,9.121,9.121,9.121,9.121,9.121,9.121,9.121,9.121,9.121,9.121,9.121,9.121,9.121,9.121,9.121,9.121,9.121,9.121,9.1595,9.1979,9.1979,9.2249,9.2364,9.1825,9.171,9.1633,9.1287,9.1479,9.1595,9.1287,9.121,9.121,9.121,9.1801,9.2096,9.1592,9.2229,9.269,9.2382,9.2663,9.2951,9.3085,9.3437,9.3633,9.3633,9.332,9.3125,9.3125,9.2773,9.2617,9.2617,9.2617,9.2617,9.2617,9.2617,9.2617,9.2617,9.2617,9.2617,9.2617,9.2617,9.2617,7.7246,7.8515,8.0054,8.117,8.3478,8.6517,9.0441,9.1364,9.1364,9.1248,8.9979,8.8902,8.8825,8.8171,8.7902,8.8786,8.9556,9.0325,9.1095,9.121,9.121,9.121,9.121,9.121,9.121,9.121,9.121,9.121,9.121,9.121,9.121,9.121,9.121,9.121,9.121,9.121,9.121,9.121,9.121,9.121,9.121,9.121,9.121,9.121,9.121,9.121,9.121,9.121,9.121,9.121,9.121,9.121,9.121,9.121,9.121,9.121,9.121,9.121,9.121,9.121,9.121,9.121,9.121,9.121,9.121,9.121,9.121,9.121,9.1248,9.1325,9.1402,9.2018,9.2633,9.271,9.2672,9.2364,9.1518,9.2018,9.2364,9.1595,9.1441,9.1458,9.1455,9.1707,9.185,9.1835,9.2129,9.246,9.2695,9.3476,9.4023,9.4023,9.4726,9.5195,9.5195,9.4453,9.3984,9.3906,9.3164,9.2695,9.2617,9.2617,9.2617,9.2617,9.2617,9.2617,9.2617,9.2617,9.2617,9.2617,9.2617,9.2617,7.6938,7.8515,8.0477,8.3362,8.6978,9.0248,9.1864,9.271,9.2787,9.1479,9.0902,9.0441,8.9787,8.9479,8.9671,9.0517,9.0825,9.0979,9.1171,9.121,9.121,9.121,9.121,9.121,9.121,9.121,9.121,9.121,9.121,9.121,9.121,9.121,9.121,9.121,9.121,9.121,9.121,9.121,9.121,9.121,9.121,9.121,9.121,9.121,9.121,9.121,9.121,9.121,9.121,9.121,9.121,9.121,9.121,9.121,9.121,9.121,9.121,9.121,9.121,9.121,9.121,9.121,9.121,9.121,9.121,9.121,9.121,9.121,9.171,9.2364,9.2979,9.3287,9.3595,9.4287,9.3941,9.321,9.2402,9.2864,9.3403,9.321,9.3172,9.3218,9.3437,9.4222,9.469,9.4434,9.3892,9.3552,9.3593,9.4375,9.4922,9.4922,9.5078,9.5195,9.5195,9.5039,9.4648,9.3945,9.3711,9.332,9.2617,9.2617,9.2617,9.2617,9.2617,9.2617,9.2617,9.2617,9.2617,9.2617,9.2617,9.2617,7.74,7.94,8.1939,8.5747,8.8979,9.1441,9.2287,9.3133,9.321,9.1556,9.121,9.0941,9.0056,8.9902,9.0056,9.0517,9.0941,9.121,9.121,9.121,9.121,9.121,9.121,9.121,9.121,9.121,9.121,9.121,9.121,9.121,9.121,9.121,9.121,9.121,9.121,9.121,9.121,9.121,9.121,9.121,9.121,9.121,9.121,9.121,9.121,9.121,9.121,9.121,9.121,9.121,9.121,9.121,9.121,9.121,9.121,9.121,9.121,9.121,9.121,9.121,9.121,9.121,9.121,9.121,9.121,9.121,9.1287,9.171,9.2133,9.2672,9.348,9.4018,9.4326,9.4364,9.4326,9.4095,9.3249,9.371,9.421,9.3787,9.371,9.3791,9.4055,9.4738,9.527,9.5193,9.4804,9.4531,9.4531,9.5273,9.582,9.582,9.6172,9.6406,9.6406,9.6054,9.5625,9.5156,9.4375,9.3711,9.3242,9.2812,9.2617,9.2617,9.2617,9.2617,9.2617,9.2617,9.2617,9.2617,9.2617,9.2617,7.7592,8.0362,8.367,8.7517,8.9748,9.121,9.2095,9.2903,9.3095,9.171,9.1287,9.0941,9.0056,8.9902,8.994,9.0094,9.0748,9.1171,9.1018,9.1133,9.1133,9.0979,9.1133,9.121,9.121,9.121,9.121,9.121,9.121,9.121,9.121,9.121,9.121,9.121,9.121,9.121,9.121,9.121,9.121,9.121,9.121,9.121,9.121,9.121,9.121,9.121,9.121,9.121,9.121,9.121,9.121,9.121,9.121,9.121,9.121,9.121,9.121,9.121,9.121,9.121,9.121,9.121,9.121,9.121,9.121,9.1325,9.1556,9.2287,9.2595,9.2903,9.371,9.4441,9.4864,9.4287,9.4711,9.498,9.4095,9.4595,9.5018,9.4287,9.4198,9.4366,9.4627,9.4924,9.516,9.539,9.5429,9.5429,9.5429,9.6172,9.6719,9.6719,9.7304,9.7695,9.7695,9.7109,9.664,9.6523,9.5,9.4062,9.3906,9.3047,9.2617,9.2617,9.2617,9.2617,9.2617,9.2617,9.2617,9.2617,9.2734,9.2812,7.5861,8.0362,8.5055,8.7055,8.8825,9.0325,9.1171,9.2056,9.2595,9.2364,9.1748,9.0941,9.0056,8.9902,9.0171,9.0902,9.1133,9.0941,9.0171,9.071,9.0941,9.0171,9.0748,9.121,9.121,9.121,9.121,9.121,9.121,9.121,9.121,9.121,9.121,9.121,9.121,9.121,9.121,9.121,9.121,9.121,9.121,9.121,9.121,9.121,9.121,9.121,9.121,9.121,9.121,9.121,9.121,9.121,9.121,9.121,9.121,9.121,9.121,9.121,9.121,9.121,9.121,9.121,9.121,9.121,9.121,9.1748,9.2364,9.2479,9.2979,9.3749,9.4595,9.4903,9.5172,9.5788,9.6057,9.5903,9.5018,9.5518,9.6095,9.598,9.6275,9.6643,9.6895,9.6565,9.6288,9.6328,9.6328,9.6328,9.6328,9.7031,9.7539,9.7539,9.7656,9.7695,9.7695,9.7617,9.7226,9.6523,9.5586,9.4687,9.3945,9.3047,9.2617,9.2617,9.2617,9.2617,9.2617,9.2617,9.2617,9.2617,9.3359,9.3711,7.6284,8.0708,8.467,8.6863,8.794,8.8748,8.9594,9.0094,9.0364,9.0364,9.0056,8.9979,9.0517,9.0633,9.0748,9.1133,9.121,9.1056,9.0671,9.0979,9.1056,9.0671,9.0979,9.121,9.121,9.121,9.121,9.121,9.121,9.121,9.121,9.121,9.121,9.121,9.121,9.121,9.121,9.121,9.121,9.121,9.121,9.121,9.121,9.121,9.121,9.121,9.121,9.121,9.121,9.121,9.121,9.121,9.121,9.121,9.121,9.121,9.121,9.121,9.121,9.121,9.121,9.121,9.121,9.121,9.121,9.1479,9.1979,9.2903,9.3441,9.4018,9.5365,9.5711,9.5826,9.6211,9.6288,9.6245,9.5924,9.6099,9.6322,9.6426,9.6871,9.7253,9.7358,9.7286,9.7187,9.7187,9.7187,9.7187,9.7187,9.7461,9.7695,9.7695,9.7695,9.7695,9.7695,9.7695,9.7539,9.7187,9.6406,9.5742,9.5351,9.4531,9.4062,9.4062,9.3086,9.2617,9.2617,9.3086,9.332,9.3359,9.4219,9.4648,7.5861,7.94,8.2285,8.4824,8.594,8.6671,8.7517,8.8055,8.844,8.8632,8.8709,8.9094,9.0325,9.0748,9.0864,9.0864,9.1056,9.1133,9.0902,9.1056,9.1133,9.0902,9.1056,9.121,9.121,9.121,9.121,9.121,9.121,9.121,9.121,9.121,9.121,9.121,9.121,9.121,9.121,9.121,9.121,9.121,9.121,9.121,9.121,9.121,9.121,9.121,9.121,9.121,9.121,9.121,9.121,9.121,9.121,9.121,9.121,9.121,9.121,9.121,9.121,9.121,9.121,9.121,9.121,9.121,9.121,9.1364,9.1787,9.3018,9.371,9.4326,9.5634,9.6134,9.6288,9.6288,9.6288,9.6338,9.6542,9.656,9.6529,9.6745,9.7123,9.742,9.7483,9.7607,9.7695,9.7695,9.7695,9.7695,9.7695,9.7695,9.7695,9.7695,9.7695,9.7695,9.7695,9.7695,9.7695,9.7695,9.6953,9.6484,9.6484,9.5664,9.5195,9.5195,9.3906,9.3242,9.3242,9.3906,9.4219,9.4258,9.5117,9.5547,7.3014,7.5053,7.7015,7.9554,8.2016,8.4016,8.4901,8.6324,8.7709,8.8517,8.8709,8.8709,8.8786,8.944,8.9979,8.9979,9.0671,9.0902,9.0094,9.0671,9.0902,9.0094,9.071,9.121,9.121,9.121,9.121,9.121,9.121,9.121,9.121,9.121,9.121,9.121,9.121,9.121,9.121,9.121,9.121,9.121,9.121,9.121,9.121,9.121,9.121,9.121,9.121,9.121,9.121,9.121,9.121,9.121,9.121,9.121,9.121,9.121,9.121,9.121,9.121,9.121,9.121,9.121,9.121,9.121,9.121,9.1787,9.2441,9.2556,9.371,9.4941,9.5018,9.5672,9.6288,9.6288,9.6288,9.6338,9.6542,9.6792,9.7048,9.7322,9.7363,9.744,9.7654,9.7695,9.7695,9.7695,9.7695,9.7695,9.7695,9.7695,9.7695,9.7695,9.7695,9.7695,9.7695,9.7695,9.7695,9.7695,9.6953,9.6484,9.6484,9.5664,9.5195,9.5195,9.5117,9.5078,9.5078,9.5117,9.5117,9.5156,9.6015,9.6445,7.1437,7.386,7.6476,7.8477,8.0054,8.1516,8.2901,8.4132,8.5209,8.6094,8.6671,8.7017,8.7017,8.8594,8.9902,8.9902,9.0633,9.1095,9.0787,9.1018,9.1095,9.0787,9.1018,9.121,9.121,9.121,9.121,9.121,9.121,9.121,9.121,9.121,9.121,9.121,9.121,9.121,9.121,9.121,9.121,9.121,9.121,9.121,9.121,9.121,9.121,9.121,9.121,9.121,9.121,9.121,9.121,9.121,9.121,9.121,9.121,9.121,9.121,9.121,9.121,9.1556,9.1941,9.1364,9.1595,9.1941,9.1364,9.1825,9.2595,9.3133,9.4095,9.5134,9.5672,9.6057,9.6322,9.6474,9.6613,9.6831,9.7065,9.7206,9.731,9.7363,9.75,9.761,9.7695,9.7695,9.7539,9.6992,9.7383,9.75,9.6992,9.7383,9.7695,9.7695,9.7695,9.7695,9.7695,9.7695,9.7695,9.7695,9.7422,9.7265,9.7265,9.6953,9.6797,9.6797,9.6797,9.6289,9.5195,9.5742,9.6015,9.6054,9.6875,9.7265,6.9398,7.1514,7.3937,7.5899,7.7246,7.8669,8.0939,8.2131,8.317,8.4593,8.5324,8.5786,8.6055,8.7709,8.9171,8.944,9.0479,9.121,9.121,9.121,9.121,9.121,9.121,9.121,9.121,9.121,9.121,9.121,9.121,9.121,9.121,9.121,9.121,9.121,9.121,9.121,9.121,9.121,9.121,9.121,9.121,9.121,9.121,9.121,9.121,9.121,9.121,9.121,9.121,9.121,9.121,9.121,9.121,9.121,9.121,9.121,9.121,9.1248,9.1518,9.2018,9.2441,9.2133,9.2249,9.2441,9.2133,9.2249,9.2672,9.348,9.4326,9.5134,9.5711,9.6095,9.6338,9.6542,9.6804,9.7074,9.7343,9.7437,9.75,9.75,9.7609,9.7695,9.7695,9.7695,9.7539,9.6992,9.7344,9.75,9.6953,9.7383,9.7695,9.7695,9.7695,9.7695,9.7695,9.7695,9.7695,9.7695,9.7695,9.7695,9.7695,9.7695,9.7695,9.7695,9.7695,9.7148,9.6054,9.6601,9.6914,9.6914,9.7461,9.7695,0.0,0.0,0.0,7.1475,7.3322,7.5438,7.8861,8.0323,8.167,8.4247,8.4824,8.5132,8.594,8.6824,8.7671,8.8517,9.0056,9.1171,9.1171,9.1171,9.121,9.121,9.121,9.121,9.121,9.121,9.121,9.121,9.121,9.121,9.121,9.121,9.121,9.121,9.121,9.121,9.121,9.121,9.121,9.121,9.121,9.121,9.121,9.121,9.121,9.121,9.121,9.121,9.121,9.121,9.121,9.121,9.121,9.121,9.121,9.1248,9.1248,9.1364,9.221,9.2556,9.271,9.3441,9.3172,9.271,9.348,9.3172,9.2749,9.3518,9.4364,9.5018,9.5018,9.5691,9.6355,9.6556,9.6827,9.7091,9.7348,9.7559,9.7695,9.7695,9.7695,9.7695,9.7695,9.7695,9.7695,9.7656,9.7656,9.7656,9.7656,9.7656,9.7656,9.7695,9.7695,9.7695,9.7695,9.7695,9.7695,9.7695,9.7695,9.7695,9.7695,9.7695,9.7695,9.7695,9.7695,9.7695,9.7695,9.7695,9.7695,9.7695,9.7695,9.7695,6.6167,0.0,0.0,0.0,0.0,0.0,7.463,7.6361,7.8323,8.1516,8.3131,8.4401,8.5824,8.6824,8.7478,8.7709,8.9171,9.0287,9.0287,9.0787,9.121,9.121,9.121,9.121,9.121,9.121,9.121,9.121,9.121,9.121,9.121,9.121,9.121,9.121,9.121,9.121,9.121,9.121,9.121,9.121,9.121,9.121,9.121,9.121,9.121,9.121,9.121,9.121,9.121,9.121,9.121,9.121,9.121,9.121,9.1287,9.1902,9.2133,9.2249,9.3095,9.3787,9.4249,9.3826,9.398,9.421,9.3826,9.398,9.4326,9.4557,9.5249,9.5942,9.5942,9.6227,9.657,9.6827,9.7099,9.7354,9.7561,9.7655,9.7695,9.7695,9.7695,9.7695,9.7695,9.7695,9.75,9.6914,9.6836,9.6836,9.6836,9.6836,9.7031,9.7656,9.7695,9.7695,9.7695,9.7695,9.7695,9.7695,9.7695,9.7695,9.7695,9.7695,9.7695,9.7695,9.7695,9.7695,9.7695,9.7695,9.7695,9.7695,9.7695,9.7695,0.0,0.0,0.0,0.0,0.0,0.0,7.3168,7.4514,7.613,8.0246,8.1593,8.2631,8.467,8.5478,8.594,8.6286,8.8055,8.9517,8.9863,9.0671,9.121,9.121,9.121,9.121,9.121,9.121,9.121,9.121,9.121,9.121,9.121,9.121,9.121,9.121,9.121,9.121,9.121,9.121,9.121,9.121,9.121,9.121,9.121,9.121,9.121,9.121,9.121,9.121,9.121,9.121,9.121,9.121,9.121,9.121,9.1325,9.2172,9.2479,9.2672,9.3826,9.4557,9.498,9.4826,9.4864,9.498,9.4826,9.4903,9.5057,9.5441,9.5903,9.6288,9.6288,9.6442,9.6682,9.6954,9.722,9.7479,9.7654,9.7695,9.7695,9.7695,9.7695,9.7695,9.7695,9.7695,9.7539,9.707,9.6992,9.6992,9.6992,9.6992,9.7187,9.7656,9.7695,9.7695,9.7695,9.7695,9.7695,9.7695,9.7695,9.7695,9.7695,9.7695,9.7695,9.7695,9.7695,9.7695,9.7695,9.7695,9.7695,9.7695,9.7695,9.7695,6.5859,0.0,0.0,0.0,6.7628,0.0,7.2822,7.3514,7.4553,7.9285,7.9862,8.0285,8.2708,8.3247,8.3593,8.4362,8.6632,8.8632,8.9633,9.0594,9.121,9.121,9.121,9.121,9.121,9.121,9.121,9.121,9.121,9.121,9.121,9.121,9.121,9.121,9.121,9.121,9.121,9.121,9.121,9.121,9.121,9.121,9.121,9.121,9.121,9.121,9.121,9.121,9.121,9.121,9.121,9.121,9.121,9.121,9.1325,9.2287,9.2633,9.2864,9.4557,9.5134,9.5249,9.6057,9.5788,9.5288,9.6057,9.5749,9.5288,9.6095,9.6288,9.6288,9.6304,9.6467,9.6695,9.6993,9.7246,9.749,9.7655,9.7695,9.7695,9.7695,9.7695,9.7695,9.7695,9.7695,9.7695,9.7695,9.7617,9.7617,9.7695,9.7617,9.7617,9.7695,9.7695,9.7695,9.7695,9.7695,9.7695,9.7695,9.7695,9.7695,9.7695,9.7695,9.7695,9.7695,9.7695,9.7695,9.7695,9.7695,9.7695,9.7695,9.7695,9.7695,6.5705,6.5897,6.5974,6.632,0.0,0.0,6.8359,7.0052,7.2091,7.4476,7.6476,7.8361,8.0208,8.1093,8.1631,8.1823,8.3978,8.6401,8.8632,9.0248,9.121,9.121,9.121,9.121,9.121,9.121,9.121,9.121,9.121,9.121,9.121,9.121,9.121,9.121,9.121,9.121,9.121,9.121,9.121,9.121,9.121,9.121,9.121,9.121,9.121,9.121,9.121,9.121,9.121,9.121,9.121,9.121,9.121,9.121,9.1364,9.2903,9.348,9.371,9.5441,9.6057,9.6057,9.6249,9.6172,9.6095,9.6249,9.6172,9.6095,9.6249,9.6288,9.634,9.6514,9.6746,9.7003,9.7253,9.7497,9.7654,9.7695,9.7695,9.7695,9.7695,9.7695,9.7695,9.7695,9.7695,9.7695,9.7695,9.7148,9.6953,9.7617,9.7148,9.6992,9.7617,9.7695,9.7695,9.7695,9.7695,9.7695,9.7695,9.7695,9.7695,9.7695,9.7695,9.7695,9.7695,9.7695,9.7695,9.7695,9.7695,9.7695,9.7695,9.7695,9.7695,6.5417,6.5513,6.5646,6.632,0.0,0.0,0.0,6.9052,7.0244,7.2399,7.3514,7.4745,7.6861,7.763,7.8323,7.9592,8.2324,8.4709,8.5978,8.8671,9.071,9.1171,9.121,9.121,9.121,9.121,9.121,9.121,9.121,9.121,9.121,9.121,9.121,9.121,9.121,9.121,9.121,9.121,9.121,9.121,9.121,9.121,9.121,9.121,9.121,9.121,9.121,9.121,9.121,9.121,9.121,9.121,9.121,9.1479,9.2018,9.3249,9.398,9.4518,9.5865,9.6288,9.6288,9.6288,9.6288,9.6288,9.6288,9.6288,9.6343,9.6415,9.6442,9.6499,9.6759,9.7012,9.724,9.7354,9.7557,9.7695,9.7695,9.7695,9.7695,9.7695,9.7695,9.7695,9.7695,9.7695,9.7695,9.7695,9.7344,9.7226,9.7656,9.7344,9.7265,9.7656,9.7695,9.7695,9.7695,9.7695,9.7695,9.7695,9.7695,9.7695,9.7695,9.7695,9.7695,9.7695,9.7695,9.7695,9.7695,9.7695,9.7695,9.7695,9.7695,9.7695,0.0,0.0,0.0,0.0,0.0,6.7051,0.0,0.0,0.0,7.0821,7.0937,7.1283,7.336,7.4014,7.4899,7.6938,8.0169,8.2439,8.2593,8.5978,8.894,9.0325,9.0633,9.0787,9.0941,9.0825,9.0864,9.1171,9.0902,9.0864,9.1171,9.121,9.121,9.121,9.121,9.121,9.121,9.121,9.121,9.121,9.121,9.121,9.121,9.121,9.121,9.121,9.121,9.121,9.121,9.121,9.121,9.121,9.121,9.1633,9.2364,9.3326,9.4134,9.4903,9.5942,9.6288,9.6288,9.6288,9.6288,9.6288,9.6288,9.6304,9.6386,9.6542,9.6643,9.6732,9.7021,9.724,9.7416,9.7437,9.7563,9.7695,9.7695,9.7695,9.7695,9.7695,9.7695,9.7695,9.7695,9.7695,9.7695,9.7695,9.7695,9.7695,9.7695,9.7695,9.7695,9.7695,9.7695,9.7695,9.7695,9.7695,9.7695,9.7695,9.7695,9.7695,9.7695,9.7695,9.7695,9.7695,9.7695,9.7695,9.7695,9.7695,9.7695,9.7695,9.7695,9.7695,0.0,0.0,0.0,0.0,6.7841,0.0,0.0,0.0,6.8282,6.7782,0.0,6.9937,7.0206,0.0,0.0,7.286,7.5784,7.8246,7.8977,8.1439,8.4324,8.744,8.8517,8.9248,8.9979,8.9402,8.9594,9.1095,8.9825,8.9633,9.1133,9.121,9.121,9.121,9.121,9.121,9.121,9.121,9.121,9.121,9.121,9.121,9.121,9.121,9.121,9.121,9.121,9.121,9.121,9.121,9.121,9.121,9.121,9.1248,9.1556,9.3133,9.3749,9.4095,9.5749,9.6288,9.6288,9.6288,9.6288,9.6288,9.6288,9.6415,9.657,9.6574,9.6769,9.703,9.7271,9.7397,9.7433,9.7611,9.7695,9.7695,9.7695,9.7695,9.7695,9.7695,9.7695,9.7695,9.7695,9.7695,9.7695,9.7695,9.7695,9.7695,9.7695,9.7695,9.7695,9.7695,9.7695,9.7695,9.7695,9.7695,9.7695,9.7695,9.7695,9.7695,9.7695,9.7695,9.7695,9.7695,9.7695,9.7695,9.7695,9.7695,9.7695,9.7695,9.7695,9.7695,0.0,0.0,0.0,0.0,0.0,0.0,6.6884,0.0,6.6859,0.0,0.0,0.0,0.0,0.0,0.0,0.0,7.3899,7.6092,7.6938,7.9246,8.1939,8.4863,8.5517,8.6247,8.7594,8.7863,8.844,8.9671,8.8632,8.8671,9.0364,9.0441,9.0671,9.1171,9.121,9.121,9.121,9.121,9.121,9.121,9.121,9.121,9.121,9.121,9.121,9.121,9.121,9.121,9.121,9.121,9.121,9.121,9.121,9.1518,9.2095,9.3249,9.4018,9.4634,9.5865,9.6288,9.6288,9.6288,9.6288,9.6343,9.6448,9.6536,9.6682,9.6993,9.7138,9.7277,9.7505,9.7561,9.7606,9.7695,9.7695,9.7695,9.7695,9.7695,9.7695,9.7695,9.7695,9.7695,9.7695,9.7695,9.7695,9.7695,9.7695,9.7695,9.7695,9.7695,9.7695,9.7695,9.7695,9.7695,9.7695,9.7695,9.7695,9.7695,9.7695,9.7695,9.7695,9.7695,9.7695,9.7695,9.7695,9.7695,9.7695,9.7695,9.7695,9.7695,9.7695,9.7695,6.7247,0.0,0.0,0.0,0.0,0.0,0.0,0.0,0.0,0.0,0.0,0.0,0.0,0.0,0.0,0.0,0.0,7.4591,7.5245,7.7092,7.9438,8.2208,8.2939,8.3708,8.4939,8.544,8.6324,8.7863,8.6978,8.7286,8.9479,8.9787,9.021,9.0825,9.1095,9.121,9.121,9.121,9.121,9.121,9.121,9.121,9.121,9.121,9.121,9.121,9.121,9.1241,9.1281,9.1281,9.1281,9.1281,9.1281,9.1621,9.2249,9.3056,9.3903,9.4749,9.5634,9.6095,9.6288,9.6288,9.6288,9.634,9.6551,9.6656,9.6815,9.7259,9.7433,9.7505,9.7655,9.7695,9.7695,9.7695,9.7695,9.7695,9.7695,9.7695,9.7695,9.7695,9.7695,9.7695,9.7695,9.7695,9.7695,9.7695,9.7695,9.7695,9.7695,9.7695,9.7695,9.7695,9.7695,9.7695,9.7695,9.7695,9.7695,9.7695,9.7695,9.7695,9.7695,9.7695,9.7695,9.7695,9.7695,9.7695,9.7695,9.7695,9.7695,9.7695,9.7695,9.7695,0.0,0.0,0.0,6.784,0.0,0.0,0.0,0.0,6.7683,0.0,0.0,0.0,0.0,0.0,0.0,0.0,0.0,0.0,0.0,0.0,0.0,0.0,0.0,8.2362,8.2401,8.1747,8.267,8.594,8.4632,8.517,8.8556,8.9479,8.9902,8.9923,9.0748,9.121,9.121,9.121,9.121,9.121,9.121,9.121,9.121,9.121,9.121,9.121,9.121,9.1291,9.1488,9.1488,9.1488,9.1488,9.1488,9.1376,9.1364,9.221,9.3056,9.3864,9.4749,9.5595,9.6288,9.6288,9.6288,9.634,9.6551,9.678,9.7048,9.7333,9.7552,9.7695,9.7695,9.7695,9.7695,9.7695,9.7695,9.7695,9.7695,9.7695,9.7695,9.7695,9.7695,9.7695,9.7695,9.7695,9.7695,9.7695,9.7695,9.7695,9.7695,9.7695,9.7695,9.7695,9.7695,9.7695,9.7695,9.7695,9.7695,9.7695,9.7695,9.7695,9.7695,9.7695,9.7695,9.7695,9.7695,9.7695,9.7695,9.7695,9.7695,9.7695,9.7695,9.7695,0.0,0.0,7.1495,6.9323,0.0,0.0,0.0,0.0,0.0,0.0,0.0,0.0,0.0,0.0,0.0,0.0,0.0,0.0,0.0,0.0,0.0,0.0,0.0,0.0,0.0,8.0054,8.117,8.3439,8.2554,8.3401,8.6786,8.7786,8.8748,8.9863,9.0748,9.121,9.121,9.121,9.121,9.121,9.121,9.121,9.121,9.121,9.1248,9.1383,9.1253,9.1421,9.176,9.1427,9.1368,9.1488,9.1346,9.127,9.1325,9.2172,9.3018,9.3903,9.5365,9.6057,9.6288,9.6288,9.6386,9.6551,9.678,9.7057,9.7327,9.7552,9.7653,9.7695,9.7695,9.7695,9.7695,9.7695,9.7695,9.7695,9.7695,9.7695,9.7695,9.7695,9.7695,9.7695,9.7695,9.7695,9.7695,9.7695,9.7695,9.7695,9.7695,9.7695,9.7695,9.7695,9.7695,9.7695,9.7695,9.7695,9.7695,9.7695,9.7695,9.7695,9.7695,9.7695,9.7695,9.7695,9.7695,9.7695,9.7695,9.7695,9.7695,9.7695,9.7695,9.7695,7.2716,7.2753,0.0,7.103,7.0024,0.0,6.7379,0.0,0.0,0.0,0.0,0.0,0.0,0.0,0.0,0.0,0.0,0.0,0.0,7.3553,0.0,0.0,0.0,0.0,0.0,7.8015,7.8938,8.1246,8.0631,8.1516,8.4593,8.644,8.7902,8.8979,9.0441,9.121,9.121,9.121,9.121,9.121,9.1248,9.1329,9.1291,9.1406,9.1527,9.1638,9.1397,9.154,9.1888,9.1484,9.1368,9.1488,9.1361,9.127,9.1287,9.1825,9.2749,9.3903,9.5326,9.6057,9.6288,9.6288,9.6448,9.6656,9.6934,9.7206,9.7433,9.7653,9.7695,9.7695,9.7695,9.7695,9.7695,9.7695,9.7695,9.7695,9.7695,9.7695,9.7695,9.7695,9.7695,9.7695,9.7695,9.7695,9.7695,9.7695,9.7695,9.7695,9.7695,9.7695,9.7695,9.7695,9.7695,9.7695,9.7695,9.7695,9.7695,9.7695,9.7695,9.7695,9.7695,9.7695,9.7695,9.7695,9.7695,9.7695,9.7695,9.7695,9.7695,9.7695,9.7695,9.7695]}]]